Date StartTime U_cm/s V_cm/s W_cm/s Ustd_cm/s Vstd_cm/s Wstd_cm/s Uvar_(cm/s)^2 Vvar_(cm/s)^2 Wvar_(cm/s)^2 KE_(m/s)^2 TurbulentKE_(m/s)^2 HorizWindSpeed_cm/s FrictionSpeec_cm/s DragCoef SpeedOfSound_m/s SonicTemperature_C Pressure_mb 
07/12/2013  00:00:00      -18.235     -120.117       -0.417       29.835       55.019       35.463      890.106     3027.057     1257.597        0.997        0.259      121.493       19.783        0.027      345.077       22.350      860.589
07/12/2013  00:01:00      -96.142     -147.344       -9.709       74.261       51.435       38.707     5514.673     2645.515     1498.257        2.035        0.483      175.936       17.649        0.010      344.980       22.182      860.595
07/12/2013  00:02:00      -90.073     -124.361       -0.808       74.085       50.142       35.299     5488.626     2514.250     1246.001        1.641        0.462      153.554       33.553        0.048      344.954       22.137      860.598
07/12/2013  00:03:00     -128.562     -135.435      -11.623       45.705       77.406       31.665     2088.967     5991.685     1002.656        2.204        0.454      186.737       21.415        0.013      344.920       22.078      860.609
07/12/2013  00:04:00     -129.300     -111.517       -7.153       55.858       63.236       31.464     3120.090     3998.849      989.969        1.866        0.405      170.747       29.520        0.030      344.895       22.036      860.604
07/12/2013  00:05:00     -106.419      -90.704       -2.647       44.063       76.966       28.553     1941.572     5923.739      815.292        1.412        0.434      139.829       26.303        0.035      344.827       21.922      860.606
07/12/2013  00:06:00     -186.820      -96.286        3.587       81.980       62.804       36.080     6720.725     3944.312     1301.770        2.807        0.598      210.173       36.618        0.030      344.868       21.990      860.596
07/12/2013  00:07:00     -142.776      -95.234       -4.164       59.940       50.739       29.414     3592.811     2574.413      865.163        1.825        0.352      171.623       19.262        0.013      344.850       21.960      860.593
07/12/2013  00:08:00      -94.896     -103.618        1.214       87.551       51.323       31.931     7665.093     2634.043     1019.595        1.553        0.566      140.506       34.644        0.061      344.838       21.940      860.586
07/12/2013  00:09:00      -89.468     -152.988       -2.334       56.437       60.650       36.426     3185.134     3678.466     1326.822        1.980        0.410      177.228       31.601        0.032      344.857       21.972      860.582
07/12/2013  00:10:00      -91.661     -124.066        0.484       46.169       67.164       32.784     2131.574     4511.067     1074.771        1.575        0.386      154.254       19.569        0.016      344.828       21.923      860.574
07/12/2013  00:11:00      -91.431     -114.757        9.904       67.607       80.590       39.133     4570.751     6494.768     1531.413        1.711        0.630      146.727       40.988        0.078      344.748       21.784      860.579
07/12/2013  00:12:00     -141.835      -91.734        3.607       63.745       48.402       37.733     4063.364     2342.794     1423.769        1.819        0.391      168.915       32.477        0.037      344.715       21.730      860.590
07/12/2013  00:13:00     -145.289     -106.892        2.047       46.870       47.573       25.701     2196.763     2263.158      660.524        1.883        0.256      180.374       23.059        0.016      344.706       21.713      860.595
07/12/2013  00:14:00     -131.582      -90.709       -0.137       60.135       40.558       34.800     3616.216     1644.961     1211.040        1.601        0.324      159.819       34.493        0.047      344.722       21.743      860.606
07/12/2013  00:15:00     -127.679     -100.956        1.899       57.088       48.039       38.842     3259.021     2307.757     1508.690        1.679        0.354      162.770       34.834        0.046      344.683       21.675      860.619
07/12/2013  00:16:00     -103.014      -81.565        5.927       63.428       44.959       30.723     4023.069     2021.292      943.883        1.214        0.349      131.395       32.538        0.061      344.620       21.569      860.617
07/12/2013  00:17:00     -125.121      -90.349       -2.585       47.409       40.609       28.255     2247.644     1649.122      798.335        1.426        0.235      154.332       20.779        0.018      344.650       21.620      860.611
07/12/2013  00:18:00     -128.005     -122.761        2.061       61.754       50.172       32.881     3813.594     2517.244     1081.148        1.943        0.371      177.357       33.334        0.035      344.643       21.607      860.615
07/12/2013  00:19:00      -53.172     -134.660        9.966       70.828       66.916       39.002     5016.643     4477.806     1521.143        1.604        0.551      144.778       38.647        0.071      344.628       21.581      860.611
07/12/2013  00:20:00     -132.050     -111.656       -2.282       62.707       72.685       36.210     3932.199     5283.176     1311.155        2.022        0.526      172.929       36.913        0.046      344.558       21.460      860.604
07/12/2013  00:21:00     -164.817     -119.767       -2.017       49.784       60.221       36.172     2478.435     3626.583     1308.401        2.446        0.371      203.737       29.315        0.021      344.564       21.471      860.594
07/12/2013  00:22:00     -107.831      -96.626       -6.280       58.348       63.015       32.482     3404.466     3970.948     1055.094        1.472        0.422      144.790       20.784        0.021      344.630       21.583      860.579
07/12/2013  00:23:00     -109.802     -121.496        3.243       66.803       93.327       41.015     4462.661     8710.001     1682.232        2.084        0.743      163.762       39.864        0.059      344.805       21.882      860.576
07/12/2013  00:24:00     -126.472     -127.588       -0.854       77.220       56.378       32.099     5963.002     3178.478     1030.376        2.122        0.509      179.649       24.760        0.019      344.775       21.832      860.593
07/12/2013  00:25:00     -174.477     -132.404        0.383       86.846       68.964       37.383     7542.273     4756.023     1397.481        3.083        0.685      219.028       29.890        0.019      344.713       21.723      860.601
07/12/2013  00:26:00     -148.637     -100.823        4.557       88.369       56.862       36.447     7809.091     3233.257     1328.365        2.232        0.619      179.606       36.877        0.042      344.652       21.620      860.620
07/12/2013  00:27:00      -70.413     -103.420       10.636       87.646       73.389       41.183     7681.738     5385.889     1696.020        1.526        0.738      125.115       52.564        0.177      344.595       21.525      860.632
07/12/2013  00:28:00      -96.539     -106.248       11.403       59.636       54.162       34.606     3556.438     2933.512     1197.561        1.421        0.384      143.557       36.205        0.064      344.568       21.477      860.636
07/12/2013  00:29:00      -98.119      -91.800       -0.277       52.313       39.627       31.869     2736.700     1570.311     1015.665        1.169        0.266      134.367       14.103        0.011      344.516       21.390      860.640
07/12/2013  00:30:00      -12.478      -61.779       -3.167       34.480       33.026       26.728     1188.873     1090.704      714.404        0.349        0.150       63.026       18.314        0.084      344.496       21.357      860.641
07/12/2013  00:31:00      -46.982      -72.094        5.098       61.009       46.495       28.506     3722.065     2161.763      812.564        0.706        0.335       86.052       32.845        0.146      344.502       21.367      860.634
07/12/2013  00:32:00      -44.600     -103.550        4.566       49.885       38.714       34.262     2488.497     1498.739     1173.866        0.895        0.258      112.746       14.062        0.016      344.457       21.289      860.642
07/12/2013  00:33:00       -9.641      -72.997      -16.951       43.555       25.901       23.372     1897.045      670.854      546.240        0.441        0.156       73.631       13.391        0.033      344.399       21.189      860.647
07/12/2013  00:34:00       11.419     -140.196      -12.043       68.630       54.812       33.432     4710.059     3004.408     1117.696        1.438        0.442      140.660       20.233        0.021      344.413       21.213      860.635
07/12/2013  00:35:00        2.497     -103.839      -15.409       56.236       49.725       32.767     3162.508     2472.536     1073.663        0.887        0.335      103.869       23.717        0.052      344.473       21.317      860.642
07/12/2013  00:36:00      -27.695     -105.180      -12.495       45.102       52.884       30.660     2034.156     2796.712      940.013        0.888        0.289      108.765       20.597        0.036      344.452       21.280      860.668
07/12/2013  00:37:00      -81.463      -63.691        1.591       61.271       48.561       34.757     3754.099     2358.211     1208.042        0.901        0.366      103.406       25.986        0.063      344.321       21.057      860.679
07/12/2013  00:38:00      -71.842      -67.556       -0.209       54.057       41.434       27.246     2922.150     1716.737      742.359        0.755        0.269       98.616       23.541        0.057      344.311       21.039      860.683
07/12/2013  00:39:00      -78.167     -134.240        9.792       72.444       60.999       38.752     5248.075     3720.874     1501.722        1.735        0.524      155.340       38.580        0.062      344.318       21.050      860.676
07/12/2013  00:40:00      -94.387     -136.688      -18.481       47.248       72.970       25.493     2232.391     5324.560      649.888        1.807        0.410      166.110       26.629        0.026      344.330       21.070      860.673
07/12/2013  00:41:00      -82.001     -119.618        2.733       49.025       41.316       32.194     2403.417     1706.996     1036.432        1.309        0.257      145.026       30.299        0.044      344.295       21.013      860.673
07/12/2013  00:42:00      -47.516      -77.096        2.888       40.176       53.268       24.939     1614.088     2837.500      621.963        0.664        0.254       90.563       22.828        0.064      344.279       20.986      860.668
07/12/2013  00:43:00      -35.510      -33.271       12.905       36.450       26.820       26.040     1328.585      719.310      678.101        0.263        0.136       48.661       18.498        0.145      344.167       20.795      860.671
07/12/2013  00:44:00      -44.737      -49.839        0.200       54.006       54.993       26.847     2916.598     3024.210      720.748        0.557        0.333       66.973       31.353        0.219      344.155       20.773      860.685
07/12/2013  00:45:00      -80.052      -86.439       -4.493       54.503       39.984       23.693     2970.556     1598.759      561.340        0.951        0.257      117.814       22.000        0.035      344.276       20.980      860.677
07/12/2013  00:46:00      -55.808     -121.034       -2.788       34.460       67.779       22.306     1187.514     4593.982      497.557        1.202        0.314      133.281       29.630        0.049      344.292       21.006      860.672
07/12/2013  00:47:00      -75.528      -77.895       -8.937       25.892       30.194       16.857      670.393      911.686      284.144        0.686        0.093      108.499        7.461        0.005      344.275       20.977      860.671
07/12/2013  00:48:00      -37.889      -73.944        7.065       34.834       34.657       23.637     1213.424     1201.123      558.721        0.496        0.149       83.086       18.252        0.048      344.240       20.919      860.684
07/12/2013  00:49:00      -69.714      -68.151       -4.942       54.104       36.015       23.444     2927.274     1297.058      549.614        0.715        0.239       97.491       27.407        0.079      344.235       20.910      860.684
07/12/2013  00:50:00      -61.763      -81.886       -2.457       53.207       46.413       29.230     2831.020     2154.183      854.371        0.818        0.292      102.567       31.739        0.096      344.278       20.983      860.684
07/12/2013  00:51:00      -77.068     -136.914        1.751       57.022       56.506       43.236     3251.516     3192.948     1869.377        1.650        0.416      157.115       28.267        0.032      344.328       21.067      860.690
07/12/2013  00:52:00      -65.341      -84.478        4.051       58.601       62.354       37.000     3434.107     3888.002     1368.971        1.006        0.435      106.799       34.323        0.103      344.239       20.917      860.696
07/12/2013  00:53:00      -37.546      -93.153        3.973       28.124       35.996       24.325      790.970     1295.737      591.694        0.639        0.134      100.435       12.977        0.017      344.274       20.975      860.692
07/12/2013  00:54:00      -31.111      -44.045        1.237       24.305       22.883       16.707      590.732      523.624      279.115        0.215        0.070       53.925       11.543        0.046      344.229       20.902      860.686
07/12/2013  00:55:00       -2.030      -49.202       -0.118       20.355       39.118       20.809      414.334     1530.188      433.007        0.240        0.119       49.243       19.145        0.151      344.165       20.789      860.702
07/12/2013  00:56:00       18.547      -26.891       -0.321       23.155       26.518       15.216      536.173      703.183      231.528        0.127        0.074       32.667       16.238        0.247      344.100       20.680      860.721
07/12/2013  00:57:00       27.316        7.020        6.823       28.548       21.653       13.847      814.990      468.868      191.745        0.116        0.074       28.203        4.345        0.024      343.788       20.145      860.720
07/12/2013  00:58:00       81.176       30.129        9.204       23.176       16.046       19.220      537.127      257.464      369.399        0.437        0.058       86.587       14.975        0.030      343.537       19.718      860.712
07/12/2013  00:59:00       78.895       41.968       11.971       28.827       16.568       23.386      831.012      274.495      546.907        0.489        0.083       89.363       14.642        0.027      343.636       19.887      860.701
07/12/2013  01:00:00       15.281       23.476       37.533       20.337       26.643       11.566      413.594      709.849      133.764        0.173        0.063       28.011       12.448        0.197      343.473       19.609      860.718
07/12/2013  01:01:00       78.560       53.567       44.943       42.825       19.940       16.543     1833.966      397.602      273.684        0.678        0.125       95.085        8.052        0.007      343.629       19.875      860.723
07/12/2013  01:02:00       72.535       64.316       45.206       38.456       22.271       20.190     1478.866      495.997      407.647        0.691        0.119       96.943       19.279        0.040      343.714       20.019      860.725
07/12/2013  01:03:00       50.060       53.139       49.382       25.011       23.612       23.843      625.561      557.524      568.470        0.476        0.088       73.005       15.274        0.044      343.662       19.930      860.714
07/12/2013  01:04:00       50.772       29.327       30.646       21.965       20.792       24.237      482.476      432.305      587.427        0.294        0.075       58.633       14.902        0.065      343.479       19.618      860.724
07/12/2013  01:05:00       80.192       36.321       21.105       42.818       25.843       22.770     1833.392      667.848      518.459        0.561        0.151       88.034       18.222        0.043      343.484       19.629      860.714
07/12/2013  01:06:00       94.279       53.888       14.716       30.073       28.565       21.013      904.361      815.938      441.566        0.708        0.108      108.593       14.806        0.019      343.527       19.703      860.713
07/12/2013  01:07:00       80.722       52.030       23.208       37.293       20.548       19.398     1390.784      422.230      376.279        0.598        0.109       96.037       19.093        0.040      343.392       19.473      860.717
07/12/2013  01:08:00       55.076       27.352        5.165       33.581       23.903       15.810     1127.680      571.356      249.962        0.288        0.097       61.494       13.892        0.051      343.298       19.310      860.719
07/12/2013  01:09:00       44.748       25.077        8.954       29.734       26.742       21.281      884.124      715.109      452.875        0.238        0.103       51.296       18.213        0.126      343.275       19.272      860.728
07/12/2013  01:10:00       10.973      -16.824       -4.216       15.037       14.495       15.062      226.112      210.102      226.858        0.054        0.033       20.086       10.215        0.259      343.329       19.364      860.737
07/12/2013  01:11:00       17.500       -9.473        6.489       12.993       31.556       10.275      168.811      995.798      105.575        0.085        0.064       19.899        8.651        0.189      343.419       19.518      860.733
07/12/2013  01:12:00       14.282       17.929        2.927       20.450       16.915       16.484      418.214      286.121      271.727        0.075        0.049       22.923       14.409        0.395      343.416       19.513      860.735
07/12/2013  01:13:00       79.766       31.625       14.216       34.898       33.593       25.166     1217.860     1128.481      633.329        0.527        0.149       85.807       11.597        0.018      343.455       19.578      860.729
07/12/2013  01:14:00       85.045       71.700       24.614       28.677       18.488       22.586      822.352      341.805      510.114        0.733        0.084      111.237       17.094        0.024      343.552       19.743      860.729
07/12/2013  01:15:00       80.167       47.216       29.869       33.026       20.447       29.377     1090.733      418.066      862.980        0.596        0.119       93.038       23.370        0.063      343.582       19.795      860.757
07/12/2013  01:16:00       81.550       53.971       38.630       30.578       18.755       25.399      935.007      351.761      645.118        0.649        0.097       97.792       19.010        0.038      343.460       19.587      860.751
07/12/2013  01:17:00       42.091       23.971       29.496       37.369       29.091       16.651     1396.415      846.292      277.268        0.287        0.126       48.438       19.533        0.163      343.451       19.573      860.747
07/12/2013  01:18:00       48.497       26.001       20.485       28.613       24.471       20.924      818.730      598.839      437.804        0.265        0.093       55.028       14.486        0.069      343.406       19.494      860.759
07/12/2013  01:19:00       42.394       15.421       10.253       28.651       17.606       16.028      820.901      309.985      256.881        0.176        0.069       45.112       11.686        0.067      343.411       19.503      860.755
07/12/2013  01:20:00       86.406       43.233       19.099       25.092       19.429       17.091      629.619      377.489      292.102        0.550        0.065       96.618       11.648        0.015      343.413       19.507      860.766
07/12/2013  01:21:00       76.247       54.745       17.427       17.493       14.504       16.484      305.993      210.376      271.708        0.495        0.039       93.864       11.073        0.014      343.338       19.380      860.778
07/12/2013  01:22:00       85.551       44.732       13.317       35.357       25.034       25.729     1250.147      626.706      661.963        0.602        0.127       96.540       17.188        0.032      343.267       19.258      860.770
07/12/2013  01:23:00       64.470       40.092       10.294       25.725       21.066       16.478      661.751      443.763      271.531        0.362        0.069       75.920       13.275        0.031      343.249       19.228      860.787
07/12/2013  01:24:00       47.303       35.328        1.295       23.961       22.130       17.215      574.134      489.738      296.367        0.242        0.068       59.039       14.999        0.065      343.424       19.527      860.810
07/12/2013  01:25:00       56.301       13.864       12.112       19.168       18.343       15.734      367.419      336.464      247.570        0.223        0.048       57.983       14.434        0.062      343.276       19.274      860.814
07/12/2013  01:26:00       59.615       25.243        7.485       18.770       13.542       13.474      352.303      183.372      181.543        0.248        0.036       64.739        6.136        0.009      343.286       19.290      860.808
07/12/2013  01:27:00       88.379       40.467       17.111       22.376       21.733       16.690      500.674      472.317      278.552        0.550        0.063       97.203       14.086        0.021      343.423       19.523      860.810
07/12/2013  01:28:00       69.529       45.028        8.873       14.795       14.999       12.825      218.894      224.974      164.486        0.377        0.030       82.837        5.498        0.004      343.474       19.611      860.807
07/12/2013  01:29:00       97.267       65.156       14.606       17.910       11.552       11.424      320.773      133.448      130.511        0.725        0.029      117.073        8.841        0.006      343.410       19.502      860.802
07/12/2013  01:30:00       76.431       53.604        6.733       33.137       24.789       18.077     1098.074      614.488      326.793        0.540        0.102       93.354       13.958        0.022      343.273       19.268      860.796
07/12/2013  01:31:00       78.320       55.734       24.720       16.230       15.029       18.487      263.428      225.869      341.779        0.534        0.042       96.126       10.682        0.012      343.420       19.520      860.799
07/12/2013  01:32:00       37.183       17.916       21.448       19.552       15.455       14.708      382.277      238.864      216.322        0.150        0.042       41.275       12.329        0.089      343.190       19.127      860.792
07/12/2013  01:33:00       25.613       -2.931        0.239       15.823       14.038       10.556      250.356      197.076      111.430        0.061        0.028       25.780        9.405        0.133      343.255       19.238      860.797
07/12/2013  01:34:00       10.431      -23.205       -4.895       17.976       11.883       10.186      323.135      141.214      103.748        0.062        0.028       25.442       10.817        0.181      343.344       19.390      860.786
07/12/2013  01:35:00      -30.222       -3.557       -0.239       17.537       16.759        7.804      307.560      280.851       60.895        0.079        0.032       30.431        8.623        0.080      343.262       19.250      860.767
07/12/2013  01:36:00      -47.163       18.159       -9.366        5.572        7.281        5.144       31.045       53.018       26.461        0.138        0.006       50.538        2.559        0.003      343.303       19.320      860.758
07/12/2013  01:37:00      -52.112       14.918       -9.970       13.467       10.549        5.642      181.362      111.291       31.828        0.168        0.016       54.205        5.507        0.010      343.340       19.383      860.740
07/12/2013  01:38:00      -44.656        4.585       -7.292       13.910        9.425       13.859      193.488       88.821      192.063        0.127        0.024       44.891        7.961        0.031      343.366       19.427      860.729
07/12/2013  01:39:00      -17.280       40.304       -8.022       14.048       12.338        7.476      197.344      152.234       55.890        0.120        0.020       43.852        5.236        0.014      343.506       19.667      860.711
07/12/2013  01:40:00      -44.167       42.482      -13.314       17.225       27.341        9.779      296.715      747.514       95.636        0.254        0.057       61.282        4.348        0.005      343.609       19.840      860.717
07/12/2013  01:41:00      -54.365      -23.767      -11.866       10.903       11.214        7.161      118.878      125.749       51.280        0.198        0.015       59.333        3.074        0.003      343.407       19.496      860.723
07/12/2013  01:42:00      -73.260      -31.854      -10.115        9.799        6.693        6.514       96.011       44.798       42.429        0.333        0.009       79.885        2.149        0.001      343.272       19.267      860.718
07/12/2013  01:43:00      -70.582      -32.487      -13.409       10.189        8.410        7.061      103.823       70.724       49.863        0.322        0.011       77.700        5.375        0.005      343.325       19.357      860.723
07/12/2013  01:44:00      -32.883      -16.584       -4.064       10.322        8.977        7.477      106.537       80.579       55.910        0.081        0.012       36.829        7.214        0.038      343.369       19.433      860.726
07/12/2013  01:45:00        7.982       -2.601       -2.106       10.849        5.170       11.005      117.706       26.729      121.117        0.017        0.013        8.395        8.442        1.011      343.399       19.483      860.713
07/12/2013  01:46:00      -18.480       -7.080        1.363        8.340        7.315        6.330       69.559       53.507       40.067        0.028        0.008       19.790        3.455        0.030      343.508       19.671      860.708
07/12/2013  01:47:00      -39.090      -11.895       -5.685        8.010        8.146        5.959       64.168       66.357       35.510        0.093        0.008       40.860        3.806        0.009      343.422       19.520      860.713
07/12/2013  01:48:00      -49.652       -1.629       -8.005        6.970        5.206        3.782       48.578       27.103       14.303        0.131        0.004       49.679        0.770        0.000      343.477       19.617      860.712
07/12/2013  01:49:00      -64.708       -2.170      -11.947        6.501        6.784        5.039       42.262       46.029       25.389        0.222        0.006       64.744        4.347        0.005      343.607       19.837      860.701
07/12/2013  01:50:00      -53.444      -22.506      -10.100       12.666        8.996        5.927      160.428       80.921       35.131        0.187        0.014       57.989        3.354        0.003      343.210       19.161      860.688
07/12/2013  01:51:00      -59.318      -13.586      -12.626        7.294        8.273        6.159       53.199       68.446       37.929        0.201        0.008       60.854        1.368        0.001      343.240       19.213      860.677
07/12/2013  01:52:00      -47.147      -18.645      -10.336        8.815        9.466        4.547       77.709       89.613       20.678        0.143        0.009       50.700        2.180        0.002      343.412       19.501      860.669
07/12/2013  01:53:00      -50.075      -23.412       -9.116       10.673       10.963        7.974      113.917      120.182       63.592        0.172        0.015       55.278        5.852        0.011      343.227       19.188      860.664
07/12/2013  01:54:00      -89.193      -15.975      -13.335       21.085       17.698        7.817      444.581      313.210       61.100        0.460        0.041       90.612        6.140        0.005      343.021       18.839      860.666
07/12/2013  01:55:00     -127.686      -55.879      -10.790       31.781       23.067       15.358     1010.063      532.100      235.865        1.066        0.089      139.378        9.272        0.004      342.778       18.426      860.682
07/12/2013  01:56:00      -74.257      -17.460       -3.957       18.910       17.542       11.073      357.600      307.723      122.607        0.331        0.039       76.282        8.386        0.012      342.699       18.292      860.681
07/12/2013  01:57:00      -67.346      -22.558       -8.606       15.172        9.434        7.522      230.196       89.009       56.583        0.275        0.019       71.024        4.308        0.004      343.051       18.891      860.665
07/12/2013  01:58:00      -14.273      -19.730       -3.353       11.756        5.219        5.617      138.210       27.237       31.556        0.040        0.010       24.351        5.655        0.054      343.538       19.720      860.652
07/12/2013  01:59:00        0.211      -31.154        4.956       19.130       25.440       21.661      365.967      647.180      469.204        0.124        0.074       31.154       16.706        0.288      343.425       19.528      860.639
07/12/2013  02:00:00        4.476      -73.850       -9.635       22.217       25.173       12.894      493.617      633.691      166.243        0.343        0.065       73.986       11.664        0.025      343.519       19.689      860.654
07/12/2013  02:01:00      -29.586       -6.879       -5.199       24.235       19.288       15.530      587.343      372.036      241.188        0.107        0.060       30.375       12.519        0.170      343.136       19.035      860.674
07/12/2013  02:02:00      -67.275       -3.321      -11.949       18.442       15.987        8.160      340.116      255.598       66.586        0.267        0.033       67.356        6.779        0.010      342.806       18.473      860.679
07/12/2013  02:03:00      -87.694        5.419       -9.670       14.687       25.643        8.038      215.712      657.581       64.604        0.438        0.047       87.861        9.912        0.013      342.909       18.648      860.670
07/12/2013  02:04:00      -37.700       -7.036       -8.193       11.932       14.107        5.685      142.368      199.016       32.315        0.096        0.019       38.351        6.673        0.030      343.027       18.850      860.658
07/12/2013  02:05:00      -77.584      -16.857      -10.397       17.272       15.415       12.412      298.329      237.627      154.047        0.355        0.035       79.394        8.997        0.013      342.878       18.596      860.652
07/12/2013  02:06:00     -127.037       -7.296       -9.417       29.919       26.895       13.446      895.146      723.343      180.795        0.904        0.090      127.246       13.700        0.012      342.669       18.239      860.649
07/12/2013  02:07:00      -80.617      -35.808       -5.782       22.480       23.133       17.004      505.339      535.154      289.139        0.457        0.066       88.212       14.241        0.026      342.559       18.053      860.642
07/12/2013  02:08:00      -62.950       -8.093       -3.388       16.983       21.133       11.004      288.424      446.599      121.079        0.245        0.043       63.468        9.017        0.020      342.504       17.959      860.638
07/12/2013  02:09:00      -62.984       -9.810        1.489       20.619       16.220       12.292      425.142      263.102      151.087        0.245        0.042       63.743        8.067        0.016      342.884       18.606      860.649
07/12/2013  02:10:00      -47.073      -33.437       -3.280       30.272       16.681       14.949      916.406      278.254      223.471        0.238        0.071       57.740        9.651        0.028      342.965       18.744      860.664
07/12/2013  02:11:00       -5.293      -22.251        7.343       17.918       12.470       14.239      321.040      155.507      202.759        0.063        0.034       22.872        7.395        0.105      342.821       18.501      860.674
07/12/2013  02:12:00      -30.028       -7.784       -4.216        9.941       13.381        7.299       98.820      179.059       53.275        0.066        0.017       31.020        3.880        0.016      342.633       18.179      860.678
07/12/2013  02:13:00      -52.804       15.328       -6.178        6.630        7.863        5.129       43.954       61.825       26.303        0.160        0.007       54.984        3.093        0.003      342.726       18.338      860.691
07/12/2013  02:14:00      -52.457       -0.928       -5.859        5.478        9.354        4.057       30.013       87.489       16.461        0.146        0.007       52.465        3.112        0.004      342.818       18.493      860.683
07/12/2013  02:15:00      -33.740      -12.521       -6.554       12.166        5.553        6.667      148.015       30.837       44.454        0.078        0.011       35.989        7.750        0.046      342.689       18.274      860.685
07/12/2013  02:16:00       -3.354        8.011        0.939        6.221        5.771        4.721       38.705       33.304       22.290        0.009        0.005        8.685        2.175        0.063      342.661       18.228      860.683
07/12/2013  02:17:00      -12.432        5.059       -1.060        5.674        9.555        5.861       32.193       91.290       34.354        0.017        0.008       13.422        5.508        0.168      342.806       18.475      860.682
07/12/2013  02:18:00      -14.195        0.700       -0.964        6.036        4.819        3.536       36.435       23.224       12.507        0.014        0.004       14.212        2.185        0.024      342.817       18.491      860.673
07/12/2013  02:19:00      -27.845       -6.860       -2.592       11.244        9.789        3.614      126.429       95.834       13.064        0.053        0.012       28.677        5.362        0.035      342.796       18.459      860.668
07/12/2013  02:20:00      -57.548      -10.795      -10.821       13.015        6.701        6.327      169.383       44.899       40.030        0.190        0.013       58.551        4.559        0.006      342.550       18.037      860.672
07/12/2013  02:21:00      -81.168      -15.800      -13.605       14.849       14.883       12.275      220.492      221.497      150.683        0.381        0.030       82.691       10.106        0.015      342.365       17.724      860.682
07/12/2013  02:22:00     -112.897      -43.976       -7.387       22.840       19.167       12.853      521.643      367.393      165.190        0.789        0.053      121.160        6.343        0.003      342.179       17.406      860.683
07/12/2013  02:23:00     -115.719      -43.963       -8.797       22.278       23.931       14.447      496.295      572.671      208.713        0.834        0.064      123.789        9.369        0.006      342.014       17.129      860.688
07/12/2013  02:24:00      -67.024      -36.823       -1.881       29.487       24.723       18.540      869.499      611.241      343.744        0.384        0.091       76.473       18.560        0.059      342.028       17.152      860.707
07/12/2013  02:25:00      -32.000       -5.555        0.770       21.649       19.556       14.543      468.662      382.433      211.512        0.106        0.053       32.478       13.473        0.172      342.296       17.606      860.712
07/12/2013  02:26:00      -22.802       26.202       -2.105       13.312        6.787        4.652      177.201       46.066       21.644        0.073        0.012       34.735        1.671        0.002      342.777       18.424      860.709
07/12/2013  02:27:00        8.770       17.452        9.223        9.991       11.869        7.294       99.820      140.873       53.203        0.038        0.015       19.531        6.528        0.112      342.654       18.215      860.714
07/12/2013  02:28:00       -1.812       -2.838       -3.370        5.798        3.896        3.540       33.612       15.176       12.531        0.004        0.003        3.367        1.971        0.342      342.484       17.925      860.738
07/12/2013  02:29:00      -54.321        0.182       -8.900       25.161       14.414       10.917      633.083      207.765      119.182        0.199        0.048       54.322        7.343        0.018      342.250       17.528      860.738
07/12/2013  02:30:00      -65.172      -21.956      -12.291       13.998       17.257       11.348      195.953      297.788      128.784        0.275        0.031       68.771        8.025        0.014      342.077       17.235      860.742
07/12/2013  02:31:00      -57.404      -16.925       -7.264        8.649       11.080        9.042       74.798      122.767       81.751        0.196        0.014       59.847        5.758        0.009      342.112       17.295      860.754
07/12/2013  02:32:00      -34.550      -17.145       -7.448       10.423        6.348        4.838      108.639       40.303       23.406        0.086        0.009       38.571        2.121        0.003      342.310       17.628      860.746
07/12/2013  02:33:00       11.634      -13.458       -2.578       12.649       10.342        7.095      160.001      106.960       50.340        0.032        0.016       17.789        4.879        0.075      342.615       18.150      860.743
07/12/2013  02:34:00       21.029       -0.703       -0.376       15.179        8.657        8.693      230.413       74.946       75.567        0.041        0.019       21.040        6.174        0.086      342.448       17.866      860.747
07/12/2013  02:35:00       43.076      -12.127        5.046       22.851       17.301       10.831      522.155      299.332      117.308        0.148        0.047       44.750        9.397        0.044      342.801       18.465      860.742
07/12/2013  02:36:00       14.387        0.001        5.366       11.390       10.916       10.856      129.723      119.165      117.842        0.030        0.018       14.387        5.970        0.172      342.623       18.161      860.744
07/12/2013  02:37:00       -4.380      -12.592       13.220       13.456       16.137       11.473      181.062      260.415      131.637        0.046        0.029       13.333        7.647        0.329      342.634       18.181      860.758
07/12/2013  02:38:00      -22.292       -0.199        8.069       18.577       11.659       11.404      345.095      135.934      130.049        0.059        0.031       22.293        8.573        0.148      342.432       17.838      860.761
07/12/2013  02:39:00      -72.818      -15.804      -12.517       11.801        8.994        6.011      139.267       80.885       36.138        0.298        0.013       74.514        3.919        0.003      342.109       17.290      860.776
07/12/2013  02:40:00     -106.047       -8.400      -13.070       19.660       16.292       14.945      386.501      265.417      223.356        0.618        0.044      106.379       10.205        0.009      342.026       17.147      860.793
07/12/2013  02:41:00      -92.392       -4.846      -13.750       22.242       19.598       11.057      494.700      384.096      122.257        0.487        0.050       92.519        6.588        0.005      341.929       16.984      860.789
07/12/2013  02:42:00      -59.743       -3.176      -13.045       18.387       10.034        9.693      338.093      100.681       93.948        0.214        0.027       59.827        6.944        0.013      342.148       17.355      860.790
07/12/2013  02:43:00      -24.085       15.919       -3.330       10.088        7.632        3.564      101.761       58.240       12.702        0.051        0.009       28.871        3.417        0.014      342.801       18.465      860.799
07/12/2013  02:44:00      -28.758       24.795       -4.133        7.021        9.531        5.383       49.290       90.831       28.981        0.081        0.008       37.972        2.768        0.005      342.536       18.015      860.799
07/12/2013  02:45:00      -49.538      -16.584      -10.343       14.172       12.555        7.419      200.850      157.626       55.047        0.162        0.021       52.240        5.298        0.010      342.058       17.202      860.809
07/12/2013  02:46:00      -94.021      -29.421      -19.699       24.032       21.597       15.110      577.557      466.412      228.301        0.568        0.064       98.516        6.510        0.004      341.741       16.664      860.810
07/12/2013  02:47:00     -124.724      -23.327      -17.937       23.440       26.805       17.582      549.422      718.523      309.140        0.900        0.079      126.887       11.535        0.008      341.631       16.478      860.812
07/12/2013  02:48:00     -101.005      -46.988       -9.410       36.783       31.749       22.123     1352.981     1008.019      489.433        0.767        0.143      111.399       14.257        0.016      341.620       16.459      860.813
07/12/2013  02:49:00     -120.752       -4.112       -4.316       43.733       27.981       27.108     1912.564      782.930      734.819        0.902        0.172      120.822       26.908        0.050      341.537       16.319      860.830
07/12/2013  02:50:00     -109.421       15.955       -0.334       39.486       39.067       30.796     1559.153     1526.231      948.390        0.813        0.202      110.578       22.176        0.040      341.494       16.246      860.835
07/12/2013  02:51:00     -120.309       36.689       -2.956       56.080       31.616       26.269     3145.017      999.602      690.041        1.033        0.242      125.779       20.118        0.026      341.719       16.628      860.830
07/12/2013  02:52:00     -133.597       34.009      -14.591       41.267       39.134       20.190     1702.972     1531.451      407.652        1.143        0.182      137.857        9.271        0.005      341.863       16.871      860.831
07/12/2013  02:53:00      -68.375       -5.260       -6.300       26.029       25.120       16.890      677.489      631.018      285.281        0.317        0.080       68.577        9.939        0.021      341.763       16.701      860.827
07/12/2013  02:54:00      -40.833       -8.232       -8.202       21.386       18.685       12.941      457.348      349.126      167.457        0.139        0.049       41.654       14.308        0.118      341.780       16.732      860.815
07/12/2013  02:55:00      -51.614      -14.838      -12.488       31.517       14.906       14.492      993.306      222.176      210.014        0.223        0.071       53.705       17.215        0.103      341.683       16.566      860.818
07/12/2013  02:56:00      -57.129      -19.850      -16.040       61.621       27.213       23.685     3797.208      740.574      560.964        0.451        0.255       60.480       21.315        0.124      341.561       16.360      860.838
07/12/2013  02:57:00     -135.351      -83.721       -1.585       55.576       39.038       30.097     3088.703     1523.928      905.849        1.542        0.276      159.151       26.481        0.028      341.374       16.041      860.851
07/12/2013  02:58:00     -148.414      -45.813       -7.763       36.315       25.891       23.520     1318.747      670.369      553.169        1.336        0.127      155.324       18.265        0.014      341.474       16.212      860.864
07/12/2013  02:59:00     -107.299      -21.391       -3.404       33.397       30.185       23.762     1115.352      911.158      564.644        0.729        0.130      109.410       18.897        0.030      341.493       16.244      860.862
07/12/2013  03:00:00      -79.469        6.165      -11.379       45.139       37.729       23.361     2037.495     1423.506      545.756        0.524        0.200       79.708       19.982        0.063      341.525       16.299      860.846
07/12/2013  03:01:00      -67.195       54.418       -6.808       25.300       29.320       21.239      640.071      859.663      451.089        0.474        0.098       86.467       13.916        0.026      341.951       17.021      860.837
07/12/2013  03:02:00      -65.486       30.550       -9.020       21.647       20.701       14.602      468.576      428.540      213.211        0.321        0.056       72.261       15.223        0.044      342.056       17.199      860.818
07/12/2013  03:03:00      -55.777      -19.512       -9.012       19.480       21.652       14.194      379.457      468.821      201.479        0.231        0.052       59.091       15.946        0.073      341.885       16.909      860.808
07/12/2013  03:04:00     -102.540      -55.426      -17.592       33.667       20.220       18.240     1133.436      408.845      332.715        0.789        0.094      116.561       12.713        0.012      341.743       16.669      860.817
07/12/2013  03:05:00      -97.076      -74.574       -7.134       24.051       27.811       19.790      578.472      773.427      391.629        0.839        0.087      122.414        5.954        0.002      341.548       16.337      860.822
07/12/2013  03:06:00     -124.436      -61.638       -4.962       26.276       22.073       21.081      690.429      487.205      444.399        1.046        0.081      138.865       10.474        0.006      341.534       16.313      860.835
07/12/2013  03:07:00     -102.928      -44.935      -10.980       30.922       28.089       18.499      956.165      788.981      342.210        0.741        0.104      112.309       15.380        0.019      341.546       16.332      860.823
07/12/2013  03:08:00      -73.973      -29.588       -3.605       30.489       21.763       13.757      929.563      473.644      189.244        0.398        0.080       79.671       13.505        0.029      341.493       16.242      860.825
07/12/2013  03:09:00      -38.565      -23.757      -10.838       17.519       20.753       18.293      306.916      430.682      334.627        0.162        0.054       45.295       14.236        0.099      341.563       16.362      860.818
07/12/2013  03:10:00      -86.266      -32.492      -14.776       20.546       21.903       19.520      422.156      479.725      381.034        0.500        0.064       92.182       14.039        0.023      341.640       16.492      860.812
07/12/2013  03:11:00     -104.686      -63.197      -12.508       37.377       32.449       22.051     1397.018     1052.952      486.256        0.902        0.147      122.282        4.525        0.001      341.572       16.377      860.819
07/12/2013  03:12:00      -97.860      -66.525       -4.010       49.019       37.074       28.781     2402.865     1374.492      828.344        0.931        0.230      118.330       27.740        0.055      341.456       16.181      860.814
07/12/2013  03:13:00     -104.600      -26.021       -4.542       47.675       35.454       22.816     2272.882     1257.000      520.552        0.784        0.203      107.788       22.549        0.044      341.438       16.149      860.827
07/12/2013  03:14:00      -90.391        9.301       -3.030       49.697       38.919       25.756     2469.784     1514.724      663.376        0.646        0.232       90.868       23.296        0.066      341.343       15.990      860.828
07/12/2013  03:15:00      -68.669       -1.476      -11.965       23.540       25.872       19.641      554.109      669.378      385.764        0.323        0.080       68.685       12.397        0.033      341.358       16.015      860.821
07/12/2013  03:16:00      -46.814      -29.988      -14.098       28.183       16.330       16.611      794.259      266.677      275.939        0.231        0.067       55.595       12.841        0.053      341.492       16.242      860.824
07/12/2013  03:17:00      -14.851      -17.945        0.031       29.455       26.608       19.131      867.620      707.988      365.991        0.124        0.097       23.293       13.292        0.326      341.608       16.439      860.810
07/12/2013  03:18:00      -68.415      -14.358      -14.554       19.741       12.741       11.760      389.715      162.340      138.302        0.289        0.035       69.906        7.533        0.012      341.645       16.501      860.799
07/12/2013  03:19:00      -71.008      -57.838       -6.365       24.986       21.921       20.435      624.291      480.524      417.609        0.497        0.076       91.583        7.218        0.006      341.547       16.335      860.783
07/12/2013  03:20:00      -92.919      -55.052       -6.230       39.733       23.566       22.878     1578.744      555.341      523.414        0.718        0.133      108.003       19.301        0.032      341.492       16.242      860.770
07/12/2013  03:21:00      -97.307      -30.425       -6.675       69.877       36.190       29.303     4882.786     1309.751      858.685        0.874        0.353      101.952       27.491        0.073      341.438       16.150      860.771
07/12/2013  03:22:00     -120.702       -4.050       -6.134       62.611       50.088       32.965     3920.124     2508.776     1086.670        1.107        0.376      120.770       32.616        0.073      341.228       15.794      860.768
07/12/2013  03:23:00     -118.112       10.778       -9.373       45.981       33.512       22.013     2114.252     1123.067      484.559        0.894        0.186      118.603       16.410        0.019      341.180       15.714      860.773
07/12/2013  03:24:00      -79.984       14.796      -18.173       30.750       35.433       16.302      945.584     1255.520      265.748        0.471        0.123       81.341        8.423        0.011      341.205       15.756      860.777
07/12/2013  03:25:00     -102.666      -11.643      -17.640       55.418       37.528       21.309     3071.102     1408.379      454.064        0.796        0.247      103.324       26.424        0.065      341.239       15.813      860.769
07/12/2013  03:26:00      -63.884      -13.534       -0.549       56.472       36.897       24.419     3189.140     1361.388      596.297        0.470        0.257       65.302       25.514        0.153      341.190       15.730      860.771
07/12/2013  03:27:00     -130.135      -80.098       -7.652       41.101       35.912       24.261     1689.326     1289.676      588.612        1.349        0.178      152.810       20.441        0.018      341.236       15.808      860.773
07/12/2013  03:28:00      -54.253      -44.770        6.233       41.342       37.079       22.739     1709.159     1374.846      517.048        0.429        0.180       70.340       23.057        0.107      341.143       15.650      860.760
07/12/2013  03:29:00      -44.095       -7.607      -11.524       26.231       28.599       16.867      688.061      817.880      284.493        0.196        0.090       44.746       15.255        0.116      341.099       15.575      860.763
07/12/2013  03:30:00      -53.488      -22.567       -1.333       27.565       29.324       18.461      759.852      859.921      340.800        0.267        0.098       58.054       14.822        0.065      341.132       15.633      860.759
07/12/2013  03:31:00      -26.019      -22.977       -6.153       27.478       21.425       14.866      755.048      459.045      220.986        0.134        0.072       34.713        6.736        0.038      341.234       15.806      860.760
07/12/2013  03:32:00      -47.718      -32.830       -7.361       43.944       21.556       16.197     1931.038      464.668      262.354        0.303        0.133       57.920       10.980        0.036      341.345       15.993      860.768
07/12/2013  03:33:00      -83.809      -68.106       -2.925       42.885       33.954       17.540     1839.135     1152.877      307.667        0.748        0.165      107.992       18.098        0.028      341.248       15.829      860.775
07/12/2013  03:34:00      -42.945      -40.970        8.175       45.324       31.530       23.290     2054.239      994.140      542.445        0.359        0.180       59.353       25.531        0.185      341.238       15.811      860.781
07/12/2013  03:35:00      -90.257      -70.408        5.763       48.626       31.379       26.151     2364.457      984.629      683.868        0.858        0.202      114.471       24.360        0.045      341.136       15.641      860.779
07/12/2013  03:36:00      -73.717      -47.464        0.160       48.617       31.518       19.971     2363.625      993.401      398.838        0.572        0.188       87.676       20.882        0.057      341.032       15.463      860.762
07/12/2013  03:37:00     -117.307      -46.469       -0.020       62.170       41.842       26.680     3865.086     1750.792      711.813        1.112        0.316      126.176       31.201        0.061      341.093       15.567      860.759
07/12/2013  03:38:00     -135.561      -18.778      -13.020       55.497       37.441       29.586     3079.899     1401.862      875.312        1.213        0.268      136.855       24.195        0.031      341.021       15.444      860.750
07/12/2013  03:39:00     -149.494      -39.114       -6.876       36.668       36.666       26.280     1344.570     1344.429      690.630        1.365        0.169      154.527       13.722        0.008      341.098       15.574      860.746
07/12/2013  03:40:00     -143.487      -75.904      -15.851       67.373       38.457       30.731     4539.109     1478.934      944.421        1.678        0.348      162.327       26.599        0.027      341.090       15.561      860.750
07/12/2013  03:41:00     -138.620      -39.897      -10.141       56.027       49.192       28.353     3139.053     2419.846      803.917        1.364        0.318      144.247       20.896        0.021      341.107       15.590      860.740
07/12/2013  03:42:00     -143.725      -29.318       -9.487       49.278       50.422       29.318     2428.339     2542.386      859.525        1.372        0.292      146.685       29.270        0.040      341.009       15.424      860.734
07/12/2013  03:43:00     -173.081       23.146      -12.892       51.461       56.009       33.954     2648.259     3137.049     1152.864        1.880        0.347      174.621       29.424        0.028      340.978       15.370      860.731
07/12/2013  03:44:00     -185.289       11.484      -28.171       41.419       41.639       24.726     1715.562     1733.827      611.383        1.966        0.203      185.645       21.243        0.013      341.106       15.588      860.718
07/12/2013  03:45:00     -152.870       25.863      -23.806       38.140       41.176       28.604     1454.676     1695.489      818.188        1.429        0.198      155.042       19.476        0.016      341.172       15.700      860.712
07/12/2013  03:46:00     -172.527       27.307      -16.387       48.385       40.313       22.650     2341.091     1625.125      513.006        1.763        0.224      174.674       18.021        0.011      341.281       15.885      860.699
07/12/2013  03:47:00     -117.911       28.611      -14.000       45.344       31.195       20.608     2056.104      973.141      424.698        0.919        0.173      121.332       10.103        0.007      341.338       15.980      860.689
07/12/2013  03:48:00      -27.689       12.587        4.919       45.080       31.249       25.027     2032.224      976.481      626.332        0.229        0.182       30.416       26.293        0.747      341.294       15.906      860.689
07/12/2013  03:49:00      -97.647      -41.247       -6.212       43.569       42.904       21.731     1898.272     1840.789      472.230        0.774        0.211      106.001        7.705        0.005      341.162       15.683      860.701
07/12/2013  03:50:00     -108.526      -39.802       -3.915       44.196       42.965       23.829     1953.320     1846.028      567.812        0.887        0.218      115.594       20.849        0.033      341.101       15.580      860.701
07/12/2013  03:51:00      -84.308      -33.658        2.152       47.853       40.566       27.331     2289.874     1645.564      746.995        0.646        0.234       90.778       28.995        0.102      341.020       15.442      860.714
07/12/2013  03:52:00     -120.460       -0.537      -13.661       33.787       41.840       21.568     1141.551     1750.554      465.163        0.903        0.168      120.461       12.058        0.010      341.131       15.632      860.723
07/12/2013  03:53:00      -83.399      -11.664      -13.121       33.353       30.215       18.563     1112.454      912.926      344.602        0.482        0.118       84.211       16.430        0.038      341.012       15.428      860.728
07/12/2013  03:54:00     -117.316      -44.910       -7.026       48.044       42.111       22.624     2308.268     1773.369      511.840        1.021        0.230      125.619       17.285        0.019      341.000       15.411      860.747
07/12/2013  03:55:00     -180.131      -36.759       -5.370       52.275       31.538       27.048     2732.682      994.660      731.597        1.914        0.223      183.844       24.656        0.018      340.995       15.399      860.753
07/12/2013  03:56:00     -198.443      -16.389      -24.477       31.766       23.667       25.230     1009.056      560.129      636.569        2.123        0.110      199.119       18.315        0.008      341.118       15.610      860.765
07/12/2013  03:57:00     -211.108      -10.014      -18.119       42.089       48.858       28.164     1771.493     2387.116      793.206        2.497        0.248      211.346       22.912        0.012      341.099       15.573      860.767
07/12/2013  03:58:00     -211.503       29.791      -23.152       38.276       29.597       23.224     1465.071      875.996      539.357        2.452        0.144      213.591       15.404        0.005      341.100       15.577      860.766
07/12/2013  03:59:00     -197.631       21.178      -25.316       40.516       31.480       21.248     1641.554      991.008      451.487        2.162        0.154      198.762       16.950        0.007      341.197       15.741      860.778
07/12/2013  04:00:00     -159.920       13.978      -16.347       52.435       51.883       24.555     2749.461     2691.859      602.933        1.604        0.302      160.530       17.683        0.012      341.107       15.590      860.779
07/12/2013  04:01:00     -128.543       -1.330      -13.092       60.092       33.557       22.111     3611.066     1126.063      488.888        1.096        0.261      128.550       21.839        0.029      341.075       15.535      860.773
07/12/2013  04:02:00     -129.296       30.935       -7.509       45.259       35.681       25.364     2048.337     1273.132      643.330        1.085        0.198      132.946       23.351        0.031      341.232       15.802      860.780
07/12/2013  04:03:00      -94.144      -27.035      -12.663       39.584       47.613       30.309     1566.902     2266.961      918.647        0.725        0.238       97.949       25.237        0.066      341.166       15.690      860.775
07/12/2013  04:04:00     -108.972      -46.685      -15.536       49.363       34.043       21.932     2436.658     1158.920      480.994        0.919        0.204      118.551       11.887        0.010      341.095       15.569      860.778
07/12/2013  04:05:00     -151.671      -51.039      -21.512       45.329       40.651       27.486     2054.722     1652.518      755.461        1.527        0.223      160.029       24.969        0.024      340.987       15.387      860.761
07/12/2013  04:06:00     -192.944      -18.775      -16.817       43.669       38.999       31.919     1906.970     1520.956     1018.812        2.115        0.222      193.855       26.864        0.019      340.930       15.289      860.764
07/12/2013  04:07:00     -156.157      -27.019      -14.119       52.492       48.443       30.326     2755.453     2346.732      919.645        1.567        0.301      158.477       31.566        0.040      340.917       15.267      860.749
07/12/2013  04:08:00     -166.601       -1.649      -25.106       33.705       41.288       26.510     1136.026     1704.702      702.775        1.597        0.177      166.609       18.609        0.012      341.071       15.528      860.732
07/12/2013  04:09:00     -162.999       32.603      -19.199       48.592       43.423       34.653     2361.218     1885.520     1200.862        1.672        0.272      166.228       27.811        0.028      341.198       15.744      860.726
07/12/2013  04:10:00     -173.037       21.671      -15.363       34.359       39.095       20.189     1180.508     1528.388      407.597        1.688        0.156      174.389       14.436        0.007      341.184       15.721      860.716
07/12/2013  04:11:00     -149.030       -8.973      -17.064       52.318       39.393       28.739     2737.149     1551.797      825.936        1.385        0.256      149.299       29.829        0.040      341.014       15.433      860.727
07/12/2013  04:12:00     -126.612      -30.716      -14.693       38.551       44.674       27.347     1486.156     1995.810      747.851        1.071        0.211      130.285       17.522        0.018      341.034       15.467      860.738
07/12/2013  04:13:00     -144.083      -34.411      -19.202       27.542       37.171       19.569      758.584     1381.710      382.960        1.242        0.126      148.135       13.091        0.008      341.025       15.452      860.745
07/12/2013  04:14:00      -95.941      -15.521       -6.664       34.442       34.898       23.607     1186.271     1217.879      557.287        0.623        0.148       97.188       18.442        0.036      340.977       15.370      860.749
07/12/2013  04:15:00      -93.516      -30.868       -7.678       33.765       31.737       20.383     1140.089     1007.207      415.481        0.616        0.128       98.479       14.855        0.023      341.095       15.570      860.750
07/12/2013  04:16:00      -74.113      -16.901       -7.468       31.821       33.248       17.552     1012.563     1105.453      308.071        0.413        0.121       76.016       14.158        0.035      340.954       15.331      860.754
07/12/2013  04:17:00      -74.320      -44.812        4.050       43.400       34.024       23.685     1883.531     1157.608      561.002        0.557        0.180       86.784       21.103        0.059      340.971       15.361      860.759
07/12/2013  04:18:00     -148.151      -12.899       -2.786       69.909       40.676       33.487     4887.221     1654.507     1121.366        1.489        0.383      148.712       38.358        0.067      340.830       15.121      860.766
07/12/2013  04:19:00     -135.003        3.235      -12.345       52.002       36.775       24.678     2704.166     1352.391      609.013        1.153        0.233      135.042       26.830        0.039      340.767       15.013      860.780
07/12/2013  04:20:00     -100.809      -14.409       -6.557       35.931       43.292       21.029     1291.048     1874.240      442.224        0.701        0.180      101.834       17.573        0.030      340.803       15.075      860.779
07/12/2013  04:21:00      -79.397        0.633      -10.452       37.282       28.506       25.633     1389.945      812.594      657.035        0.464        0.143       79.399       16.893        0.045      340.865       15.179      860.785
07/12/2013  04:22:00      -34.858      -10.441        1.330       38.966       33.968       18.985     1518.335     1153.806      360.418        0.218        0.152       36.388       16.760        0.212      340.838       15.136      860.788
07/12/2013  04:23:00      -18.234      -25.263       -1.782       29.753       21.377       19.741      885.213      456.957      389.714        0.135        0.087       31.156       15.459        0.246      340.977       15.371      860.791
07/12/2013  04:24:00       -7.450       -9.989        9.014       36.663       38.778       21.686     1344.171     1503.712      470.279        0.178        0.166       12.461       20.719        2.765      340.857       15.166      860.810
07/12/2013  04:25:00      -93.044      -63.806       -3.919       57.186       35.522       21.704     3270.222     1261.824      471.054        0.887        0.250      112.820       17.925        0.025      340.846       15.149      860.829
07/12/2013  04:26:00     -104.659      -42.484        1.825       34.684       33.375       22.752     1203.004     1113.866      517.636        0.780        0.142      112.953       14.412        0.016      340.891       15.224      860.821
07/12/2013  04:27:00      -98.108      -14.786      -10.304       30.063       31.011       19.489      903.782      961.653      379.816        0.610        0.112       99.216       11.387        0.013      340.944       15.315      860.806
07/12/2013  04:28:00     -107.298      -30.934       -9.011       39.210       29.126       24.085     1537.418      848.321      580.066        0.776        0.148      111.669       24.240        0.047      340.977       15.370      860.799
07/12/2013  04:29:00     -113.761      -28.421       -7.060       31.537       29.081       22.048      994.592      845.689      486.121        0.806        0.116      117.258       15.362        0.017      340.914       15.263      860.799
07/12/2013  04:30:00     -161.546      -54.295      -11.642       38.230       23.174       17.745     1461.561      537.024      314.882        1.575        0.116      170.426       14.167        0.007      340.937       15.301      860.803
07/12/2013  04:31:00     -162.741      -55.801       -7.888       49.774       34.108       25.680     2477.401     1163.370      659.485        1.698        0.215      172.042       30.318        0.031      340.874       15.195      860.815
07/12/2013  04:32:00     -147.739      -34.959      -15.117       53.709       32.210       27.468     2884.620     1037.462      754.497        1.398        0.234      151.819       19.448        0.016      340.789       15.051      860.812
07/12/2013  04:33:00     -126.439      -17.356       -8.226       49.156       40.009       31.006     2416.330     1600.743      961.384        1.067        0.249      127.625       28.907        0.051      340.768       15.017      860.805
07/12/2013  04:34:00     -149.133      -17.940      -10.780       51.008       28.124       23.777     2601.851      790.958      565.365        1.332        0.198      150.208       24.588        0.027      340.644       14.807      860.805
07/12/2013  04:35:00     -110.113       -0.233       -4.926       48.853       36.443       31.901     2386.624     1328.108     1017.671        0.844        0.237      110.114       29.601        0.072      340.648       14.813      860.797
07/12/2013  04:36:00      -95.183      -22.873       -6.177       40.309       34.962       18.296     1624.787     1222.307      334.758        0.640        0.159       97.892       14.275        0.021      340.739       14.968      860.791
07/12/2013  04:37:00     -122.762      -38.915      -14.313       36.601       36.681       17.923     1339.600     1345.518      321.240        0.990        0.150      128.783       14.204        0.012      340.755       14.996      860.790
07/12/2013  04:38:00     -111.832      -46.690       -6.079       49.454       27.412       19.697     2445.711      751.401      387.987        0.915        0.179      121.187       15.065        0.015      340.768       15.016      860.799
07/12/2013  04:39:00      -67.668      -38.325       -0.568       34.102       25.631       14.811     1162.960      656.973      219.355        0.404        0.102       77.768        8.718        0.013      340.773       15.023      860.796
07/12/2013  04:40:00      -94.400      -56.488       -5.978       33.011       25.159       16.651     1089.730      632.987      277.259        0.707        0.100      110.011       15.041        0.019      340.821       15.106      860.795
07/12/2013  04:41:00      -84.225      -44.577      -10.752       27.003       18.832       14.216      729.151      354.658      202.103        0.524        0.064       95.294       11.662        0.015      340.821       15.107      860.792
07/12/2013  04:42:00      -53.737      -42.784       -4.194       41.276       21.716       14.840     1703.743      471.575      220.216        0.357        0.120       68.689       18.633        0.074      340.930       15.290      860.797
07/12/2013  04:43:00      -19.648       -7.081       -0.554       18.645       12.538       11.759      347.631      157.200      138.262        0.054        0.032       20.885        9.627        0.212      340.830       15.122      860.808
07/12/2013  04:44:00      -31.171      -39.860       -6.162       17.267       11.864       10.842      298.164      140.755      117.545        0.158        0.028       50.601        8.392        0.028      340.906       15.248      860.811
07/12/2013  04:45:00      -38.494      -28.230       -3.914       21.136       16.542       10.074      446.739      273.633      101.496        0.156        0.041       47.736        8.844        0.034      340.911       15.258      860.825
07/12/2013  04:46:00      -39.887      -37.064        6.604       37.725       19.551       16.812     1423.169      382.249      282.627        0.255        0.104       54.449       15.558        0.082      340.933       15.296      860.851
07/12/2013  04:47:00      -80.890      -68.989        6.757       45.115       40.183       22.474     2035.375     1614.687      505.085        0.775        0.208      106.314       20.861        0.039      340.808       15.084      860.868
07/12/2013  04:48:00      -67.833      -78.360       -2.658       60.854       53.157       30.544     3703.252     2825.620      932.959        0.910        0.373      103.642       22.454        0.047      340.684       14.876      860.872
07/12/2013  04:49:00      -53.887      -40.210        5.910       55.337       26.226       25.532     3062.145      687.808      651.882        0.448        0.220       67.236       26.410        0.154      340.697       14.896      860.881
07/12/2013  04:50:00      -81.558      -53.662       -1.776       27.346       22.043       17.607      747.779      485.884      310.010        0.554        0.077       97.628       15.476        0.025      340.642       14.803      860.886
07/12/2013  04:51:00      -31.617      -39.175       12.509       32.596       25.666       24.462     1062.490      658.753      598.407        0.250        0.116       50.342       22.838        0.206      340.661       14.836      860.889
07/12/2013  04:52:00      -85.596      -84.416        0.843       52.556       41.757       26.039     2762.140     1743.677      678.032        0.982        0.259      120.220       31.638        0.069      340.724       14.941      860.900
07/12/2013  04:53:00      -76.668      -60.189        9.146       62.727       47.456       33.070     3934.690     2252.116     1093.636        0.843        0.364       97.471       31.781        0.106      340.691       14.885      860.907
07/12/2013  04:54:00     -114.854      -80.924        4.598       51.438       35.064       29.081     2645.836     1229.500      845.705        1.224        0.236      140.500       26.595        0.036      340.748       14.984      860.907
07/12/2013  04:55:00     -105.193      -72.487        8.938       43.084       40.703       21.121     1856.209     1656.740      446.084        1.018        0.198      127.750       19.028        0.022      340.748       14.983      860.913
07/12/2013  04:56:00     -116.688      -56.380      -14.720       28.113       28.414       17.364      790.355      807.339      301.518        0.945        0.095      129.594       11.521        0.008      340.774       15.025      860.911
07/12/2013  04:57:00      -82.787      -39.991        1.281       46.582       29.123       22.930     2169.888      848.161      525.796        0.600        0.177       91.940       22.446        0.060      340.767       15.015      860.901
07/12/2013  04:58:00      -73.034      -31.867        1.378       25.897       25.656       16.577      670.645      658.256      274.789        0.398        0.080       79.683       11.263        0.020      340.745       14.977      860.890
07/12/2013  04:59:00      -99.861       -8.044       -4.416       33.624       16.728       15.604     1130.551      279.837      243.474        0.585        0.083      100.185       15.254        0.023      340.677       14.863      860.885
07/12/2013  05:00:00     -125.031       -8.430       -8.994       21.346       18.431       15.199      455.638      339.696      230.995        0.841        0.051      125.315       11.866        0.009      340.664       14.840      860.881
07/12/2013  05:01:00     -124.247       -7.296       -9.311       28.778       26.348       18.314      828.186      694.238      335.396        0.872        0.093      124.461       13.492        0.012      340.723       14.941      860.889
07/12/2013  05:02:00     -123.464       -1.091      -10.654       25.919       16.331       13.059      671.810      266.709      170.526        0.823        0.055      123.469       10.732        0.008      340.676       14.861      860.895
07/12/2013  05:03:00     -111.294      -14.407       -6.750       21.326       18.622       15.269      454.807      346.793      233.137        0.684        0.052      112.222       11.979        0.011      340.710       14.918      860.890
07/12/2013  05:04:00      -70.326      -18.552       -6.596       37.908       22.376       15.128     1437.042      500.666      228.853        0.375        0.108       72.732       14.757        0.041      340.687       14.880      860.894
07/12/2013  05:05:00      -63.443      -32.002       -6.992       22.648       19.291       10.741      512.926      372.159      115.367        0.305        0.050       71.057        5.248        0.005      340.686       14.879      860.893
07/12/2013  05:06:00      -46.571      -29.861       -1.794       34.471       28.012       19.474     1188.233      784.686      379.252        0.271        0.118       55.322       17.317        0.098      340.651       14.818      860.897
07/12/2013  05:07:00      -28.118      -20.298        6.188       29.508       25.019       20.981      870.736      625.975      440.200        0.159        0.097       34.679       18.736        0.292      340.635       14.791      860.900
07/12/2013  05:08:00      -97.034      -33.837      -12.467       24.453       21.206       15.239      597.972      449.678      232.230        0.600        0.064      102.765       12.172        0.014      340.538       14.627      860.898
07/12/2013  05:09:00      -93.896      -16.568       -8.696       29.191       21.097       12.831      852.112      445.080      164.647        0.531        0.073       95.347       11.130        0.014      340.505       14.573      860.894
07/12/2013  05:10:00      -77.393       -3.317      -11.825       32.659       25.916       15.515     1066.589      671.630      240.724        0.406        0.099       77.464       11.930        0.024      340.503       14.569      860.892
07/12/2013  05:11:00      -50.292      -11.423       -2.049       34.444       18.840       18.732     1186.409      354.953      350.902        0.228        0.095       51.573       19.184        0.138      340.401       14.397      860.894
07/12/2013  05:12:00      -60.106       30.239      -11.753       39.926       29.449       21.243     1594.075      867.230      451.278        0.379        0.146       67.284        8.988        0.018      340.446       14.472      860.907
07/12/2013  05:13:00      -74.571       29.909      -20.171       17.325       26.121       14.128      300.151      682.332      199.600        0.402        0.059       80.345        9.109        0.013      340.490       14.547      860.895
07/12/2013  05:14:00      -55.332        9.192      -10.103       19.795       26.662       12.656      391.830      710.850      160.163        0.226        0.063       56.090        6.090        0.012      340.551       14.650      860.888
07/12/2013  05:15:00      -36.408      -17.927      -10.191       20.174       29.683       20.824      406.994      881.104      433.619        0.174        0.086       40.582        4.824        0.014      340.648       14.814      860.886
07/12/2013  05:16:00      -42.061       -1.401       -0.860       26.788       22.888       17.586      717.603      523.859      309.281        0.166        0.078       42.085       16.892        0.161      340.637       14.796      860.885
07/12/2013  05:17:00      -43.650        2.616        0.557       24.574       20.350       19.185      603.887      414.134      368.051        0.165        0.069       43.728       15.706        0.129      340.674       14.858      860.877
07/12/2013  05:18:00      -48.053       -9.667       -8.099       32.182       28.088       16.511     1035.713      788.922      272.618        0.228        0.105       49.016       15.481        0.100      340.654       14.823      860.868
07/12/2013  05:19:00        4.803      -22.436        3.487        9.418       17.492       13.655       88.698      305.973      186.451        0.056        0.029       22.944        6.611        0.083      340.601       14.734      860.887
07/12/2013  05:20:00      -54.245      -50.200        3.545       39.497       22.824       17.806     1559.986      520.929      317.059        0.394        0.120       73.909       23.653        0.102      340.403       14.399      860.888
07/12/2013  05:21:00      -98.645      -56.221       -7.156       28.726       26.129       15.063      825.203      682.746      226.907        0.734        0.087      113.541       11.779        0.011      340.366       14.337      860.897
07/12/2013  05:22:00      -73.535      -37.147       -5.583       25.963       22.248       13.103      674.099      494.963      171.685        0.408        0.067       82.385       10.933        0.018      340.448       14.476      860.904
07/12/2013  05:23:00      -73.180      -33.243      -10.439       14.230       14.443        8.931      202.492      208.591       79.759        0.353        0.025       80.377        4.758        0.004      340.499       14.562      860.908
07/12/2013  05:24:00      -78.954      -30.163      -10.081        9.896       11.942        8.485       97.937      142.618       71.994        0.378        0.016       84.520        5.723        0.005      340.445       14.473      860.922
07/12/2013  05:25:00      -98.602      -26.954      -16.185       13.685       15.430       13.170      187.279      238.080      173.446        0.565        0.030      102.220        9.232        0.008      340.411       14.413      860.935
07/12/2013  05:26:00     -105.585      -18.310      -10.322       19.395       15.431       13.705      376.152      238.112      187.822        0.620        0.040      107.161       11.612        0.012      340.369       14.341      860.936
07/12/2013  05:27:00      -94.931       -3.437       -9.749       31.208       18.342       22.031      973.967      336.429      485.380        0.546        0.090       94.993       23.666        0.062      340.296       14.219      860.932
07/12/2013  05:28:00      -84.452      -11.804      -15.649       23.737       21.752       10.917      563.448      473.139      119.171        0.434        0.058       85.273       13.142        0.024      340.296       14.218      860.936
07/12/2013  05:29:00      -76.017      -50.641       -8.170       25.867       27.119       16.735      669.107      735.436      280.051        0.505        0.084       91.340       11.034        0.015      340.299       14.225      860.954
07/12/2013  05:30:00     -114.428      -52.106      -20.742       21.956       24.887       13.943      482.080      619.352      194.394        0.877        0.065      125.733       11.430        0.008      340.298       14.221      860.974
07/12/2013  05:31:00     -139.152      -56.953      -13.761       24.625       16.968       13.083      606.376      287.919      171.153        1.193        0.053      150.356        8.801        0.003      340.236       14.118      860.991
07/12/2013  05:32:00     -127.520      -67.217       -6.097       28.498       21.591       15.994      812.143      466.150      255.800        1.118        0.077      144.151       12.510        0.008      340.253       14.145      861.017
07/12/2013  05:33:00      -72.244      -44.467       -1.956       32.562       26.062       18.708     1060.292      679.217      349.976        0.464        0.104       84.832       15.002        0.031      340.265       14.165      861.030
07/12/2013  05:34:00     -112.309      -33.953       -7.116       27.288       29.322       17.926      744.632      859.758      321.356        0.787        0.096      117.329       18.604        0.025      340.208       14.067      861.026
07/12/2013  05:35:00      -96.328      -36.610       -6.832       22.548       28.918       18.280      508.390      836.245      334.171        0.617        0.084      103.050       13.102        0.016      340.192       14.042      861.024
07/12/2013  05:36:00      -92.753      -52.006       -7.136       22.589       23.311       18.177      510.277      543.413      330.402        0.637        0.069      106.338        8.401        0.006      340.174       14.012      861.032
07/12/2013  05:37:00      -96.322      -67.079      -12.775       19.947       16.685        9.930      397.901      278.380       98.612        0.736        0.039      117.378        8.525        0.005      340.164       13.994      861.032
07/12/2013  05:38:00      -90.952      -61.084      -10.119       28.813       18.568       17.981      830.164      344.770      323.309        0.680        0.075      109.561        4.697        0.002      340.233       14.111      861.030
07/12/2013  05:39:00     -145.035      -52.740      -12.966       22.901       19.921       13.807      524.453      396.863      190.624        1.255        0.056      154.327       12.802        0.007      340.192       14.044      861.025
07/12/2013  05:40:00      -90.430      -55.770       -4.272       30.855       24.317       17.947      952.012      591.317      322.107        0.659        0.093      106.244        8.637        0.007      340.253       14.146      861.034
07/12/2013  05:41:00     -112.604      -36.341      -14.038       14.793       13.220       12.345      218.820      174.761      152.396        0.737        0.027      118.323        5.505        0.002      340.293       14.214      861.038
07/12/2013  05:42:00     -105.404      -40.383      -14.368       16.503       12.066        8.547      272.346      145.582       73.058        0.672        0.025      112.875        6.517        0.003      340.281       14.192      861.038
07/12/2013  05:43:00      -94.848      -53.539      -11.643       26.961       19.173       10.270      726.911      367.591      105.478        0.660        0.060      108.915        8.850        0.007      340.253       14.145      861.045
07/12/2013  05:44:00      -97.651      -53.883       -5.357       18.147       17.771       13.355      329.308      315.817      178.353        0.665        0.041      111.531       10.787        0.009      340.265       14.165      861.060
07/12/2013  05:45:00      -86.108      -49.956       -8.874       21.045       15.854       11.225      442.896      251.359      125.992        0.540        0.041       99.550        7.893        0.006      340.256       14.151      861.062
07/12/2013  05:46:00      -97.499      -52.645      -11.541       19.134       19.573       18.096      366.099      383.118      327.461        0.674        0.054      110.804       11.986        0.012      340.212       14.076      861.066
07/12/2013  05:47:00      -94.859      -67.849       -7.008       33.022       21.006       16.095     1090.475      441.247      259.055        0.772        0.090      116.627       15.780        0.018      340.213       14.077      861.077
07/12/2013  05:48:00      -87.862      -53.280       -4.675       32.410       21.469       19.768     1050.404      460.939      390.770        0.624        0.095      102.754       15.567        0.023      340.257       14.152      861.081
07/12/2013  05:49:00     -118.008      -58.995       -6.233       23.685       23.993       16.726      560.978      575.684      279.744        0.943        0.071      131.933        9.603        0.005      340.205       14.065      861.083
07/12/2013  05:50:00     -138.089      -52.182      -10.741       24.723       26.607       19.611      611.229      707.949      384.573        1.180        0.085      147.619       11.467        0.006      340.227       14.101      861.072
07/12/2013  05:51:00     -142.126      -22.447      -14.430       39.422       32.647       22.387     1554.072     1065.803      501.165        1.202        0.156      143.887       21.168        0.022      340.248       14.137      861.065
07/12/2013  05:52:00     -115.192      -38.769       -7.936       31.275       24.784       22.836      978.117      614.265      521.466        0.847        0.106      121.542       18.348        0.023      340.257       14.153      861.058
07/12/2013  05:53:00      -48.463      -38.157       -9.675       71.178       33.528       19.294     5066.354     1124.098      372.276        0.523        0.328       61.682       16.747        0.074      340.206       14.067      861.064
07/12/2013  05:54:00        2.641      -25.603        1.908       43.741       22.155       27.813     1913.309      490.861      773.539        0.192        0.159       25.739       10.403        0.163      340.224       14.096      861.073
07/12/2013  05:55:00       -5.470      -20.762       12.998       52.468       28.939       21.008     2752.934      837.470      441.350        0.233        0.202       21.471       20.654        0.925      340.183       14.028      861.084
07/12/2013  05:56:00      -67.881      -32.834      -11.411       32.452       26.927       19.455     1053.138      725.083      378.481        0.399        0.108       75.405       13.980        0.034      340.242       14.126      861.096
07/12/2013  05:57:00      -13.337      -17.903       -3.479       33.882       20.094       11.594     1147.963      403.760      134.427        0.110        0.084       22.324        6.654        0.089      340.242       14.126      861.103
07/12/2013  05:58:00       27.407      -34.021       -9.205       21.539       17.922       13.716      463.923      321.194      188.121        0.148        0.049       43.687        4.676        0.011      340.313       14.247      861.113
07/12/2013  05:59:00      -27.623      -17.102        9.592       31.102       22.627       18.783      967.359      511.963      352.811        0.149        0.092       32.489       20.647        0.404      340.296       14.216      861.117
07/12/2013  06:00:00      -43.405      -32.240       -3.812       23.571       13.862        8.289      555.572      192.145       68.702        0.188        0.041       54.069        1.941        0.001      340.294       14.214      861.126
07/12/2013  06:01:00      -44.681      -29.665       -2.348       11.393        9.031       10.104      129.808       81.555      102.082        0.160        0.016       53.632        1.464        0.001      340.399       14.392      861.137
07/12/2013  06:02:00      -29.125      -17.966       -0.751       22.665       14.700        8.328      513.697      216.099       69.355        0.099        0.040       34.221        5.183        0.023      340.321       14.264      861.157
07/12/2013  06:03:00       10.794      -24.967        4.883       19.206       20.502       14.505      368.885      420.341      210.402        0.088        0.050       27.200       13.632        0.251      340.396       14.388      861.183
07/12/2013  06:04:00      -26.528      -20.392        3.402       44.980       22.956       20.234     2023.192      526.955      409.421        0.204        0.148       33.460       20.498        0.375      340.454       14.485      861.190
07/12/2013  06:05:00      -50.452      -35.084       -4.160       22.029       12.406       13.181      485.286      153.917      173.748        0.230        0.041       61.451        6.111        0.010      340.411       14.413      861.187
07/12/2013  06:06:00      -47.555      -15.577       -1.646       14.789       12.400        9.661      218.726      153.766       93.334        0.149        0.023       50.041        3.961        0.006      340.413       14.416      861.179
07/12/2013  06:07:00      -52.434      -18.116       -9.365       10.337       10.469        8.299      106.858      109.590       68.873        0.173        0.014       55.475        3.855        0.005      340.383       14.365      861.187
07/12/2013  06:08:00      -49.151      -23.590       -5.738       22.327       11.322       10.706      498.502      128.180      114.625        0.187        0.037       54.519        4.609        0.007      340.427       14.440      861.198
07/12/2013  06:09:00      -33.646      -38.686       -9.389       16.013       16.697       11.109      256.428      278.791      123.405        0.169        0.033       51.270        7.587        0.022      340.431       14.447      861.207
07/12/2013  06:10:00      -48.694      -27.212       -2.291       15.043       10.689       11.799      226.279      114.264      139.223        0.180        0.024       55.781        4.189        0.006      340.467       14.507      861.210
07/12/2013  06:11:00      -25.407      -20.183       -1.591       17.422       11.396       11.145      303.510      129.872      124.221        0.081        0.028       32.448        7.301        0.051      340.532       14.619      861.211
07/12/2013  06:12:00        8.739      -37.277      -11.026       15.516       22.463       13.690      240.758      504.584      187.415        0.126        0.047       38.288       14.704        0.147      340.558       14.661      861.223
07/12/2013  06:13:00       20.201      -54.673      -10.702       21.840       30.917       20.751      477.001      955.883      430.588        0.269        0.093       58.285       11.812        0.041      340.347       14.306      861.235
07/12/2013  06:14:00       -8.445      -16.004        2.971       16.477       13.051       11.026      271.491      170.318      121.580        0.045        0.028       18.096        3.800        0.044      340.534       14.621      861.228
07/12/2013  06:15:00      -41.901      -25.840       -1.178       13.326       16.075       11.186      177.574      258.413      125.134        0.149        0.028       49.228        9.326        0.036      340.550       14.650      861.229
07/12/2013  06:16:00      -10.162      -18.703        8.665       29.438       10.215       11.251      866.584      104.342      126.577        0.081        0.055       21.286       15.084        0.502      340.632       14.787      861.230
07/12/2013  06:17:00      -38.270      -21.369       -2.932       29.176       13.371       12.097      851.223      178.781      146.335        0.155        0.059       43.832        5.751        0.017      340.499       14.560      861.233
07/12/2013  06:18:00      -66.986      -52.438       -3.280       19.721       18.755       10.414      388.902      351.762      108.444        0.405        0.042       85.070        6.938        0.007      340.508       14.577      861.236
07/12/2013  06:19:00      -55.006      -47.130       -2.411       36.509       24.490       14.060     1332.924      599.767      197.692        0.369        0.107       72.435       11.023        0.023      340.473       14.519      861.231
07/12/2013  06:20:00      -24.726      -45.634        1.210       23.625       27.021       15.959      558.158      730.139      254.698        0.212        0.077       51.903       15.490        0.089      340.640       14.799      861.244
07/12/2013  06:21:00      -46.581      -23.665        0.432       18.215       13.269       10.403      331.773      176.055      108.224        0.167        0.031       52.248        8.060        0.024      340.577       14.695      861.243
07/12/2013  06:22:00      -42.698      -25.746       -2.238       13.508       13.632       12.825      182.454      185.828      164.480        0.151        0.027       49.860        7.490        0.023      340.592       14.720      861.247
07/12/2013  06:23:00      -65.086      -22.400        1.149       50.790       24.750       19.320     2579.669      612.580      373.271        0.415        0.178       68.833       26.484        0.148      340.654       14.826      861.245
07/12/2013  06:24:00     -120.631      -28.309      -15.934       19.645       17.296       11.808      385.913      299.145      139.425        0.822        0.041      123.908        7.949        0.004      340.542       14.635      861.247
07/12/2013  06:25:00     -120.034      -41.094      -13.799       16.991       16.706       15.491      288.697      279.076      239.983        0.855        0.040      126.874       10.032        0.006      340.510       14.582      861.236
07/12/2013  06:26:00      -91.554      -38.504       -2.012       24.467       16.790       20.029      598.637      281.898      401.170        0.557        0.064       99.321       16.646        0.028      340.466       14.506      861.240
07/12/2013  06:27:00      -58.727      -42.798        4.464       46.864       31.103       28.655     2196.270      967.370      821.104        0.464        0.199       72.667       29.055        0.160      340.642       14.803      861.233
07/12/2013  06:28:00       33.381       10.017       -1.368       20.609       22.236       23.322      424.714      494.439      543.894        0.134        0.073       34.852       18.337        0.277      340.594       14.723      861.230
07/12/2013  06:29:00      -10.551       19.130        3.162       14.934       18.432       12.368      223.011      339.723      152.959        0.060        0.036       21.846        9.382        0.184      340.922       15.277      861.231
07/12/2013  06:30:00        2.981        2.181        8.040       12.902       12.065       15.046      166.469      145.572      226.387        0.031        0.027        3.694        4.613        1.560      340.783       15.042      861.236
07/12/2013  06:31:00       19.517      -28.191        4.538       24.930       20.648       18.633      621.506      426.332      347.190        0.130        0.070       34.287       14.519        0.179      340.360       14.327      861.264
07/12/2013  06:32:00       38.352      -27.708       13.340       20.259       16.110       17.556      410.442      259.543      308.222        0.170        0.049       47.314       11.724        0.061      340.486       14.539      861.278
07/12/2013  06:33:00      -39.183      -37.231        4.984       23.973       16.671       16.145      574.700      277.925      260.646        0.203        0.056       54.050       14.405        0.071      340.755       14.995      861.287
07/12/2013  06:34:00      -22.720      -14.943        1.362       12.922       10.056        8.639      166.983      101.125       74.632        0.054        0.017       27.194        2.449        0.008      340.787       15.050      861.290
07/12/2013  06:35:00      -19.457      -10.014       -1.580        9.720        9.584        7.899       94.480       91.859       62.387        0.036        0.012       21.883        5.643        0.066      340.822       15.107      861.292
07/12/2013  06:36:00       -4.835      -17.879        5.044       23.672       18.864       11.821      560.368      355.847      139.738        0.071        0.053       18.521        9.178        0.246      340.856       15.166      861.285
07/12/2013  06:37:00       -5.635      -17.175       -3.132       19.477       15.014       10.623      379.368      225.428      112.840        0.053        0.036       18.076        5.136        0.081      340.709       14.916      861.290
07/12/2013  06:38:00      -44.132      -36.807       -2.327       19.109        9.718       11.001      365.171       94.432      121.013        0.194        0.029       57.466        8.101        0.020      340.845       15.147      861.302
07/12/2013  06:39:00      -70.057      -42.097       -1.916        9.418        7.774        8.682       88.704       60.441       75.375        0.345        0.011       81.732        3.874        0.002      340.887       15.218      861.314
07/12/2013  06:40:00      -50.548      -42.856       -6.889       25.808       13.496        9.396      666.047      182.139       88.276        0.269        0.047       66.270       12.328        0.035      340.832       15.125      861.328
07/12/2013  06:41:00      -60.485      -40.285       -0.378       26.877       16.067       13.730      722.366      258.157      188.503        0.322        0.058       72.672       11.199        0.024      341.034       15.468      861.333
07/12/2013  06:42:00       -8.316       -6.130        4.923       19.747       20.588       15.825      389.945      423.849      250.433        0.060        0.053       10.331        8.594        0.692      341.234       15.805      861.338
07/12/2013  06:43:00      -46.297      -28.887        2.298       29.393       24.408       15.615      863.922      595.745      243.828        0.234        0.085       54.570       12.764        0.055      341.072       15.531      861.339
07/12/2013  06:44:00      -54.784      -43.689        4.293       28.423       13.832       11.334      807.845      191.335      128.449        0.303        0.056       70.072        9.470        0.018      341.090       15.561      861.346
07/12/2013  06:45:00      -51.574      -24.418        2.745       27.177        9.228       12.767      738.589       85.156      162.984        0.213        0.049       57.063       15.396        0.073      341.127       15.624      861.345
07/12/2013  06:46:00      -30.132       -8.506        5.880       17.814       16.212       15.594      317.351      262.819      243.159        0.092        0.041       31.309       14.028        0.201      341.194       15.738      861.354
07/12/2013  06:47:00      -26.058      -13.706        0.998       15.922       13.226       16.883      253.502      174.915      285.027        0.079        0.036       29.443       10.569        0.129      341.043       15.482      861.353
07/12/2013  06:48:00      -18.475      -32.275       -9.212       13.883       17.052       15.988      192.732      290.780      255.625        0.110        0.037       37.188        6.520        0.031      340.935       15.298      861.355
07/12/2013  06:49:00      -12.666      -28.811       -3.308       19.814       12.193       14.053      392.595      148.666      197.496        0.087        0.037       31.473        5.524        0.031      341.045       15.486      861.358
07/12/2013  06:50:00      -56.263      -19.160        2.767       14.579        9.993       10.819      212.535       99.860      117.055        0.198        0.021       59.436        9.561        0.026      341.105       15.589      861.364
07/12/2013  06:51:00      -56.510      -33.693       -4.277       26.987       18.731       14.730      728.290      350.861      216.975        0.282        0.065       65.792       10.007        0.023      341.145       15.655      861.373
07/12/2013  06:52:00       -8.736      -11.542       13.668       31.767       15.007       19.436     1009.122      225.220      377.743        0.100        0.081       14.476       16.149        1.244      341.277       15.878      861.382
07/12/2013  06:53:00      -14.182      -29.392       -7.743       26.017       17.383       15.009      676.894      302.157      225.260        0.116        0.060       32.635       10.356        0.101      341.102       15.582      861.391
07/12/2013  06:54:00       19.408      -32.222      -12.185       20.901       21.161       15.705      436.833      447.790      246.656        0.135        0.057       37.615       13.719        0.133      340.887       15.218      861.392
07/12/2013  06:55:00      -23.189      -39.138        6.361       24.158       31.888       15.216      583.596     1016.860      231.515        0.197        0.092       45.492       12.961        0.081      341.255       15.841      861.386
07/12/2013  06:56:00      -50.675      -58.824       -0.607       16.703       17.370       14.515      279.003      301.727      210.673        0.341        0.040       77.642        9.563        0.015      341.143       15.651      861.383
07/12/2013  06:57:00      -50.706      -26.104        4.879       17.997       16.744       12.214      323.886      280.363      149.182        0.201        0.038       57.031       10.470        0.034      341.251       15.835      861.378
07/12/2013  06:58:00      -26.659      -24.192        1.831       24.604       17.017       14.328      605.362      289.571      205.299        0.120        0.055       35.999       10.508        0.085      341.336       15.978      861.370
07/12/2013  06:59:00      -61.096      -45.065        1.780       32.399       27.590       16.566     1049.688      761.218      274.436        0.393        0.104       75.918       10.763        0.020      341.202       15.752      861.377
07/12/2013  07:00:00      -90.627      -20.384       -9.666       19.729       11.596       10.213      389.237      134.461      104.313        0.467        0.031       92.891        8.968        0.009      341.292       15.904      861.388
07/12/2013  07:01:00      -72.303      -28.930       -0.502       32.332       23.771       14.652     1045.374      565.066      214.690        0.394        0.091       77.876       14.362        0.034      341.355       16.008      861.403
07/12/2013  07:02:00      -29.220      -50.230       -1.496       32.745       19.421       13.235     1072.229      377.193      175.167        0.250        0.081       58.111       11.696        0.041      341.414       16.111      861.416
07/12/2013  07:03:00      -76.313      -35.110       -0.155       18.747       17.961       11.452      351.434      322.581      131.152        0.393        0.040       84.002        5.979        0.005      341.367       16.031      861.420
07/12/2013  07:04:00      -69.935      -11.108       -9.707       23.453       11.904       10.203      550.051      141.697      104.096        0.295        0.040       70.812        7.634        0.012      341.368       16.032      861.418
07/12/2013  07:05:00      -17.328       -1.820        4.390       14.361       11.797       13.648      206.225      139.174      186.255        0.043        0.027       17.423       12.643        0.527      341.615       16.452      861.399
07/12/2013  07:06:00        2.427      -14.077        8.651       15.983       14.225       16.864      255.458      202.355      284.381        0.051        0.037       14.285        9.211        0.416      341.603       16.431      861.392
07/12/2013  07:07:00      -69.432      -31.779       -6.302       24.033       14.246       10.280      577.564      202.952      105.671        0.338        0.044       76.359       10.851        0.020      341.468       16.201      861.397
07/12/2013  07:08:00      -62.602      -18.027       -2.113       23.052       20.698       14.385      531.382      428.403      206.932        0.271        0.058       65.146       14.416        0.049      341.540       16.323      861.403
07/12/2013  07:09:00      -52.905       -7.068        6.761       22.930       14.208       14.213      525.764      201.874      202.021        0.191        0.046       53.375       14.282        0.072      341.616       16.450      861.416
07/12/2013  07:10:00       -6.374      -19.512        8.971       18.621       18.513       18.345      346.736      342.729      336.543        0.076        0.051       20.527       12.266        0.357      342.060       17.206      861.433
07/12/2013  07:11:00      -26.656      -31.642        2.448       21.103       32.283       15.449      445.350     1042.164      238.669        0.172        0.086       41.374       13.126        0.101      341.767       16.709      861.449
07/12/2013  07:12:00       -7.408      -34.024       10.377       18.225       21.611       17.230      332.166      467.050      296.890        0.121        0.055       34.822       17.629        0.256      341.835       16.823      861.457
07/12/2013  07:13:00      -19.893      -66.280        2.491       13.483       16.514       12.126      181.804      272.715      147.036        0.270        0.030       69.201        7.259        0.011      341.548       16.336      861.463
07/12/2013  07:14:00       10.693      -20.339       11.935       35.810       25.438       25.955     1282.351      647.108      673.675        0.164        0.130       22.979       14.967        0.424      341.522       16.293      861.456
07/12/2013  07:15:00      -14.017      -46.477       17.114       20.966       46.161       18.561      439.554     2130.882      344.515        0.278        0.146       48.544       19.825        0.167      341.829       16.815      861.445
07/12/2013  07:16:00       -8.274      -13.164       26.632       14.385       19.046       17.580      206.924      362.735      309.041        0.091        0.044       15.548        8.550        0.302      342.292       17.600      861.431
07/12/2013  07:17:00      -32.994      -13.979       -0.104       25.037       32.224       20.226      626.863     1038.408      409.078        0.168        0.104       35.833       12.422        0.120      341.521       16.290      861.437
07/12/2013  07:18:00      -21.802      -37.864       -1.453       25.093       26.065       27.969      629.638      679.374      782.261        0.200        0.105       43.692       24.139        0.305      341.414       16.110      861.434
07/12/2013  07:19:00      -25.570      -17.591        5.258       14.506       12.841       15.282      210.422      164.900      233.529        0.080        0.030       31.037        4.621        0.022      341.526       16.298      861.438
07/12/2013  07:20:00      -10.458        1.572       16.277       14.790        9.920       12.524      218.747       98.406      156.841        0.043        0.024       10.576       10.143        0.920      342.336       17.675      861.443
07/12/2013  07:21:00      -17.189        2.213       17.638       15.038       19.310       13.164      226.132      372.893      173.288        0.069        0.039       17.331        7.106        0.168      342.306       17.624      861.448
07/12/2013  07:22:00      -36.597      -19.912       -0.249        8.166        8.273        6.539       66.681       68.435       42.759        0.096        0.009       41.663        3.958        0.009      341.914       16.958      861.448
07/12/2013  07:23:00      -30.724      -10.891        2.767       14.008        9.527        7.667      196.234       90.771       58.779        0.071        0.017       32.597        7.559        0.054      342.019       17.136      861.448
07/12/2013  07:24:00        2.089      -10.737       18.720       17.303       16.948       15.350      299.395      287.247      235.617        0.065        0.041       10.938       10.734        0.963      342.524       17.996      861.446
07/12/2013  07:25:00       -8.987      -12.765       14.796       11.500       24.567       14.710      132.261      603.531      216.374        0.071        0.048       15.611       15.006        0.924      342.499       17.951      861.455
07/12/2013  07:26:00       -9.142      -51.603        7.386       16.626       18.505       12.125      276.420      342.448      147.008        0.178        0.038       52.406        7.142        0.019      342.026       17.147      861.442
07/12/2013  07:27:00        5.270      -16.896       17.768       15.266       19.371       15.899      233.043      375.246      252.763        0.074        0.043       17.699       14.196        0.643      342.374       17.740      861.437
07/12/2013  07:28:00        4.735       -9.198       22.262       11.804       15.199       21.471      139.331      231.019      460.990        0.072        0.042       10.345       12.695        1.506      342.821       18.500      861.432
07/12/2013  07:29:00       15.549      -38.924      -13.598       33.661       33.168       18.814     1133.034     1100.119      353.953        0.226        0.129       41.915       21.332        0.259      341.768       16.710      861.427
07/12/2013  07:30:00       -0.213      -60.514       -4.714       20.272       18.827       14.698      410.937      354.438      216.045        0.233        0.049       60.514       11.085        0.034      341.988       17.083      861.427
07/12/2013  07:31:00       -1.298      -39.826       -6.544       24.800       22.895       14.076      615.032      524.198      198.140        0.148        0.067       39.847        8.915        0.050      342.143       17.348      861.422
07/12/2013  07:32:00      -15.718      -61.069        3.148       12.616       16.992       18.560      159.156      288.733      344.457        0.239        0.040       63.060        8.126        0.017      342.058       17.204      861.415
07/12/2013  07:33:00      -11.513      -50.099       -7.671       16.687       17.936       15.100      278.451      321.704      227.998        0.176        0.041       51.405        9.531        0.034      342.039       17.171      861.417
07/12/2013  07:34:00       43.413      -34.260       -3.573       30.276       16.671       21.856      916.616      277.924      477.694        0.237        0.084       55.303       17.149        0.096      341.973       17.059      861.418
07/12/2013  07:35:00        2.033      -27.988       -8.429       27.728       24.144       16.851      768.815      582.947      283.946        0.125        0.082       28.062        9.706        0.120      342.044       17.178      861.419
07/12/2013  07:36:00       -0.158       -8.341        5.531       19.226       13.050       21.767      369.646      170.292      473.805        0.056        0.051        8.342       14.513        3.026      342.670       18.242      861.418
07/12/2013  07:37:00      -14.396       -2.529       14.441       17.546       12.458       19.713      307.851      155.212      388.609        0.064        0.043       14.617       14.915        1.041      342.677       18.255      861.422
07/12/2013  07:38:00       12.853        7.596       29.334       24.465       26.767       19.624      598.561      716.468      385.092        0.139        0.085       14.930       16.449        1.214      342.367       17.727      861.423
07/12/2013  07:39:00       21.656        8.349       26.110       24.426       23.877       26.356      596.654      570.117      694.653        0.154        0.093       23.209       11.946        0.265      342.286       17.590      861.429
07/12/2013  07:40:00       40.581       11.776       33.845       31.970       26.932       22.688     1022.099      725.319      514.749        0.260        0.113       42.256       23.145        0.300      342.239       17.511      861.432
07/12/2013  07:41:00       17.977        9.012       40.242       34.679       30.975       22.847     1202.600      959.425      521.981        0.235        0.134       20.110       19.141        0.906      342.486       17.929      861.432
07/12/2013  07:42:00       57.246       -9.116       28.479       34.637       34.634       23.669     1199.736     1199.506      560.231        0.356        0.148       57.967       26.292        0.206      342.116       17.302      861.438
07/12/2013  07:43:00       26.814      -20.175        9.892       26.797       28.703       27.061      718.104      823.869      732.275        0.175        0.114       33.556        6.151        0.034      342.338       17.677      861.443
07/12/2013  07:44:00        6.898       -7.178       25.490       21.567       19.420       21.000      465.140      377.147      441.001        0.102        0.064        9.955       11.004        1.222      342.658       18.222      861.429
07/12/2013  07:45:00       10.398        3.875       20.620       19.016       17.041       17.806      361.600      290.387      317.038        0.076        0.048       11.097        6.200        0.312      342.861       18.566      861.419
07/12/2013  07:46:00        7.404       -6.013       24.865       19.257       15.196       11.718      370.821      230.927      137.301        0.072        0.037        9.538        9.483        0.989      343.128       19.023      861.414
07/12/2013  07:47:00       -6.898        6.158       10.371       16.505       15.554       16.964      272.430      241.942      287.774        0.050        0.040        9.247        4.066        0.193      342.906       18.644      861.407
07/12/2013  07:48:00      -16.914       -4.717       -2.732       17.612       15.226       14.175      310.176      231.816      200.939        0.053        0.037       17.560        8.081        0.212      342.651       18.209      861.404
07/12/2013  07:49:00       28.137        0.052       20.503       23.782       18.753       22.195      565.607      351.672      492.610        0.131        0.070       28.137       17.821        0.401      342.837       18.528      861.397
07/12/2013  07:50:00       38.343      -15.224       22.933       26.841       19.465       31.387      720.435      378.888      985.136        0.216        0.104       41.255       15.159        0.135      342.610       18.140      861.401
07/12/2013  07:51:00       12.504       25.649       -2.269       17.269       18.498       21.652      298.223      342.169      468.807        0.096        0.055       28.534       12.284        0.185      342.509       17.969      861.398
07/12/2013  07:52:00       12.891       30.872       12.274       28.002       23.983       23.038      784.139      575.161      530.730        0.158        0.095       33.456       12.307        0.135      342.566       18.065      861.407
07/12/2013  07:53:00       10.103       15.921       10.115       29.662       32.485       29.508      879.844     1055.301      870.714        0.163        0.140       18.856       23.983        1.618      342.748       18.375      861.412
07/12/2013  07:54:00       56.387       -7.805        2.103       26.648       23.294       27.215      710.142      542.588      740.642        0.262        0.100       56.925       15.565        0.075      342.370       17.733      861.418
07/12/2013  07:55:00        9.714        8.855       11.939       33.822       23.704       20.676     1143.944      561.900      427.501        0.122        0.107       13.144       11.380        0.750      342.647       18.206      861.431
07/12/2013  07:56:00       13.283        2.465       14.108       16.194       18.490       20.529      262.246      341.897      421.457        0.070        0.051       13.510       14.515        1.154      343.044       18.878      861.435
07/12/2013  07:57:00       11.732      -13.616       21.536       26.922       22.123       16.404      724.804      489.426      269.092        0.113        0.074       17.974       13.833        0.592      342.970       18.753      861.440
07/12/2013  07:58:00       16.647      -23.256        5.004       17.673       23.283       28.923      312.332      542.103      836.521        0.127        0.085       28.600       18.236        0.407      342.731       18.346      861.444
07/12/2013  07:59:00       23.365      -60.086       -7.708       28.074       31.842       28.754      788.152     1013.885      826.793        0.342        0.131       64.469       23.933        0.138      342.453       17.873      861.462
07/12/2013  08:00:00        3.545      -25.739       22.495       16.435       22.958       20.204      270.115      527.062      408.213        0.119        0.060       25.982       15.954        0.377      342.824       18.504      861.467
07/12/2013  08:01:00       15.350       13.504       25.989       18.940       22.551       16.561      358.713      508.565      274.278        0.112        0.057       20.445       12.486        0.373      343.261       19.249      861.477
07/12/2013  08:02:00       32.234      -33.788      -12.774       32.084       36.691       29.584     1029.398     1346.226      875.229        0.280        0.163       46.698       23.932        0.263      342.664       18.233      861.489
07/12/2013  08:03:00       37.088      -34.692       16.929       35.376       28.759       29.169     1251.473      827.076      850.834        0.290        0.146       50.785       23.299        0.210      342.930       18.686      861.491
07/12/2013  08:04:00       32.805       -6.724       24.470       40.412       41.583       34.355     1633.159     1729.123     1180.248        0.313        0.227       33.487       31.396        0.879      342.836       18.526      861.491
07/12/2013  08:05:00       21.107      -18.968        5.932       33.582       50.392       30.236     1127.737     2539.313      914.205        0.271        0.229       28.378       17.241        0.369      342.771       18.414      861.474
07/12/2013  08:06:00       31.049      -16.134       11.923       27.449       41.945       31.577      753.467     1759.411      997.112        0.244        0.175       34.991       21.459        0.376      342.879       18.598      861.464
07/12/2013  08:07:00       24.471        1.268       21.825       22.366       24.800       26.341      500.257      615.043      693.850        0.144        0.090       24.504       10.425        0.181      343.072       18.926      861.455
07/12/2013  08:08:00       36.979       21.778       27.025       30.762       33.038       21.540      946.297     1091.529      463.975        0.254        0.125       42.916       17.369        0.164      343.011       18.822      861.459
07/12/2013  08:09:00       42.792      -31.509       -0.079       19.073       22.986       20.009      363.785      528.345      400.363        0.206        0.065       53.142       12.159        0.052      342.691       18.278      861.474
07/12/2013  08:10:00       43.196       -6.086        5.265       23.583       15.792       20.962      556.149      249.385      439.424        0.159        0.062       43.622        6.503        0.022      342.815       18.488      861.488
07/12/2013  08:11:00       46.090       -4.329       28.154       24.567       18.302       21.420      603.532      334.970      458.805        0.217        0.070       46.293       12.390        0.072      343.173       19.099      861.502
07/12/2013  08:12:00      -30.098        3.125       12.008       21.072       30.070       17.443      444.032      904.183      304.251        0.136        0.083       30.260       13.194        0.190      343.570       19.775      861.495
07/12/2013  08:13:00       -0.314       18.782       25.775       15.337       22.229       17.007      235.235      494.113      289.228        0.102        0.051       18.785        9.362        0.248      343.896       20.330      861.495
07/12/2013  08:14:00        9.152       17.091       22.670       16.842       25.817       26.550      283.641      666.509      704.883        0.127        0.083       19.387       18.144        0.876      343.958       20.438      861.477
07/12/2013  08:15:00        8.099       29.071       18.061       16.022       26.316       16.186      256.713      692.512      261.973        0.122        0.061       30.178       16.126        0.286      343.983       20.479      861.467
07/12/2013  08:16:00      -10.384       17.083       21.442        9.474       26.128       17.514       89.747      682.655      306.730        0.097        0.054       19.991       12.795        0.410      344.278       20.983      861.456
07/12/2013  08:17:00        7.436        1.762       35.125       20.561       21.074       19.333      422.744      444.131      373.769        0.127        0.062        7.641       16.438        4.628      344.192       20.838      861.444
07/12/2013  08:18:00       23.837       10.096       22.517       27.875       25.694       22.590      777.040      660.165      510.312        0.156        0.097       25.886       15.425        0.355      343.260       19.247      861.437
07/12/2013  08:19:00        5.283        5.654        9.577       18.685       23.956       21.021      349.148      573.901      441.886        0.076        0.068        7.738        5.714        0.545      343.720       20.033      861.444
07/12/2013  08:20:00       13.994       -3.867       19.762       14.267       21.624       19.320      203.545      467.614      373.272        0.082        0.052       14.518        9.211        0.402      343.621       19.863      861.445
07/12/2013  08:21:00       18.274       20.502       23.715       22.409       23.160       19.575      502.150      536.386      383.199        0.137        0.071       27.464       11.407        0.173      343.854       20.261      861.440
07/12/2013  08:22:00       38.124       50.746       40.099       41.190       36.973       26.333     1696.636     1367.024      693.417        0.470        0.188       63.472       18.126        0.082      343.582       19.795      861.446
07/12/2013  08:23:00      115.452       68.149        9.270       44.731       31.327       34.734     2000.859      981.386     1206.449        1.112        0.209      134.065       17.479        0.017      343.369       19.432      861.441
07/12/2013  08:24:00      118.873       72.931        1.785       45.145       31.510       34.290     2038.104      992.871     1175.822        1.183        0.210      139.462       25.192        0.033      343.526       19.700      861.440
07/12/2013  08:25:00       96.633       78.128       35.362       56.658       42.165       38.085     3210.127     1777.855     1450.494        1.156        0.322      124.266       35.372        0.081      343.634       19.885      861.433
07/12/2013  08:26:00       38.138      -18.419       33.006       34.621       57.670       29.814     1198.623     3325.785      888.885        0.415        0.271       42.352       28.362        0.448      343.373       19.439      861.434
07/12/2013  08:27:00       36.215       28.515       41.602       40.139       31.359       28.562     1611.161      983.397      815.815        0.363        0.171       46.094       20.189        0.192      343.843       20.241      861.430
07/12/2013  08:28:00       84.995       67.459       14.173       51.906       35.622       41.461     2694.214     1268.934     1719.016        0.883        0.284      108.512       34.965        0.104      343.472       19.607      861.430
07/12/2013  08:29:00       71.497       55.813       12.356       36.885       27.619       29.366     1360.487      762.789      862.341        0.568        0.149       90.702       22.115        0.059      343.565       19.768      861.418
07/12/2013  08:30:00       79.199       79.159        8.389       66.239       47.316       38.289     4387.582     2238.838     1466.077        1.035        0.405      111.975       32.661        0.085      343.850       20.252      861.411
07/12/2013  08:31:00       93.939       55.505       24.968       56.083       46.197       39.642     3145.325     2134.188     1571.511        0.969        0.343      109.111       29.372        0.072      344.017       20.537      861.406
07/12/2013  08:32:00      106.974       80.348       54.849       51.879       36.490       33.524     2691.472     1331.529     1123.885        1.303        0.257      133.788       24.326        0.033      343.635       19.885      861.401
07/12/2013  08:33:00      110.617       68.957       11.566       36.328       32.948       32.506     1319.709     1085.559     1056.616        1.029        0.173      130.350       14.161        0.012      343.708       20.010      861.411
07/12/2013  08:34:00       84.065       59.410       27.348       38.455       28.781       34.246     1478.796      828.338     1172.790        0.741        0.174      102.939       16.252        0.025      343.848       20.248      861.407
07/12/2013  08:35:00       55.451       85.491       83.445       42.485       41.883       24.088     1804.982     1754.212      580.254        1.074        0.207      101.900       13.330        0.017      343.727       20.043      861.411
07/12/2013  08:36:00       21.544       20.112       57.419       30.603       38.195       29.534      936.532     1458.875      872.240        0.372        0.163       29.473       25.153        0.728      343.858       20.268      861.418
07/12/2013  08:37:00       18.224      -50.660        7.259       37.363       35.425       28.611     1396.008     1254.903      818.612        0.321        0.173       53.838       15.438        0.082      343.256       19.239      861.420
07/12/2013  08:38:00       41.861       34.810       33.535       41.396       47.577       29.794     1713.589     2263.527      887.675        0.448        0.243       54.443       16.047        0.087      343.936       20.400      861.424
07/12/2013  08:39:00      110.921       67.025        9.448       39.374       32.459       33.571     1550.303     1053.585     1126.982        1.031        0.187      129.598       18.913        0.021      343.845       20.245      861.420
07/12/2013  08:40:00       99.067       49.325        8.820       36.226       38.712       31.482     1312.357     1498.595      991.092        0.806        0.190      110.667       13.217        0.014      344.079       20.643      861.414
07/12/2013  08:41:00       97.307       75.306       32.800       38.785       30.663       35.905     1504.280      940.242     1289.200        0.997        0.187      123.043       15.848        0.017      344.026       20.554      861.401
07/12/2013  08:42:00      101.937       78.031       21.290       32.883       28.784       37.030     1081.259      828.509     1371.218        1.011        0.164      128.374       26.107        0.041      343.886       20.314      861.400
07/12/2013  08:43:00       85.477       68.574        9.420       33.849       22.311       29.133     1145.781      497.793      848.741        0.729        0.125      109.584       21.774        0.039      343.955       20.431      861.392
07/12/2013  08:44:00       17.783        2.447       20.334       34.512       16.833       22.777     1191.068      283.349      518.805        0.136        0.100       17.950       22.009        1.503      344.552       21.451      861.381
07/12/2013  08:45:00       37.751       57.337        7.332       43.451       33.316       32.630     1887.958     1109.963     1064.746        0.441        0.203       68.648       25.175        0.134      344.337       21.085      861.377
07/12/2013  08:46:00       37.806       35.543       15.688       31.117       37.453       22.657      968.278     1402.751      513.327        0.291        0.144       51.890       13.374        0.066      344.298       21.017      861.372
07/12/2013  08:47:00       35.542      -30.386        7.695       34.052       50.175       34.419     1159.558     2517.495     1184.677        0.355        0.243       46.760       26.397        0.319      343.848       20.250      861.363
07/12/2013  08:48:00       22.873       17.897       41.185       28.388       23.636       23.872      805.853      558.658      569.865        0.224        0.097       29.043        7.611        0.069      344.334       21.080      861.366
07/12/2013  08:49:00       31.922      -20.826       15.771       38.621       57.903       32.572     1491.574     3352.726     1060.952        0.380        0.295       38.115       18.892        0.246      344.242       20.923      861.364
07/12/2013  08:50:00       46.291      -52.724       11.150       46.107       77.131       45.349     2125.874     5949.221     2056.493        0.759        0.507       70.162       49.198        0.492      344.400       21.192      861.363
07/12/2013  08:51:00       46.780      -89.636        4.185       44.960       81.668       48.409     2021.406     6669.692     2343.476        1.064        0.552      101.109       47.300        0.219      344.319       21.054      861.366
07/12/2013  08:52:00       11.243      -59.059       18.888       40.156       61.799       28.985     1612.506     3819.063      840.126        0.512        0.314       60.120       38.068        0.401      344.668       21.652      861.364
07/12/2013  08:53:00        5.674      -29.076       23.273       28.382       42.740       30.215      805.533     1826.716      912.937        0.248        0.177       29.625       31.126        1.104      344.953       22.138      861.363
07/12/2013  08:54:00       -1.195       26.345       48.450       22.615       30.828       22.817      511.456      950.337      520.602        0.251        0.099       26.372       19.027        0.521      344.713       21.728      861.360
07/12/2013  08:55:00       31.891      -28.370       17.608       40.027       50.837       35.657     1602.153     2584.364     1271.454        0.379        0.273       42.683       37.581        0.775      344.251       20.938      861.356
07/12/2013  08:56:00       24.888       23.885       39.636       45.095       33.511       24.223     2033.550     1122.986      586.732        0.325        0.187       34.495       24.585        0.508      344.549       21.449      861.353
07/12/2013  08:57:00      -22.375      -25.988        9.030       27.166       36.463       19.692      737.970     1329.550      387.775        0.186        0.123       34.293        9.525        0.077      344.207       20.862      861.353
07/12/2013  08:58:00      -44.025       19.611        7.588       16.857       16.045       15.214      284.144      257.432      231.468        0.158        0.039       48.195        7.547        0.025      344.243       20.924      861.345
07/12/2013  08:59:00        5.530      -18.438        9.221       46.015       31.799       32.153     2117.363     1011.193     1033.840        0.231        0.208       19.249       21.105        1.202      344.473       21.319      861.342
07/12/2013  09:00:00       38.380      -18.022       14.247       37.243       28.581       30.279     1387.006      816.874      916.843        0.256        0.156       42.401       24.889        0.345      344.297       21.017      861.327
07/12/2013  09:01:00       80.076       70.185       20.333       32.770       27.137       21.780     1073.868      736.426      474.365        0.702        0.114      106.481       14.534        0.019      344.084       20.652      861.319
07/12/2013  09:02:00      105.977       92.964       32.544       36.715       27.674       36.847     1347.985      765.860     1357.717        1.220        0.174      140.973       12.627        0.008      344.316       21.050      861.295
07/12/2013  09:03:00       56.481       61.357       33.298       45.928       39.415       52.942     2109.361     1553.570     2802.904        0.726        0.323       83.396       37.105        0.198      344.523       21.402      861.286
07/12/2013  09:04:00       17.657       19.339       29.509       28.501       23.397       23.795      812.294      547.402      566.188        0.174        0.096       26.187       19.680        0.565      345.497       23.070      861.272
07/12/2013  09:05:00       87.481       59.213       34.596       55.913       37.363       38.352     3126.271     1396.014     1470.868        0.917        0.300      105.637       26.022        0.061      344.737       21.769      861.263
07/12/2013  09:06:00       88.295       76.234        1.472       55.927       43.538       31.305     3127.852     1895.542      980.021        0.981        0.300      116.652       22.851        0.038      344.546       21.442      861.257
07/12/2013  09:07:00       64.760       91.802       -9.856       35.255       40.255       28.965     1242.911     1620.505      838.954        0.821        0.185      112.345       19.510        0.030      344.555       21.457      861.257
07/12/2013  09:08:00       64.216       75.509       -1.985       27.677       29.908       24.971      765.992      894.459      623.560        0.606        0.114       99.123       17.185        0.030      344.548       21.445      861.265
07/12/2013  09:09:00        9.471       56.700       18.586       23.528       46.752       32.539      553.559     2185.742     1058.815        0.372        0.190       57.486       33.290        0.335      345.041       22.288      861.252
07/12/2013  09:10:00      -30.458       -2.175        4.717       22.372       20.950       22.878      500.498      438.918      523.399        0.121        0.073       30.536       18.355        0.361      344.958       22.148      861.249
07/12/2013  09:11:00       41.760       25.426       21.235       45.020       30.078       23.387     2026.775      904.676      546.951        0.316        0.174       48.892       21.580        0.195      345.300       22.733      861.248
07/12/2013  09:12:00       73.471       64.016        6.699       35.354       28.083       28.242     1249.870      788.654      797.636        0.619        0.142       97.448       19.389        0.040      344.963       22.153      861.244
07/12/2013  09:13:00       27.832       47.789        9.960       25.139       27.800       33.020      631.978      772.814     1090.301        0.283        0.125       55.303       21.486        0.151      345.069       22.339      861.248
07/12/2013  09:14:00       18.954       -2.285       13.735       32.933       36.017       26.584     1084.573     1297.227      706.719        0.182        0.154       19.091       17.922        0.881      344.678       21.667      861.254
07/12/2013  09:15:00       50.406      -53.497        3.662       28.456       28.164       24.926      809.733      793.208      621.329        0.382        0.111       73.503       13.048        0.032      344.220       20.884      861.254
07/12/2013  09:16:00       37.567      -17.385        1.002       28.130       18.577       26.128      791.310      345.108      682.674        0.177        0.091       41.395       11.192        0.073      344.484       21.334      861.258
07/12/2013  09:17:00       20.258        9.694       20.707       28.991       22.310       27.782      840.482      497.757      771.835        0.152        0.106       22.458       12.456        0.308      344.976       22.178      861.246
07/12/2013  09:18:00       30.445      -18.232       18.992       18.468       23.425       18.746      341.059      548.737      351.423        0.143        0.062       35.486       10.911        0.095      344.778       21.838      861.237
07/12/2013  09:19:00       16.529       -3.536       32.746       19.646       19.606       18.311      385.966      384.395      335.292        0.123        0.055       16.903       11.520        0.465      345.138       22.456      861.232
07/12/2013  09:20:00        5.479        0.698       16.660       15.324       28.657       30.265      234.824      821.204      915.947        0.114        0.099        5.524       23.441       18.010      345.153       22.482      861.216
07/12/2013  09:21:00       -7.874        9.671        8.453       25.421       28.167       32.666      646.219      793.387     1067.035        0.137        0.125       12.471       21.434        2.954      345.027       22.265      861.214
07/12/2013  09:22:00      -10.640       20.171       15.237       24.517       25.556       24.748      601.100      653.126      612.475        0.131        0.093       22.805       12.603        0.305      345.441       22.975      861.205
07/12/2013  09:23:00      -10.165        2.550        0.458       13.844       16.985       15.810      191.662      288.495      249.963        0.042        0.037       10.480        7.144        0.465      345.337       22.798      861.199
07/12/2013  09:24:00       -4.308       -9.960       24.911       22.835       29.245       22.760      521.442      855.277      518.027        0.132        0.095       10.852       14.599        1.810      345.474       23.032      861.190
07/12/2013  09:25:00       14.909       -1.162       13.150       19.160       31.977       18.248      367.095     1022.509      332.994        0.106        0.086       14.954       11.946        0.638      345.064       22.327      861.185
07/12/2013  09:26:00       29.190        4.455       20.086       21.017       29.223       31.638      441.726      854.001     1000.959        0.179        0.115       29.528       25.012        0.718      344.878       22.009      861.176
07/12/2013  09:27:00       45.412       46.897       31.587       24.942       27.451       25.931      622.108      753.555      672.422        0.365        0.102       65.281        6.328        0.009      344.956       22.144      861.170
07/12/2013  09:28:00       31.640      -14.204       23.683       38.169       45.800       28.500     1456.839     2097.667      812.228        0.306        0.218       34.682       27.302        0.620      345.138       22.456      861.158
07/12/2013  09:29:00       42.115      -43.250       23.737       32.725       67.701       38.227     1070.907     4583.379     1461.319        0.566        0.356       60.368       42.948        0.506      344.614       21.559      861.147
07/12/2013  09:30:00       20.515       30.264       28.604       37.482       26.813       23.400     1404.865      718.953      547.564        0.241        0.134       36.562       16.276        0.198      345.861       23.694      861.134
07/12/2013  09:31:00       43.351       26.181       41.880       40.766       22.956       33.425     1661.873      526.982     1117.255        0.381        0.165       50.643       22.430        0.196      345.838       23.655      861.126
07/12/2013  09:32:00        2.166       -9.703       36.208       37.663       46.814       35.645     1418.522     2191.521     1270.601        0.314        0.244        9.941       27.282        7.531      345.498       23.073      861.111
07/12/2013  09:33:00       46.852        0.041       46.425       43.063       57.312       30.792     1854.379     3284.612      948.167        0.522        0.304       46.852       11.208        0.057      345.283       22.702      861.100
07/12/2013  09:34:00       46.981       -5.837       23.546       50.391       37.206       44.976     2539.234     1384.314     2022.865        0.437        0.297       47.342       40.698        0.739      345.459       23.007      861.089
07/12/2013  09:35:00       52.556       78.839       50.054       41.735       38.182       33.502     1741.789     1457.828     1122.379        0.790        0.216       94.751       24.877        0.069      345.631       23.301      861.077
07/12/2013  09:36:00      116.924       60.883       24.197       54.091       39.867       34.174     2925.799     1589.366     1167.836        1.182        0.284      131.825       26.047        0.039      345.481       23.043      861.073
07/12/2013  09:37:00       91.836       48.755       -3.333       33.871       31.363       23.310     1147.239      983.610      543.355        0.675        0.134      103.976       16.587        0.025      345.343       22.805      861.066
07/12/2013  09:38:00       55.817       45.597       26.716       51.152       32.518       24.902     2616.570     1057.449      620.093        0.510        0.215       72.073       11.328        0.025      345.790       23.573      861.056
07/12/2013  09:39:00       48.376       37.790       16.350       36.239       45.451       34.309     1313.281     2065.809     1177.084        0.430        0.228       61.387       18.161        0.088      345.246       22.641      861.055
07/12/2013  09:40:00       33.858      -22.648       26.692       37.973       62.366       45.758     1441.931     3889.527     2093.776        0.490        0.371       40.735       49.949        1.504      344.775       21.834      861.043
07/12/2013  09:41:00       71.048       67.923       65.835       61.400       48.597       31.457     3769.953     2361.706      989.545        1.056        0.356       98.292       22.931        0.054      345.377       22.865      861.040
07/12/2013  09:42:00       59.416       54.652       35.151       44.444       30.325       30.807     1975.232      919.621      949.065        0.580        0.192       80.729       23.888        0.088      345.175       22.516      861.043
07/12/2013  09:43:00        8.328       -0.238        9.575       29.571       36.524       16.882      874.442     1333.999      284.985        0.133        0.125        8.331       10.750        1.665      345.428       22.951      861.035
07/12/2013  09:44:00        9.372       -4.298       19.865       25.712       19.812       24.190      661.119      392.535      585.142        0.107        0.082       10.310       18.504        3.221      345.796       23.584      861.032
07/12/2013  09:45:00        6.909       40.449       26.274       26.880       27.804       30.893      722.555      773.071      954.361        0.241        0.122       41.035        8.841        0.046      345.756       23.516      861.025
07/12/2013  09:46:00       73.843        9.430       24.869       58.653       50.699       36.279     3440.209     2570.393     1316.159        0.674        0.366       74.443       20.385        0.075      345.969       23.881      861.026
07/12/2013  09:47:00      124.361       64.406       13.668       35.195       45.641       41.611     1238.696     2083.143     1731.505        1.243        0.253      140.049       23.919        0.029      345.536       23.137      861.022
07/12/2013  09:48:00      125.581       79.370       10.180       38.652       30.942       33.201     1493.997      957.395     1102.338        1.286        0.178      148.561       19.654        0.018      345.501       23.077      861.022
07/12/2013  09:49:00       35.886       21.952       20.773       29.672       36.484       31.778      880.423     1331.107     1009.819        0.271        0.161       42.068       22.480        0.286      345.821       23.624      861.032
07/12/2013  09:50:00        7.236        4.314       31.938       19.035       20.446       20.780      362.349      418.020      431.808        0.115        0.061        8.424       13.509        2.571      346.116       24.133      861.028
07/12/2013  09:51:00       20.281        0.110       36.353       27.576       27.610       29.703      760.448      762.319      882.279        0.207        0.120       20.281       11.602        0.327      345.531       23.129      861.025
07/12/2013  09:52:00      144.569      103.988       67.805       83.859       52.701       45.729     7032.314     2777.435     2091.170        2.410        0.595      178.083       37.965        0.045      345.515       23.099      861.026
07/12/2013  09:53:00       65.198       46.550       36.202       77.574       43.366       36.380     6017.667     1880.589     1323.500        0.847        0.461       80.111       34.112        0.181      345.699       23.417      861.026
07/12/2013  09:54:00       41.318       46.106       63.417       48.449       43.353       36.373     2347.295     1879.459     1323.026        0.670        0.277       61.910       16.199        0.068      345.961       23.866      861.030
07/12/2013  09:55:00       29.474      -76.385      -10.473       47.211       39.525       34.192     2228.897     1562.195     1169.116        0.589        0.248       81.875       29.388        0.129      345.279       22.696      861.021
07/12/2013  09:56:00       25.107        9.469       28.386       32.236       31.073       22.012     1039.160      965.540      484.537        0.201        0.124       26.833       18.604        0.481      346.069       24.052      861.021
07/12/2013  09:57:00      108.189       67.202       14.723       71.572       50.606       34.482     5122.594     2560.961     1189.020        1.265        0.444      127.362       17.023        0.018      345.957       23.858      861.026
07/12/2013  09:58:00      140.238      105.465       20.179       58.176       53.330       40.705     3384.469     2844.079     1656.912        1.954        0.394      175.470       28.781        0.027      345.969       23.880      861.021
07/12/2013  09:59:00       41.308      112.028       -1.708       43.005       51.518       35.449     1849.472     2654.120     1256.664        1.001        0.288      119.401       31.985        0.072      346.129       24.155      861.024
07/12/2013  10:00:00       36.047       78.658       -5.786       35.010       41.216       28.670     1225.706     1698.740      821.946        0.563        0.187       86.525       25.988        0.090      346.216       24.305      861.031
07/12/2013  10:01:00       47.146       50.879        3.226       33.231       28.417       31.967     1104.278      807.499     1021.906        0.388        0.147       69.364       22.619        0.106      346.100       24.105      861.022
07/12/2013  10:02:00       41.702       48.952        9.508       44.825       35.134       30.649     2009.324     1234.408      939.341        0.420        0.209       64.307       20.661        0.103      346.290       24.431      861.025
07/12/2013  10:03:00       28.069       55.472       11.346       61.041       45.508       36.039     3726.036     2070.972     1298.809        0.554        0.355       62.170       26.182        0.177      346.521       24.828      861.037
07/12/2013  10:04:00       37.232       37.955       18.293       44.342       28.122       29.490     1966.226      790.838      869.658        0.339        0.181       53.168       16.229        0.093      346.520       24.827      861.033
07/12/2013  10:05:00       -3.728       76.021        2.530       24.321       38.637       28.338      591.487     1492.789      803.031        0.434        0.144       76.112       28.537        0.141      346.581       24.933      861.029
07/12/2013  10:06:00      -14.626       57.137        7.084       17.945       36.201       27.150      322.033     1310.516      737.098        0.295        0.118       58.979       22.284        0.143      346.821       25.346      861.023
07/12/2013  10:07:00        5.937       30.798       21.763       33.185       44.252       27.505     1101.212     1958.229      756.503        0.264        0.191       31.365       13.439        0.184      346.729       25.186      861.014
07/12/2013  10:08:00      -11.938       88.229        7.122       37.157       78.131       32.058     1380.615     6104.488     1027.699        0.824        0.426       89.033       37.186        0.174      346.571       24.915      861.010
07/12/2013  10:09:00       98.648      109.098        7.100       78.401       57.959       49.821     6146.644     3359.206     2482.094        1.683        0.599      147.084       32.633        0.049      346.446       24.698      861.013
07/12/2013  10:10:00      200.475      129.207       32.299       54.662       58.630       41.433     2987.968     3437.509     1716.653        3.303        0.407      238.505       17.690        0.006      346.113       24.123      861.005
07/12/2013  10:11:00      125.819       70.698       18.718       64.143       51.407       63.987     4114.304     2642.660     4094.317        1.601        0.543      144.321       41.687        0.083      346.330       24.499      861.004
07/12/2013  10:12:00       58.387       61.402       77.349       70.077       39.749       32.550     4910.740     1580.021     1059.493        1.035        0.378       84.730       16.704        0.039      346.519       24.824      861.004
07/12/2013  10:13:00      135.135       98.118       14.550       49.758       41.390       41.129     2475.831     1713.101     1691.608        1.699        0.294      166.999       17.126        0.011      346.034       23.991      860.999
07/12/2013  10:14:00       27.339       71.626        7.779       74.197       52.756       33.967     5505.209     2783.148     1153.739        0.769        0.472       76.666       34.684        0.205      346.582       24.934      861.005
07/12/2013  10:15:00      -83.337       45.331      -10.467       27.246       31.587       20.059      742.332      997.764      402.366        0.563        0.107       94.868       13.116        0.019      346.079       24.069      860.990
07/12/2013  10:16:00      -70.741       40.867       -5.667       38.606       32.209       20.030     1490.437     1037.416      401.187        0.482        0.146       81.697       13.358        0.027      346.282       24.418      860.983
07/12/2013  10:17:00       13.527       16.405       26.602       30.478       23.934       26.581      928.897      572.824      706.531        0.168        0.110       21.263       17.605        0.686      347.401       26.343      860.977
07/12/2013  10:18:00       34.269       45.214       50.227       53.191       46.971       51.549     2829.318     2206.279     2657.328        0.672        0.385       56.733       38.076        0.450      347.044       25.730      860.969
07/12/2013  10:19:00       19.760       49.487       70.372       59.275       50.480       40.693     3513.509     2548.182     1655.909        0.775        0.386       53.286       36.856        0.478      346.956       25.576      860.963
07/12/2013  10:20:00       -8.133      -20.792       50.836       36.216       49.669       35.820     1311.613     2467.055     1283.037        0.407        0.253       22.326       16.274        0.531      346.646       25.043      860.962
07/12/2013  10:21:00       14.509      -73.693       25.019       32.909       44.740       36.752     1082.992     2001.656     1350.695        0.535        0.222       75.107       21.955        0.085      346.430       24.672      860.956
07/12/2013  10:22:00       18.963        7.330       47.912       30.733       28.922       26.845      944.520      836.463      720.646        0.260        0.125       20.330       22.122        1.184      347.278       26.133      860.948
07/12/2013  10:23:00       -3.993      -27.776       17.169       22.146       35.402       26.507      490.439     1253.292      702.604        0.176        0.122       28.062       25.130        0.802      347.353       26.264      860.940
07/12/2013  10:24:00       22.055       27.858       29.005       38.523       24.203       19.069     1484.050      585.762      363.613        0.227        0.122       35.531       10.726        0.091      347.157       25.924      860.936
07/12/2013  10:25:00       90.291       51.022        9.806       65.389       46.750       44.497     4275.684     2185.531     1979.986        0.964        0.422      103.710       19.000        0.034      346.697       25.131      860.940
07/12/2013  10:26:00       37.996       54.181       11.640       55.681       31.465       34.179     3100.396      990.062     1168.179        0.489        0.263       66.176       10.053        0.023      347.117       25.854      860.942
07/12/2013  10:27:00        8.447        3.274        4.861       31.879       31.120       28.940     1016.254      968.424      837.549        0.146        0.141        9.060       19.040        4.417      346.731       25.190      860.941
07/12/2013  10:28:00       15.266        7.450       29.779       28.758       41.687       24.703      826.995     1737.765      610.258        0.217        0.159       16.987       21.926        1.666      347.188       25.977      860.931
07/12/2013  10:29:00       31.181       33.201       14.775       50.518       48.279       36.262     2552.029     2330.824     1314.898        0.424        0.310       45.547       24.906        0.299      347.268       26.114      860.925
07/12/2013  10:30:00       10.278       84.660        7.433       41.708       57.800       36.692     1739.551     3340.787     1346.337        0.688        0.321       85.281       35.930        0.178      347.130       25.876      860.926
07/12/2013  10:31:00       78.484       74.543       12.985       49.314       49.456       41.124     2431.857     2445.937     1691.205        0.923        0.328      108.242       32.398        0.090      346.769       25.255      860.916
07/12/2013  10:32:00       36.056      121.951       -6.498       58.266       60.488       44.886     3394.924     3658.822     2014.777        1.264        0.453      127.170       40.028        0.099      346.799       25.306      860.912
07/12/2013  10:33:00       22.560       72.503        5.904       33.596       57.985       36.356     1128.698     3362.290     1321.779        0.581        0.291       75.932       43.097        0.322      346.949       25.566      860.909
07/12/2013  10:34:00       36.254       21.720       16.497       59.130       46.928       34.879     3496.353     2202.230     1216.515        0.449        0.346       42.263       22.223        0.276      347.250       26.083      860.898
07/12/2013  10:35:00       97.948       85.835       73.626       74.434       90.855       56.485     5540.415     8254.684     3190.576        1.968        0.849      130.236       50.455        0.150      346.579       24.926      860.893
07/12/2013  10:36:00       96.928       83.972       29.700       45.152       41.539       43.247     2038.688     1725.522     1870.267        1.148        0.282      128.243       21.112        0.027      346.464       24.730      860.894
07/12/2013  10:37:00       12.592       21.626       24.420       23.452       19.556       17.303      549.982      382.421      299.380        0.123        0.062       25.025       14.223        0.323      346.884       25.454      860.884
07/12/2013  10:38:00       51.517       53.221        9.779       48.525       31.360       20.549     2354.653      983.455      422.250        0.467        0.188       74.071       12.518        0.029      346.668       25.081      860.875
07/12/2013  10:39:00       15.918       75.386        7.514       24.209       47.567       36.605      586.094     2262.630     1339.918        0.509        0.209       77.048       34.287        0.198      347.166       25.939      860.860
07/12/2013  10:40:00      -20.745       79.991       10.956       37.482       65.875       31.653     1404.893     4339.553     1001.923        0.685        0.337       82.637       35.896        0.189      347.262       26.105      860.846
07/12/2013  10:41:00      -50.480       40.811       11.797       35.706       32.119       33.946     1274.939     1031.661     1152.319        0.391        0.173       64.913       29.840        0.211      347.187       25.975      860.834
07/12/2013  10:42:00      -67.078       50.023       -0.609       47.084       66.521       37.430     2216.864     4425.028     1401.006        0.752        0.402       83.676       38.289        0.209      346.851       25.396      860.827
07/12/2013  10:43:00     -107.715       57.760      -14.838       30.931       35.392       25.398      956.735     1252.615      645.043        0.901        0.143      122.224        6.982        0.003      346.600       24.963      860.827
07/12/2013  10:44:00      -52.992       53.935        0.781       40.388       41.399       30.991     1631.206     1713.857      960.416        0.501        0.215       75.612       30.800        0.166      347.153       25.919      860.820
07/12/2013  10:45:00      -40.694       16.761        7.825       24.007       30.711       26.464      576.351      943.177      700.358        0.211        0.111       44.011       16.625        0.143      347.287       26.148      860.824
07/12/2013  10:46:00      -17.947       24.591       13.438       24.486       28.111       32.328      599.551      790.203     1045.120        0.177        0.122       30.444        7.580        0.062      347.661       26.792      860.828
07/12/2013  10:47:00      107.383       51.161       50.582       81.970       44.176       55.905     6719.143     1951.489     3125.410        1.425        0.590      118.948       51.138        0.185      346.981       25.622      860.818
07/12/2013  10:48:00      116.927      124.990       93.247       85.159       67.334       75.433     7252.075     4533.859     5690.174        2.773        0.874      171.156       66.960        0.153      346.548       24.872      860.815
07/12/2013  10:49:00      120.853      103.424      102.840      104.052       70.327       61.573    10826.867     4945.931     3791.184        2.772        0.978      159.066       59.534        0.140      346.553       24.882      860.804
07/12/2013  10:50:00       79.319        9.778       40.019       59.677       50.938       54.444     3561.334     2594.641     2964.183        0.855        0.456       79.919       32.670        0.167      346.971       25.604      860.815
07/12/2013  10:51:00       72.887       86.263       65.197       81.710       67.290       67.301     6676.587     4527.891     4529.462        1.637        0.787      112.933       39.739        0.124      346.954       25.572      860.820
07/12/2013  10:52:00      132.167      100.919       73.896       84.876       80.853       61.446     7204.007     6537.151     3775.660        2.531        0.876      166.291       57.234        0.118      346.918       25.509      860.810
07/12/2013  10:53:00        9.919        9.576       61.898       50.098       75.368       49.037     2509.835     5680.346     2404.647        0.731        0.530       13.787       44.800       10.558      347.475       26.472      860.795
07/12/2013  10:54:00       93.512     -123.982      -18.539       70.911       96.442       44.736     5028.327     9301.045     2001.347        2.039        0.817      155.294       49.351        0.101      347.034       25.709      860.807
07/12/2013  10:55:00       27.074      -65.369       36.138       75.959      111.709       58.501     5769.716    12478.888     3422.362        1.399        1.084       70.754       28.074        0.157      346.948       25.562      860.798
07/12/2013  10:56:00       54.178       19.359       32.916       53.309       60.063       55.288     2841.842     3607.582     3056.760        0.695        0.475       57.533       40.536        0.496      347.444       26.417      860.795
07/12/2013  10:57:00       98.206       86.903       87.181       77.441       68.258       60.582     5997.080     4659.101     3670.138        1.956        0.716      131.136       55.509        0.179      346.844       25.384      860.799
07/12/2013  10:58:00       30.492       36.447       65.593       51.751       61.963       36.370     2678.165     3839.455     1322.806        0.720        0.392       47.520       35.720        0.565      347.369       26.288      860.803
07/12/2013  10:59:00       52.084       30.409       20.160       48.383       38.765       39.299     2340.887     1502.703     1544.378        0.471        0.269       60.311       22.363        0.137      347.480       26.481      860.793
07/12/2013  11:00:00       58.762       56.659       60.530       58.949       43.322       40.378     3474.961     1876.777     1630.344        0.865        0.349       81.629       26.698        0.107      347.445       26.420      860.808
07/12/2013  11:01:00       68.587       25.032        5.669       29.405       36.283       24.862      864.640     1316.489      618.112        0.408        0.140       73.012       17.065        0.055      346.737       25.199      860.808
07/12/2013  11:02:00       14.830       23.633       56.439       32.254       52.717       28.960     1040.292     2779.050      838.669        0.431        0.233       27.901       33.727        1.461      347.627       26.733      860.798
07/12/2013  11:03:00       36.012       40.360       49.605       48.501       37.525       31.054     2352.352     1408.144      964.373        0.505        0.236       54.090       18.348        0.115      347.708       26.875      860.790
07/12/2013  11:04:00       58.012       26.898       45.996       73.583       82.682       46.644     5414.480     6836.389     2175.620        1.031        0.721       63.944       44.172        0.477      347.485       26.490      860.775
07/12/2013  11:05:00       56.368       56.681       67.998       67.468       46.532       52.884     4551.866     2165.218     2796.757        1.026        0.476       79.938       45.984        0.331      347.451       26.430      860.768
07/12/2013  11:06:00       21.935       66.539       94.589       54.222       73.139       44.559     2940.044     5349.280     1985.530        1.206        0.514       70.062       45.574        0.423      347.478       26.477      860.749
07/12/2013  11:07:00       28.700       48.938       99.387       46.437      117.500       75.025     2156.403    13806.149     5628.807        1.734        1.080       56.733       88.634        2.441      347.294       26.158      860.739
07/12/2013  11:08:00       15.354       35.988       64.812       32.786       64.539       38.437     1074.939     4165.346     1477.392        0.622        0.336       39.126       44.168        1.274      347.287       26.148      860.723
07/12/2013  11:09:00       28.132       56.888       42.269       31.407       45.937       42.759      986.399     2110.165     1828.321        0.537        0.246       63.464       19.492        0.094      347.421       26.378      860.711
07/12/2013  11:10:00      107.736       47.508       36.919       94.699       47.827       38.882     8967.953     2287.391     1511.796        1.399        0.638      117.746       26.269        0.050      347.805       27.041      860.706
07/12/2013  11:11:00      161.324      132.451        1.599       79.239       61.044       53.518     6278.826     3726.420     2864.221        2.822        0.643      208.731       42.477        0.041      347.070       25.770      860.709
07/12/2013  11:12:00      166.430      104.589       14.918       41.529       42.761       43.772     1724.695     1828.485     1916.027        2.216        0.273      196.565       24.807        0.016      346.914       25.504      860.696
07/12/2013  11:13:00       78.065       75.342       14.981       61.827       52.209       41.977     3822.552     2725.826     1762.029        1.015        0.416      108.492       37.721        0.121      347.558       26.614      860.698
07/12/2013  11:14:00      -14.041       94.137       -0.314       33.666       50.965       32.177     1133.426     2597.462     1035.391        0.691        0.238       95.179       32.551        0.117      347.787       27.012      860.678
07/12/2013  11:15:00        5.503       68.347       10.955       38.189       55.899       31.623     1458.421     3124.686     1000.039        0.520        0.279       68.568       32.031        0.218      347.731       26.915      860.672
07/12/2013  11:16:00       99.624       90.641       12.659       77.530       51.982       41.100     6010.938     2702.175     1689.195        1.435        0.520      134.688       29.639        0.048      347.573       26.640      860.670
07/12/2013  11:17:00       32.778       81.907       11.245       56.556       51.248       48.182     3198.589     2626.396     2321.515        0.803        0.407       88.222       34.510        0.153      347.677       26.820      860.657
07/12/2013  11:18:00       22.960       79.876       70.643       64.681       54.501       72.114     4183.679     2970.387     5200.406        1.212        0.618       83.110       44.615        0.288      347.664       26.797      860.653
07/12/2013  11:19:00       41.393       64.765       60.966       63.346       61.776       65.158     4012.741     3816.249     4245.615        1.085        0.604       76.862       55.056        0.513      347.815       27.058      860.642
07/12/2013  11:20:00       26.182       99.990       98.544       65.396       51.202       56.332     4276.649     2621.604     3173.301        1.523        0.504      103.361       52.102        0.254      347.651       26.776      860.637
07/12/2013  11:21:00        2.914        9.198       46.294       27.193       46.690       30.651      739.460     2179.925      939.513        0.305        0.193        9.649       12.242        1.610      348.117       27.580      860.645
07/12/2013  11:22:00       19.612      -44.307       18.909       31.644       66.937       23.186     1001.323     4480.556      537.579        0.436        0.301       48.454       32.088        0.439      347.849       27.118      860.628
07/12/2013  11:23:00       21.085      -19.592       24.098       34.934       71.923       41.045     1220.379     5172.928     1684.716        0.474        0.404       28.783       37.447        1.693      347.999       27.376      860.618
07/12/2013  11:24:00       18.109        6.644       59.205       49.848       72.113       49.391     2484.818     5200.255     2439.461        0.700        0.506       19.290       37.905        3.861      347.935       27.265      860.613
07/12/2013  11:25:00       18.873       41.942       38.229       40.606       52.491       41.406     1648.832     2755.273     1714.441        0.485        0.306       45.993       30.908        0.452      347.925       27.247      860.597
07/12/2013  11:26:00      111.322       91.119      114.267       94.521      112.673       64.985     8934.198    12695.199     4223.056        2.980        1.293      143.858       70.534        0.240      347.640       26.754      860.587
07/12/2013  11:27:00       30.796        4.091       74.597       60.225       77.948       55.143     3627.089     6075.944     3040.732        0.963        0.637       31.066       54.988        3.133      347.775       26.989      860.573
07/12/2013  11:28:00       84.308       33.838       86.798      101.443       79.691       59.190    10290.756     6350.653     3503.415        1.796        1.007       90.845       65.939        0.527      347.580       26.650      860.565
07/12/2013  11:29:00      140.518      -12.883       55.852      103.508       83.504       74.501    10713.937     6972.920     5550.343        2.313        1.162      141.108       70.152        0.247      347.643       26.759      860.559
07/12/2013  11:30:00       70.333       35.384       80.215       73.998       65.069       45.980     5475.698     4234.022     2114.195        1.223        0.591       78.732       52.438        0.444      347.582       26.657      860.552
07/12/2013  11:31:00       49.755        7.939       73.954       77.259      120.418       72.189     5968.957    14500.499     5211.250        1.684        1.284       50.384       81.223        2.599      347.923       27.242      860.527
07/12/2013  11:32:00       47.803       -7.152       55.283       68.019      121.631       86.220     4626.559    14794.065     7433.886        1.612        1.343       48.335       86.112        3.174      348.001       27.379      860.528
07/12/2013  11:33:00       15.822        7.244       73.891       58.715       69.387       59.065     3447.419     4814.613     3488.622        0.875        0.588       17.401       46.970        7.286      348.055       27.473      860.515
07/12/2013  11:34:00       81.740      -80.982       -1.034       71.473      119.386       75.679     5108.382    14252.898     5727.317        1.916        1.254      115.063       77.970        0.459      347.989       27.358      860.496
07/12/2013  11:35:00       23.174       51.352      109.794       45.679       48.899       34.840     2086.549     2391.114     1213.816        1.046        0.285       56.339       27.865        0.245      347.965       27.316      860.503
07/12/2013  11:36:00       79.519       62.703       42.495       69.362       49.227       35.242     4811.154     2423.290     1242.019        1.027        0.424      101.267       22.427        0.049      347.593       26.674      860.489
07/12/2013  11:37:00      143.230      118.320       44.287       70.857       31.016       50.419     5020.693      961.977     2542.049        2.250        0.426      185.781       35.794        0.037      347.551       26.602      860.461
07/12/2013  11:38:00       11.703       81.107        1.395       53.613       44.474       28.599     2874.399     1977.901      817.888        0.619        0.284       81.946       22.099        0.073      347.701       26.862      860.456
07/12/2013  11:39:00       16.047       14.001       32.521       33.550       33.278       30.990     1125.587     1107.458      960.407        0.235        0.160       21.296       11.019        0.268      348.102       27.553      860.449
07/12/2013  11:40:00       73.134       45.829       87.695       87.922       92.614       75.263     7730.224     8577.437     5664.577        1.855        1.099       86.307       72.390        0.704      347.784       27.004      860.454
07/12/2013  11:41:00       67.435       -5.872       66.664       56.176       78.900       56.023     3155.771     6225.174     3138.525        1.077        0.626       67.690       55.914        0.682      347.643       26.760      860.458
07/12/2013  11:42:00       78.276       30.104       58.771       57.585       78.376       49.006     3316.045     6142.864     2401.573        1.117        0.593       83.866       38.342        0.209      347.812       27.053      860.446
07/12/2013  11:43:00       68.282       43.575       49.719       56.672       63.454       63.484     3211.673     4026.463     4030.237        1.015        0.563       81.001       50.705        0.392      347.650       26.773      860.449
07/12/2013  11:44:00       22.171     -102.245      -24.128       38.087       44.686       27.583     1450.651     1996.799      760.810        0.787        0.210      104.622       20.385        0.038      347.887       27.181      860.465
07/12/2013  11:45:00      -14.843     -130.473      -20.270       67.937       38.427       25.520     4615.392     1476.611      651.274        1.220        0.337      131.315       19.247        0.021      347.561       26.619      860.451
07/12/2013  11:46:00     -162.441     -108.171      -12.365       72.360       45.813       31.924     5235.972     2098.798     1019.155        2.330        0.418      195.162       37.583        0.037      347.385       26.314      860.450
07/12/2013  11:47:00     -102.608      -56.098       12.247       65.665       60.959       30.677     4311.844     3716.016      941.105        1.140        0.448      116.942       35.495        0.092      347.697       26.852      860.449
07/12/2013  11:48:00      -66.116        0.313       -4.755       42.609       20.600       15.770     1815.501      424.369      248.683        0.344        0.124       66.117       19.825        0.090      347.226       26.042      860.434
07/12/2013  11:49:00        8.444        0.434       25.392       22.498       23.660       20.372      506.155      559.774      415.033        0.110        0.074        8.455        7.899        0.873      348.516       28.269      860.417
07/12/2013  11:50:00       24.203       24.576        6.349       31.926       51.359       39.128     1019.248     2637.716     1530.962        0.321        0.259       34.493       27.271        0.625      347.990       27.360      860.407
07/12/2013  11:51:00       39.349       36.729       13.209       36.849       30.966       27.817     1357.871      958.892      773.805        0.308        0.155       53.828       28.208        0.275      347.723       26.899      860.397
07/12/2013  11:52:00       18.746      -39.996       23.300       34.203       46.878       27.582     1169.854     2197.547      760.777        0.331        0.206       44.171       26.041        0.348      348.205       27.732      860.395
07/12/2013  11:53:00       15.192      -42.385       14.435       38.654       69.139       37.732     1494.149     4780.174     1423.710        0.497        0.385       45.025       39.541        0.771      347.536       26.576      860.385
07/12/2013  11:54:00      126.113       35.307       42.576      126.148       76.204       58.493    15913.440     5807.078     3421.443        2.205        1.257      130.962       48.655        0.138      347.677       26.817      860.371
07/12/2013  11:55:00      101.528       37.948       26.281      101.562       59.904       47.121    10314.925     3588.436     2220.431        1.428        0.806      108.388       30.523        0.079      348.041       27.447      860.371
07/12/2013  11:56:00       49.441       42.753       28.282       66.742       49.829       40.361     4454.447     2482.973     1628.975        0.682        0.428       65.362       21.004        0.103      348.396       28.062      860.362
07/12/2013  11:57:00      118.034       64.723       32.897       82.022       48.774       44.945     6727.555     2378.900     2020.089        1.516        0.556      134.615       37.707        0.078      347.952       27.294      860.358
07/12/2013  11:58:00      223.631      120.277       27.850      118.160       87.693       68.221    13961.843     7690.008     4654.088        4.577        1.315      253.924       46.024        0.033      347.746       26.936      860.343
07/12/2013  11:59:00      138.922      114.607       21.616       81.634       52.236       43.445     6664.153     2728.624     1887.436        2.209        0.564      180.095       15.636        0.008      347.670       26.806      860.349
07/12/2013  12:00:00       66.857       47.598       20.853       33.634       27.033       29.221     1131.248      730.787      853.884        0.494        0.136       82.069       11.939        0.021      347.847       27.112      860.340
07/12/2013  12:01:00       45.620       22.481       21.134       54.095       45.623       32.852     2926.222     2081.442     1079.230        0.456        0.304       50.858        5.123        0.010      348.267       27.837      860.328
07/12/2013  12:02:00       73.547       76.338       32.168       61.003       55.943       50.072     3721.306     3129.647     2507.242        1.081        0.468      106.003       36.842        0.121      348.196       27.718      860.316
07/12/2013  12:03:00      110.841       78.675        4.633       88.323       62.971       46.542     7800.986     3965.401     2166.180        1.621        0.697      135.924       30.913        0.052      347.962       27.310      860.304
07/12/2013  12:04:00       36.688      102.513      -11.118       68.179       66.646       41.778     4648.366     4441.653     1745.440        1.140        0.542      108.880       34.189        0.099      347.884       27.177      860.299
07/12/2013  12:05:00       26.817       66.871        4.564       30.385       64.378       31.919      923.263     4144.552     1018.819        0.565        0.304       72.048       36.511        0.257      348.106       27.560      860.278
07/12/2013  12:06:00       33.369       43.125      -12.136       34.295       45.483       35.347     1176.152     2068.723     1249.441        0.381        0.225       54.528       26.757        0.241      347.941       27.275      860.276
07/12/2013  12:07:00       56.454      -34.660       11.401       53.815       95.724       44.779     2896.049     9163.099     2005.160        0.929        0.703       66.245       51.454        0.603      348.118       27.582      860.263
07/12/2013  12:08:00       37.505      -64.750      -21.491       47.135       75.751       51.022     2221.712     5738.284     2603.275        0.831        0.528       74.828       42.131        0.317      347.927       27.251      860.263
07/12/2013  12:09:00      -27.669      -27.559       17.330       36.135       44.315       34.687     1305.705     1963.809     1203.178        0.315        0.224       39.052       22.812        0.341      348.393       28.056      860.262
07/12/2013  12:10:00      -62.889       -7.926       -3.151       31.140       32.620       31.332      969.696     1064.042      981.699        0.352        0.151       63.387       19.999        0.100      347.962       27.312      860.231
07/12/2013  12:11:00      -86.096     -140.076      -18.283       77.700       61.509       27.710     6037.293     3783.386      767.854        1.898        0.529      164.419       21.572        0.017      347.760       26.960      860.237
07/12/2013  12:12:00     -162.615      -43.835      -12.402       65.922       74.561       45.109     4345.730     5559.345     2034.825        2.023        0.597      168.420       39.206        0.054      347.730       26.909      860.217
07/12/2013  12:13:00     -200.188     -108.959        1.330      116.690       74.154       46.000    13616.568     5498.754     2116.011        3.659        1.062      227.919       44.407        0.038      347.861       27.133      860.164
07/12/2013  12:14:00     -306.504     -165.961       -2.099      107.031       71.838       50.917    11455.587     5160.705     2592.549        7.035        0.960      348.551       53.323        0.023      347.749       26.941      860.136
07/12/2013  12:15:00      -99.950     -122.006        7.710      105.956       46.226       39.208    11226.633     2136.812     1537.288        1.991        0.745      157.719       34.154        0.047      347.989       27.356      860.146
07/12/2013  12:16:00      -59.248      -97.057       -4.723       51.168       73.255       39.131     2618.193     5366.338     1531.257        1.123        0.476      113.711       37.100        0.106      348.465       28.181      860.170
07/12/2013  12:17:00        6.756      -48.129       29.899       28.401       58.000       36.931      806.640     3364.041     1363.903        0.439        0.277       48.601       28.832        0.352      348.790       28.743      860.170
07/12/2013  12:18:00       66.311       39.334       76.617       71.688      137.815       77.279     5139.214    18992.845     5972.018        2.095        1.505       77.099       83.824        1.182      348.117       27.578      860.157
07/12/2013  12:19:00       27.959      -64.830        5.259       55.973       67.427       45.981     3132.977     4546.335     2114.295        0.740        0.490       70.602       35.611        0.254      348.226       27.768      860.143
07/12/2013  12:20:00        5.437        3.947       70.059       41.425       55.418       42.414     1716.031     3071.151     1798.935        0.577        0.329        6.719       30.216       20.226      349.063       29.217      860.129
07/12/2013  12:21:00      -36.386      -99.662        0.524       56.753       52.655       48.349     3220.931     2772.527     2337.587        0.979        0.417      106.096       31.358        0.087      348.288       27.876      860.150
07/12/2013  12:22:00     -104.401     -111.997      -15.841       31.891       29.101       20.967     1017.065      846.868      439.611        1.300        0.115      153.111        9.483        0.004      347.581       26.655      860.134
07/12/2013  12:23:00      -33.022      -39.321       13.440       33.391       35.503       28.463     1114.939     1260.428      810.120        0.300        0.159       51.348       18.776        0.134      347.918       27.236      860.115
07/12/2013  12:24:00      -53.208      -43.467       -1.699       34.486       30.061       21.106     1189.303      903.640      445.473        0.363        0.127       68.706       12.436        0.033      347.979       27.339      860.099
07/12/2013  12:25:00      -33.529      -56.762        3.778       33.799       32.635       19.941     1142.375     1065.023      397.656        0.348        0.130       65.926       13.535        0.042      348.197       27.717      860.089
07/12/2013  12:26:00       18.966      -52.205       -4.590       38.828       40.712       36.813     1507.628     1657.495     1355.172        0.381        0.226       55.544       32.551        0.343      348.173       27.675      860.076
07/12/2013  12:27:00     -184.251      -72.080        9.964      135.721      121.423       59.138    18420.181    14743.477     3497.307        3.794        1.833      197.848       76.011        0.148      348.221       27.757      860.037
07/12/2013  12:28:00     -141.937     -143.444        2.104       89.677       99.827       55.473     8041.911     9965.422     3077.254        3.090        1.054      201.798       55.165        0.075      347.990       27.358      860.050
07/12/2013  12:29:00     -116.439     -132.144       19.513      113.833       94.021       48.954    12957.873     8839.909     2396.469        2.779        1.210      176.125       47.497        0.073      348.192       27.709      860.033
07/12/2013  12:30:00      -74.914      -75.290        2.384      109.925       61.915       45.501    12083.397     3833.419     2070.370        1.463        0.899      106.211       37.136        0.122      348.149       27.633      860.036
07/12/2013  12:31:00      -33.954      -24.459       16.605       63.851       44.701       33.438     4076.966     1998.181     1118.121        0.461        0.360       41.846       34.598        0.684      348.781       28.728      860.024
07/12/2013  12:32:00     -156.705      -79.764        9.740      100.711       76.447       32.970    10142.790     5844.217     1087.046        2.404        0.854      175.837       32.403        0.034      348.345       27.972      860.028
07/12/2013  12:33:00     -123.700      -88.772      -23.638       50.695       51.282       33.001     2570.024     2629.830     1089.069        1.501        0.314      152.257       13.647        0.008      348.124       27.590      860.030
07/12/2013  12:34:00      -82.648      -90.495       -2.106       71.052       51.052       48.085     5048.415     2606.345     2312.204        1.249        0.498      122.556       38.052        0.096      348.488       28.221      860.042
07/12/2013  12:35:00      -39.338      -59.207      -19.329       56.570       52.496       28.309     3200.211     2755.867      801.393        0.609        0.338       71.084       11.436        0.026      348.547       28.322      860.045
07/12/2013  12:36:00      -40.852      -20.416       19.147       43.021       43.582       32.478     1850.824     1899.375     1054.833        0.363        0.240       45.669       33.125        0.526      348.570       28.362      860.046
07/12/2013  12:37:00        5.071       23.080       40.749       25.697       22.893       22.397      660.343      524.106      501.630        0.195        0.084       23.631       12.600        0.284      348.790       28.744      860.016
07/12/2013  12:38:00      -47.911       27.165       28.397       32.152       25.374       31.994     1033.745      643.829     1023.608        0.327        0.135       55.077       17.785        0.104      348.912       28.954      860.009
07/12/2013  12:39:00       41.432       -8.625       19.986       37.692       21.389       21.015     1420.688      457.473      441.643        0.225        0.116       42.320       16.511        0.152      348.597       28.410      859.993
07/12/2013  12:40:00       10.764      -40.281       16.358       22.246       32.690       26.394      494.862     1068.645      696.644        0.213        0.113       41.695       13.025        0.098      348.713       28.611      859.971
07/12/2013  12:41:00       -9.579      -52.242        1.380       41.127       38.515       21.965     1691.389     1483.371      482.480        0.324        0.183       53.113       14.992        0.080      348.667       28.530      859.980
07/12/2013  12:42:00      -15.293       -1.709       23.750       31.814       38.828       34.455     1012.133     1507.596     1187.159        0.225        0.185       15.388       30.684        3.976      349.010       29.124      859.971
07/12/2013  12:43:00      -26.667      -11.372       14.963       71.599       41.625       36.516     5126.487     1732.656     1333.427        0.463        0.410       28.990       36.821        1.613      348.743       28.663      859.961
07/12/2013  12:44:00        6.133       24.931       62.882       49.022       69.514       43.365     2403.115     4832.259     1880.522        0.686        0.456       25.674       40.785        2.524      349.116       29.308      859.941
07/12/2013  12:45:00       71.782     -108.124       13.706       72.914       97.840       45.118     5316.494     9572.600     2035.630        1.697        0.846      129.782       52.836        0.166      348.790       28.743      859.910
07/12/2013  12:46:00       56.455     -164.617      -17.449       81.903      111.939       73.528     6708.172    12530.294     5406.373        2.761        1.232      174.029       47.787        0.075      348.726       28.630      859.896
07/12/2013  12:47:00       41.440      -46.998       14.977       63.803       98.592       58.091     4070.815     9720.378     3374.509        1.065        0.858       62.658       43.871        0.490      348.474       28.196      859.913
07/12/2013  12:48:00       -1.971      -86.878        9.395       38.413       52.560       37.365     1475.574     2762.533     1396.136        0.664        0.282       86.901       30.044        0.120      348.259       27.827      859.884
07/12/2013  12:49:00     -146.777      -51.524       10.010      117.234       72.618       34.717    13743.913     5273.323     1205.249        2.226        1.011      155.558       40.834        0.069      348.521       28.277      859.890
07/12/2013  12:50:00     -139.422       11.075        3.454      137.010       92.308       45.880    18771.652     8520.695     2104.939        2.448        1.470      139.862       47.092        0.113      348.577       28.373      859.880
07/12/2013  12:51:00      -60.642      -12.237       -3.161       52.557       28.362       27.182     2762.236      804.426      738.843        0.407        0.215       61.864       17.513        0.080      348.763       28.697      859.875
07/12/2013  12:52:00      -99.094      -36.935        1.493       56.873       28.292       28.740     3234.540      800.439      825.976        0.802        0.243      105.754       34.269        0.105      348.743       28.662      859.863
07/12/2013  12:53:00      -16.506     -119.034       -1.436       53.201       64.775       55.580     2830.317     4195.750     3089.171        1.228        0.506      120.173       34.297        0.081      348.679       28.551      859.846
07/12/2013  12:54:00      -88.376      -90.336       -1.945       59.899       91.766       44.901     3587.897     8420.909     2016.119        1.500        0.701      126.376       38.483        0.093      348.862       28.868      859.817
07/12/2013  12:55:00      -11.929       16.117       31.794       30.547       29.687       28.872      933.137      881.340      833.614        0.203        0.132       20.052       16.171        0.650      349.323       29.668      859.809
07/12/2013  12:56:00       59.073      -58.407       13.442       67.465       65.476       44.542     4551.576     4287.151     1983.996        0.895        0.541       83.072       41.425        0.249      348.481       28.208      859.808
07/12/2013  12:57:00       32.570      -39.845       29.128       48.713       60.624       39.831     2372.940     3675.231     1586.515        0.556        0.382       51.463       37.978        0.545      349.121       29.317      859.796
07/12/2013  12:58:00      -33.357      -89.297       -4.190       83.491       56.333       43.269     6970.807     3173.463     1872.210        1.056        0.601       95.324       27.979        0.086      349.022       29.144      859.796
07/12/2013  12:59:00     -241.222     -104.517      -12.861      121.052       76.072       56.648    14653.679     5786.885     3209.004        4.646        1.182      262.891       59.971        0.052      348.759       28.687      859.794
07/12/2013  13:00:00     -176.536     -126.546        5.344      102.569       79.968       54.617    10520.442     6394.912     2983.047        3.355        0.995      217.207       59.573        0.075      348.480       28.206      859.804
07/12/2013  13:01:00     -100.180      -51.327       -4.418       52.217       55.501       28.476     2726.576     3080.313      810.883        0.965        0.331      112.563       31.258        0.077      348.276       27.853      859.805
07/12/2013  13:02:00      -89.419      -40.914        0.895       53.815       43.901       27.437     2896.060     1927.301      752.813        0.762        0.279       98.334       22.301        0.051      348.746       28.668      859.777
07/12/2013  13:03:00     -175.131       27.678       -6.776       69.411       44.486       31.142     4817.906     1978.966      969.853        1.962        0.388      177.305       33.178        0.035      348.496       28.233      859.754
07/12/2013  13:04:00      -49.150       -0.957       18.653       44.907       34.120       23.789     2016.678     1164.200      565.919        0.325        0.187       49.159       23.375        0.226      349.076       29.238      859.726
07/12/2013  13:05:00     -104.862      -82.721       -9.986       55.794       57.109       30.900     3113.012     3261.451      954.832        1.263        0.366      133.562       30.443        0.052      348.527       28.290      859.706
07/12/2013  13:06:00     -136.180      -63.159      -24.056      103.840       46.192       29.788    10782.800     2133.676      887.353        1.846        0.690      150.114       32.873        0.048      348.438       28.134      859.685
07/12/2013  13:07:00      -12.016      -84.581       -8.341       58.730       54.208       38.485     3449.155     2938.498     1481.062        0.762        0.393       85.430       27.870        0.106      348.832       28.815      859.680
07/12/2013  13:08:00      111.564     -184.083       22.898      102.843      123.430       76.631    10576.742    15234.860     5872.344        3.926        1.584      215.251       85.580        0.158      348.632       28.468      859.681
07/12/2013  13:09:00      125.450     -164.493        6.851      114.139      107.753       76.781    13027.616    11610.633     5895.390        3.668        1.527      206.871       82.254        0.158      348.636       28.473      859.666
07/12/2013  13:10:00      112.359     -201.875      -23.271      114.507      137.395       66.848    13111.828    18877.380     4468.638        4.518        1.823      231.037       55.165        0.057      348.587       28.391      859.665
07/12/2013  13:11:00       89.230     -161.359      -11.700      102.506       96.950       61.642    10507.426     9399.382     3799.794        2.892        1.185      184.387       74.424        0.163      348.548       28.322      859.684
07/12/2013  13:12:00       21.441      -85.864       23.304       68.322       88.166       61.095     4667.930     7773.206     3732.589        1.227        0.809       88.500       55.148        0.388      348.932       28.989      859.655
07/12/2013  13:13:00       73.848      -63.217       26.652       87.843      122.425       63.166     7716.364    14987.804     3989.892        1.842        1.335       97.211       73.498        0.572      348.713       28.608      859.657
07/12/2013  13:14:00      111.112     -206.820      -13.677       77.910       70.463       46.122     6070.032     4964.967     2127.255        3.423        0.658      234.777       33.266        0.020      348.640       28.482      859.659
07/12/2013  13:15:00       89.903     -161.640      -10.972       81.003       74.536       36.559     6561.536     5555.589     1336.539        2.389        0.673      184.960       27.665        0.022      348.964       29.044      859.668
07/12/2013  13:16:00        7.712      -29.015        9.374       52.683       64.541       50.868     2775.483     4165.520     2587.533        0.526        0.476       30.022       42.506        2.005      349.381       29.768      859.676
07/12/2013  13:17:00      -29.453      -98.141       -7.609      103.137       71.719       39.080    10637.332     5143.683     1527.271        1.393        0.865      102.465       30.902        0.091      348.773       28.714      859.678
07/12/2013  13:18:00      -17.052      -16.004       25.255       80.155       65.942       36.046     6424.903     4348.398     1299.331        0.663        0.604       23.386       39.381        2.836      348.938       29.000      859.661
07/12/2013  13:19:00       85.898       71.959       26.200       40.744       48.564       41.699     1660.095     2358.440     1738.823        0.950        0.288      112.056       20.123        0.032      348.366       28.010      859.636
07/12/2013  13:20:00       26.820       49.787       14.488       56.944       75.416       48.684     3242.629     5687.620     2370.154        0.735        0.565       56.552       35.685        0.398      348.450       28.154      859.617
07/12/2013  13:21:00      -13.678      -18.659       -5.867       38.776       52.549       35.766     1503.595     2761.441     1279.223        0.306        0.277       23.136       32.963        2.030      348.560       28.346      859.593
07/12/2013  13:22:00       13.587       26.112       22.680       33.374       23.093       22.526     1113.852      533.307      507.398        0.177        0.108       29.435       11.887        0.163      349.211       29.473      859.573
07/12/2013  13:23:00      114.155       50.822       25.834       75.419       55.859       40.696     5687.954     3120.256     1656.184        1.337        0.523      124.957       39.034        0.098      348.920       28.967      859.541
07/12/2013  13:24:00      104.532       54.400       91.527       97.357       65.390       52.443     9478.312     4275.817     2750.221        1.938        0.825      117.840       47.766        0.164      348.932       28.988      859.521
07/12/2013  13:25:00       43.637       70.787       91.573       76.897       84.822       64.740     5913.144     7194.796     4191.320        1.630        0.865       83.157       52.842        0.404      349.000       29.106      859.490
07/12/2013  13:26:00       66.192       61.147       70.788       86.289       62.246       52.003     7445.759     3874.506     2704.308        1.358        0.701       90.113       42.967        0.227      348.891       28.917      859.469
07/12/2013  13:27:00       33.356       33.277       59.141       71.707       59.353       42.167     5141.838     3522.752     1778.077        0.808        0.522       47.117       37.244        0.625      349.188       29.433      859.454
07/12/2013  13:28:00       27.848      -44.788       18.823       44.687       92.991       41.135     1996.928     8647.234     1692.081        0.773        0.617       52.739       27.268        0.267      349.304       29.634      859.461
07/12/2013  13:29:00       99.507     -151.408       16.867       88.863      102.762       46.724     7896.682    10559.982     2183.157        2.687        1.032      181.180       62.930        0.121      348.911       28.950      859.456
07/12/2013  13:30:00       86.091     -181.778       -9.233       71.334       94.232       45.434     5088.527     8879.747     2064.276        2.828        0.802      201.134       45.004        0.050      348.997       29.100      859.457
07/12/2013  13:31:00       11.604      -33.314       25.063       36.109       35.734       23.381     1303.825     1276.948      546.667        0.250        0.156       35.277       21.886        0.385      349.370       29.748      859.476
07/12/2013  13:32:00       51.014       37.313       42.273       27.703       37.346       21.943      767.450     1394.691      481.509        0.421        0.132       63.203       14.594        0.053      348.718       28.619      859.498
07/12/2013  13:33:00       13.031       20.523       25.440       44.220       43.580       30.255     1955.445     1899.207      915.378        0.300        0.239       24.310       18.507        0.580      349.288       29.607      859.512
07/12/2013  13:34:00       60.323        8.010       25.705       96.368       79.202       48.418     9286.822     6272.911     2344.318        1.113        0.895       60.853       32.052        0.277      349.288       29.605      859.489
07/12/2013  13:35:00      -57.670      -75.425       26.384      102.087       57.193       46.249    10421.770     3271.045     2138.925        1.277        0.792       94.946       50.853        0.287      349.319       29.659      859.507
07/12/2013  13:36:00     -103.295       17.743        3.191       74.793       67.459       44.255     5593.943     4550.666     1958.529        1.155        0.605      104.807       29.323        0.078      349.241       29.524      859.520
07/12/2013  13:37:00     -229.133      -26.150       -9.076      115.968       69.941       54.263    13448.671     4891.707     2944.455        3.727        1.064      230.621       58.546        0.064      349.229       29.500      859.527
07/12/2013  13:38:00     -127.336      -78.974      -17.147       87.706       70.863       33.368     7692.307     5021.611     1113.411        1.828        0.691      149.838       34.171        0.052      348.561       28.347      859.520
07/12/2013  13:39:00     -164.980      -56.594        0.009      122.012       91.212       39.880    14887.020     8319.650     1590.427        2.760        1.240      174.417       55.737        0.102      349.041       29.177      859.472
07/12/2013  13:40:00      -78.967       -1.105      -12.014       74.940       71.571       46.397     5615.934     5122.462     2152.719        0.963        0.645       78.974       32.234        0.167      349.177       29.414      859.462
07/12/2013  13:41:00      -58.223       33.940       21.333       74.989       57.958       39.571     5623.317     3359.078     1565.839        0.777        0.527       67.393       44.613        0.438      349.378       29.763      859.430
07/12/2013  13:42:00     -157.886      -53.453       12.927      158.348      153.347       58.986    25074.199    23515.153     3479.311        4.000        2.603      166.689       71.346        0.183      349.635       30.206      859.412
07/12/2013  13:43:00     -133.992     -113.601       10.414      157.611      195.258       79.562    24841.342    38125.880     6330.033        5.012        3.465      175.667       82.319        0.220      349.366       29.738      859.421
07/12/2013  13:44:00      -89.001        1.042       12.958      125.176       72.514       57.042    15669.064     5258.284     3253.797        1.613        1.209       89.007       56.273        0.400      349.656       30.243      859.408
07/12/2013  13:45:00     -334.461     -182.026        5.165      191.020      138.352       71.854    36488.573    19141.251     5162.970       10.290        3.040      380.786       73.765        0.038      349.123       29.317      859.391
07/12/2013  13:46:00     -126.839      -32.217        7.876      128.291      124.259       48.366    16458.493    15440.208     2339.239        2.571        1.712      130.867       47.527        0.132      349.104       29.287      859.370
07/12/2013  13:47:00     -101.885       43.341       14.099       99.542       83.385       65.107     9908.696     6953.127     4238.963        1.678        1.055      110.720       37.754        0.116      349.625       30.188      859.370
07/12/2013  13:48:00     -444.810      -83.980      -26.049      241.272      163.408       77.291    58212.383    26702.326     5973.886       14.822        4.544      452.669       62.019        0.019      349.360       29.727      859.272
07/12/2013  13:49:00     -433.661     -190.752      -21.492      195.059      149.219       83.311    38048.206    22266.452     6940.717       14.607        3.363      473.760       75.240        0.025      349.167       29.392      859.304
07/12/2013  13:50:00     -286.494      -94.169        6.718      137.515      110.445       58.534    18910.430    12198.169     3426.223        6.276        1.727      301.573       68.570        0.052      349.348       29.707      859.367
07/12/2013  13:51:00     -247.310     -162.734        1.988      110.693       98.464       51.049    12252.937     9695.249     2605.984        5.610        1.228      296.048       37.774        0.016      349.437       29.861      859.359
07/12/2013  13:52:00     -395.077     -114.156      -12.941      187.325      139.126       81.169    35090.608    19356.126     6588.372       11.515        3.052      411.239       87.353        0.045      349.384       29.769      859.357
07/12/2013  13:53:00     -423.550     -161.277      -30.266      202.195      216.390       89.505    40882.846    46824.751     8011.219       15.100        4.786      453.216       87.897        0.038      349.150       29.363      859.340
07/12/2013  13:54:00     -247.002      -88.299       -6.661      173.563      120.679       63.010    30124.229    14563.380     3970.219        5.874        2.433      262.310       76.800        0.086      349.275       29.582      859.397
07/12/2013  13:55:00     -157.104      -41.793        5.221      131.785      113.790       70.217    17367.399    12948.246     4930.437        3.084        1.762      162.568       59.015        0.132      349.137       29.342      859.388
07/12/2013  13:56:00     -229.147     -196.102       19.480      163.166      179.624       95.803    26623.146    32264.769     9178.157        7.969        3.403      301.603       86.619        0.082      349.150       29.363      859.372
07/12/2013  13:57:00     -241.595     -143.730       -9.444      147.172      151.655       73.941    21659.697    22999.144     5467.298        6.461        2.506      281.117       72.093        0.066      349.066       29.217      859.382
07/12/2013  13:58:00     -302.292     -210.935       13.996      227.614      140.485       82.511    51808.043    19736.010     6807.992       10.720        3.918      368.611      102.247        0.077      348.983       29.074      859.340
07/12/2013  13:59:00     -431.080     -310.878       -8.512      248.182      167.620       93.624    61594.339    28096.492     8765.441       19.048        4.923      531.483      110.399        0.043      348.958       29.031      859.284
07/12/2013  14:00:00     -253.857     -174.877        5.467      236.597      135.657       94.476    55978.075    18402.884     8925.783        8.916        4.165      308.262      114.190        0.137      349.224       29.491      859.315
07/12/2013  14:01:00     -180.240      -85.801       -6.755      104.468       83.988       56.191    10913.499     7053.932     3157.477        3.051        1.056      199.620       39.225        0.039      349.323       29.664      859.287
07/12/2013  14:02:00     -218.389      -59.252       -6.791      115.627      107.287       69.078    13369.656    11510.584     4771.775        4.045        1.483      226.284       52.995        0.055      349.643       30.218      859.293
07/12/2013  14:03:00     -203.515      -57.295      -12.514      194.185      108.825       82.365    37707.783    11842.940     6783.921        5.058        2.817      211.426       95.094        0.202      349.382       29.767      859.256
07/12/2013  14:04:00     -388.844      -61.104      -34.852      144.512      128.398       66.328    20883.770    16486.075     4399.375        9.895        2.088      393.616       55.665        0.020      349.071       29.228      859.293
07/12/2013  14:05:00     -124.583      -82.720        7.238      156.916       91.068       61.590    24622.524     8293.372     3793.341        2.956        1.835      149.544       71.634        0.229      349.317       29.654      859.256
07/12/2013  14:06:00      -94.295       -9.162       34.732       98.736      121.845       57.399     9748.723    14846.097     3294.683        1.903        1.394       94.739       50.903        0.289      349.694       30.307      859.255
07/12/2013  14:07:00     -141.895       53.332       -8.364       99.430      105.101       50.154     9886.418    11046.306     2515.464        2.324        1.172      151.587       58.071        0.147      349.717       30.348      859.244
07/12/2013  14:08:00     -306.454      -22.467      -19.400      137.055      161.129       74.691    18784.015    25962.652     5578.805        7.255        2.516      307.277       63.722        0.043      349.502       29.972      859.233
07/12/2013  14:09:00     -354.511      -10.311       -8.076      191.869      119.805       69.079    36813.723    14353.224     4771.956        9.088        2.797      354.661       79.852        0.051      349.526       30.017      859.216
07/12/2013  14:10:00     -243.317      -97.097        2.868      163.428      180.830       73.365    26708.578    32699.432     5382.371        6.670        3.240      261.975       66.791        0.065      349.516       29.998      859.247
07/12/2013  14:11:00     -320.441     -200.560       -9.778      169.938      154.351       93.707    28878.912    23824.249     8780.959       10.223        3.074      378.030       91.419        0.058      349.336       29.685      859.239
07/12/2013  14:12:00     -339.389     -236.329      -10.548      187.968      127.279       85.102    35332.152    16200.064     7242.408       11.495        2.939      413.565      102.207        0.061      349.211       29.468      859.267
07/12/2013  14:13:00     -329.037     -258.035       10.461      209.195      162.546       98.159    43762.599    26421.275     9635.107       12.737        3.991      418.148      117.825        0.079      348.983       29.074      859.246
07/12/2013  14:14:00     -347.049     -261.583      -21.892      186.946      151.035       91.641    34948.748    22811.535     8398.007       12.774        3.308      434.590       98.596        0.051      349.019       29.136      859.237
07/12/2013  14:15:00     -328.505      -57.510       -2.726      199.899      170.228       73.277    39959.419    28977.703     5369.573        9.275        3.715      333.501       80.832        0.059      349.305       29.633      859.251
07/12/2013  14:16:00     -104.480      -71.072        1.357      110.055      109.190       49.594    12112.042    11922.375     2459.578        2.123        1.325      126.362       34.349        0.074      349.515       29.999      859.274
07/12/2013  14:17:00     -239.806       15.563      -12.833      127.420       99.051       49.705    16235.779     9811.107     2470.557        4.321        1.426      240.311       56.547        0.055      349.436       29.858      859.269
07/12/2013  14:18:00     -251.925      -64.114      -13.036      132.554      109.730       64.559    17570.499    12040.764     4167.914        5.076        1.689      259.955       54.743        0.044      349.409       29.813      859.235
07/12/2013  14:19:00     -119.752      -32.750       15.810      187.824      125.962       79.358    35277.688    15866.528     6297.727        3.654        2.872      124.150       82.718        0.444      349.753       30.412      859.218
07/12/2013  14:20:00     -222.164     -170.713      -14.825      167.174      164.108       73.280    27947.106    26931.496     5369.891        6.947        3.012      280.179       79.516        0.081      349.520       30.005      859.231
07/12/2013  14:21:00     -469.900     -114.446      -12.423      230.967      171.098       91.136    53345.871    29274.424     8305.690       16.247        4.546      483.636       93.960        0.038      349.470       29.918      859.207
07/12/2013  14:22:00     -259.513      -98.750       12.183      177.268      117.462       74.975    31423.895    13797.433     5621.203        6.403        2.542      277.666       87.775        0.100      349.515       29.997      859.180
07/12/2013  14:23:00     -390.829     -275.325      -11.861      232.911      196.319       81.125    54247.539    38540.970     6581.334       16.401        4.968      478.070       71.264        0.022      349.157       29.375      859.180
07/12/2013  14:24:00     -368.411     -150.931        1.680      198.508      153.147       87.332    39405.466    23453.865     7626.904       11.448        3.524      398.130       90.869        0.052      348.948       29.014      859.172
07/12/2013  14:25:00     -305.519     -159.667       -3.786      169.280      118.630       81.133    28655.642    14073.027     6582.535        8.407        2.466      344.725       73.122        0.045      349.254       29.543      859.183
07/12/2013  14:26:00     -447.674     -130.625      -29.931      232.823      195.526      100.863    54206.377    38230.301    10173.387       16.047        5.131      466.342      117.118        0.063      349.132       29.333      859.217
07/12/2013  14:27:00     -353.133       82.838      -51.403      155.415      137.640       69.055    24153.877    18944.896     4768.584        9.103        2.393      362.719       55.377        0.023      349.113       29.298      859.209
07/12/2013  14:28:00     -308.290      129.432      -38.311      118.452      120.057       54.438    14030.897    14413.777     2963.514        7.233        1.570      334.358       55.409        0.027      349.138       29.342      859.137
07/12/2013  14:29:00     -406.053     -158.053       -6.473      170.514      159.344       74.730    29075.181    25390.563     5584.527       12.496        3.003      435.729       78.344        0.032      349.250       29.537      859.168
07/12/2013  14:30:00     -287.759     -195.544      -11.929      219.612      151.609       89.645    48229.324    22985.186     8036.227       10.020        3.963      347.912       97.613        0.079      349.076       29.235      859.228
07/12/2013  14:31:00     -299.305     -166.032        6.096      184.728      155.701       84.607    34124.329    24242.933     7158.297        9.134        3.276      342.272       92.572        0.073      349.036       29.165      859.206
07/12/2013  14:32:00     -260.699     -152.470       -2.300      195.461      122.394       77.952    38204.919    14980.324     6076.528        7.523        2.963      302.012       92.084        0.093      349.143       29.352      859.182
07/12/2013  14:33:00     -331.670     -252.846       17.060      184.831      176.261       98.247    34162.462    31067.844     9652.456       12.454        3.744      417.057      107.067        0.066      349.057       29.203      859.138
07/12/2013  14:34:00     -371.420      -86.072      -22.623      176.840      181.661       95.707    31272.336    33000.831     9159.860       10.964        3.672      381.263       98.685        0.067      349.291       29.606      859.141
07/12/2013  14:35:00     -288.514     -161.248       -4.779      159.002      169.198       79.291    25281.487    28627.827     6287.104        8.472        3.010      330.516       78.210        0.056      349.272       29.575      859.154
07/12/2013  14:36:00     -364.130     -240.789       14.839      230.375      191.692      109.039    53072.661    36745.758    11889.557       14.623        5.085      436.543      119.359        0.075      349.180       29.416      859.166
07/12/2013  14:37:00     -378.868     -106.530      -23.389      155.243      128.536       70.550    24100.527    16521.512     4977.365       10.051        2.280      393.561       56.901        0.021      349.050       29.190      859.146
07/12/2013  14:38:00     -268.488     -158.330       -2.154      131.190      137.090       63.974    17210.946    18793.706     4092.696        6.862        2.005      311.696       66.296        0.045      349.176       29.409      859.140
07/12/2013  14:39:00     -519.222     -143.588       -0.288      231.729      142.465       78.679    53698.449    20296.356     6190.462       18.518        4.009      538.710       94.928        0.031      348.957       29.028      859.171
07/12/2013  14:40:00     -430.727     -162.116       -8.514      152.280      143.240       70.457    23189.144    20517.555     4964.126       13.027        2.434      460.226       69.480        0.023      348.858       28.859      859.128
07/12/2013  14:41:00     -343.075     -101.183       -3.238      132.944      102.878       64.640    17673.992    10583.834     4178.385        8.019        1.622      357.685       62.488        0.031      349.034       29.161      859.119
07/12/2013  14:42:00     -421.449      -67.626       -8.671      237.489      186.405       95.185    56400.856    34746.951     9060.224       14.122        5.010      426.841      109.574        0.066      349.324       29.666      859.109
07/12/2013  14:43:00     -246.881     -207.639        3.966      179.603      163.353       77.186    32257.216    26684.063     5957.732        8.448        3.245      322.590       90.649        0.079      349.339       29.691      859.146
07/12/2013  14:44:00     -314.195     -180.600       -4.952      172.713      176.469       87.465    29829.833    31141.477     7650.092        9.998        3.431      362.402       72.522        0.040      349.314       29.648      859.141
07/12/2013  14:45:00     -381.290     -125.371       -6.110      245.027      184.964      104.661    60038.130    34211.707    10953.868       13.315        5.260      401.372      111.233        0.077      349.292       29.610      859.141
07/12/2013  14:46:00     -736.969     -116.303      -44.406      217.834      169.137      107.651    47451.859    28607.242    11588.700       32.312        4.382      746.089       99.732        0.018      348.992       29.089      859.090
07/12/2013  14:47:00     -404.538     -148.375       21.406      293.212      218.618      125.919    85973.318    47794.025    15855.621       16.784        7.481      430.890      157.818        0.134      349.206       29.461      859.070
07/12/2013  14:48:00     -585.321     -224.391      -22.495      297.468      209.816      110.535    88487.068    44022.569    12218.039       26.906        7.236      626.859      121.319        0.037      348.952       29.020      859.103
07/12/2013  14:49:00     -458.667      -32.863      -18.729      280.559      175.171       99.928    78713.163    30685.004     9985.699       16.557        5.969      459.843      122.852        0.071      349.226       29.494      859.076
07/12/2013  14:50:00     -466.117     -113.154      -12.117      192.360      155.711       94.003    37002.539    24245.775     8836.619       15.014        3.504      479.655      100.086        0.044      349.356       29.719      859.060
07/12/2013  14:51:00     -315.320     -132.378       22.830      229.116      202.783      120.022    52494.247    41121.024    14405.198       11.272        5.401      341.981      115.980        0.115      349.266       29.564      859.037
07/12/2013  14:52:00     -386.691     -193.480       -8.052      219.248      186.651       92.518    48069.775    34838.727     8559.573       13.923        4.573      432.394      111.844        0.067      349.363       29.733      859.051
07/12/2013  14:53:00     -350.637     -157.295       -5.500      198.060      188.538       99.158    39227.758    35546.649     9832.370       11.615        4.230      384.302      102.928        0.072      349.392       29.782      859.065
07/12/2013  14:54:00     -374.158      -98.330      -21.605      210.067      119.825       73.821    44127.945    14357.925     5449.555       10.702        3.197      386.863       84.152        0.047      349.316       29.651      859.098
07/12/2013  14:55:00     -308.799     -123.939        1.831      165.387      123.456       75.370    27352.733    15241.409     5680.627        7.949        2.414      332.743       83.329        0.063      349.218       29.480      859.013
07/12/2013  14:56:00     -285.290     -237.621        8.515      207.058      178.459       96.872    42873.093    31847.462     9384.136       11.100        4.205      371.287      111.308        0.090      349.372       29.748      859.035
07/12/2013  14:57:00     -473.320       -3.767      -13.663      236.123      184.970       83.839    55753.935    34213.718     7029.054       16.060        4.850      473.335       90.471        0.037      349.389       29.778      859.055
07/12/2013  14:58:00     -441.821      -53.772       -1.472      175.177      143.707      101.403    30687.090    20651.666    10282.613       12.985        3.081      445.081       97.379        0.048      349.334       29.682      859.043
07/12/2013  14:59:00     -260.928      -31.215        9.211      216.432      138.342       68.903    46842.957    19138.631     4747.618        6.992        3.536      262.789       86.689        0.109      349.531       30.024      859.034
07/12/2013  15:00:00     -365.308       56.957      -20.851      232.190      132.221       83.989    53912.226    17482.327     7054.121       10.777        3.922      369.722      102.058        0.076      349.416       29.826      859.017
07/12/2013  15:01:00     -356.743     -121.441        1.222      226.502      221.351      109.729    51302.998    48996.182    12040.515       12.716        5.617      376.847      119.398        0.100      349.221       29.486      859.000
07/12/2013  15:02:00     -377.329     -191.715       -0.021      271.289      233.537      132.364    73597.668    54539.569    17520.293       16.237        7.283      423.240      140.606        0.110      349.190       29.433      858.995
07/12/2013  15:03:00     -426.855     -224.114      -32.650      193.797      153.032       69.240    37557.414    23418.870     4794.236       14.962        3.289      482.113       76.872        0.025      349.285       29.596      859.035
07/12/2013  15:04:00     -597.184     -336.389      -28.909      320.721      221.228      119.797   102861.654    48941.842    14351.298       31.835        8.308      685.409      146.076        0.045      348.949       29.015      859.029
07/12/2013  15:05:00     -389.547     -258.594        0.736      205.684      178.010      101.889    42306.083    31687.711    10381.438       15.148        4.219      467.566       96.361        0.042      349.116       29.304      859.008
07/12/2013  15:06:00     -395.424     -279.869        2.637      292.608      201.191      104.058    85619.232    40477.763    10828.060       18.578        6.846      484.445      128.496        0.070      349.162       29.386      859.012
07/12/2013  15:07:00     -345.940     -175.157       34.416      255.133      184.809      118.644    65092.928    34154.244    14076.485       13.241        5.666      387.756      125.932        0.105      349.258       29.551      859.046
07/12/2013  15:08:00     -395.876     -210.054       -7.215      238.180      178.641       99.335    56729.517    31912.500     9867.513       14.968        4.925      448.152      116.257        0.067      348.997       29.097      859.049
07/12/2013  15:09:00     -321.028     -149.780       -3.888      191.018      197.582       88.407    36487.769    39038.724     7815.884       10.441        4.167      354.250       96.068        0.074      349.233       29.508      859.037
07/12/2013  15:10:00     -327.886     -119.195        7.237      250.390      206.722       93.660    62695.289    42734.164     8772.211       11.796        5.710      348.879      117.049        0.113      349.209       29.466      859.043
07/12/2013  15:11:00     -439.791      -37.288      -25.775      187.621      205.620       86.600    35201.620    42279.395     7499.612       14.021        4.249      441.369       88.588        0.040      349.156       29.374      859.018
07/12/2013  15:12:00     -353.906      -87.747       10.194      264.004      145.145       89.223    69698.225    21066.992     7960.799       11.587        4.936      364.621      127.699        0.123      349.228       29.498      858.977
07/12/2013  15:13:00     -545.294     -227.326      -24.195      202.048      200.563       96.124    40823.216    40225.403     9239.916       21.993        4.514      590.781       96.609        0.027      349.159       29.378      858.991
07/12/2013  15:14:00     -489.786     -238.722       -8.235      300.788      273.279      113.595    90473.490    74681.579    12903.848       23.747        8.903      544.866      156.972        0.083      349.155       29.371      858.970
07/12/2013  15:15:00     -399.165     -220.543      -27.879      209.199      212.405      100.643    43764.253    45115.842    10128.946       15.386        4.950      456.040      110.823        0.059      349.157       29.375      859.006
07/12/2013  15:16:00     -264.582      -94.844       16.421      222.708      152.974       90.998    49598.944    23400.924     8280.598        8.026        4.064      281.068      102.244        0.132      349.361       29.729      858.994
07/12/2013  15:17:00     -342.644     -212.771        0.228      208.216      242.461      111.380    43353.966    58787.165    12405.468       13.859        5.727      403.332      118.635        0.087      349.141       29.348      858.948
07/12/2013  15:18:00     -480.737     -241.420      -21.321      275.858      259.679      137.985    76097.581    67432.934    19039.826       22.618        8.129      537.951      162.211        0.091      349.232       29.506      858.894
07/12/2013  15:19:00     -559.790      -98.146      -35.963      252.808      230.837       94.538    63911.803    53285.754     8937.522       22.519        6.307      568.328      100.632        0.031      349.233       29.509      858.945
07/12/2013  15:20:00     -554.335     -109.301      -21.468      287.857      206.721      123.946    82861.635    42733.634    15362.495       23.030        7.048      565.008      140.385        0.062      349.270       29.573      858.913
07/12/2013  15:21:00     -408.194     -323.650        2.383      311.305      257.170      140.862    96910.601    66136.351    19842.122       22.710        9.144      520.933      168.315        0.104      349.140       29.345      858.925
07/12/2013  15:22:00     -199.043     -178.144        1.342      270.258      206.136      113.645    73039.496    42491.896    12915.275        9.988        6.422      267.121      131.612        0.243      349.328       29.671      858.933
07/12/2013  15:23:00     -501.469     -299.961      -13.873      233.855      184.618      104.675    54688.300    34083.727    10956.809       22.066        4.986      584.336      112.676        0.037      349.096       29.269      858.942
07/12/2013  15:24:00     -269.480     -230.677       27.999      237.058      144.534       82.882    56196.312    20890.067     6869.404       10.527        4.198      354.727      111.077        0.098      349.217       29.479      858.949
07/12/2013  15:25:00     -352.528     -132.935       10.539      183.263      131.264       77.314    33585.334    17230.349     5977.520        9.941        2.840      376.760       81.344        0.047      349.356       29.720      858.917
07/12/2013  15:26:00     -506.285     -105.493      -21.169      278.149      229.130      112.395    77366.663    52500.718    12632.693       20.517        7.125      517.159      134.320        0.067      349.303       29.629      858.904
07/12/2013  15:27:00     -632.491     -311.826      -40.283      270.722      282.358      130.538    73290.211    79725.779    17040.210       33.445        8.503      705.181      133.956        0.036      348.971       29.053      858.896
07/12/2013  15:28:00     -355.458     -111.877       -7.253      236.727      199.364      101.057    56039.537    39746.075    10212.524       12.244        5.300      372.648      122.182        0.108      349.256       29.547      858.885
07/12/2013  15:29:00     -419.197     -341.475       16.504      295.460      201.159      132.388    87296.580    40464.990    17526.651       21.892        7.264      540.677      161.577        0.089      349.102       29.280      858.846
07/12/2013  15:30:00     -251.162     -148.405       -6.177      187.932      141.097       87.750    35318.278    19908.252     7700.070        7.402        3.146      291.730       93.543        0.103      349.438       29.862      858.829
07/12/2013  15:31:00     -415.819      -15.131      -13.081      221.394      156.562       91.579    49015.310    24511.696     8386.627       12.759        4.096      416.094       99.053        0.057      349.448       29.880      858.847
07/12/2013  15:32:00     -334.815     -225.301        2.098      286.077      191.073      114.048    81839.916    36508.834    13006.837       14.708        6.568      403.561      138.300        0.117      349.258       29.550      858.822
07/12/2013  15:33:00     -438.544      -94.781      -25.026      238.186      162.097       81.123    56732.343    26275.478     6580.969       14.574        4.479      448.670       87.488        0.038      349.198       29.446      858.829
07/12/2013  15:34:00     -366.911     -115.206        1.160      175.228      180.741       79.676    30705.020    32667.174     6348.225       10.879        3.486      384.572       78.446        0.042      349.220       29.485      858.789
07/12/2013  15:35:00     -288.608      -92.679        5.333      187.480      153.110       85.008    35148.814    23442.562     7226.375        7.885        3.291      303.123       94.522        0.097      349.430       29.848      858.779
07/12/2013  15:36:00     -190.608      -11.529        1.023      148.915       86.023       41.312    22175.797     7399.928     1706.649        3.387        1.564      190.957       55.174        0.083      349.730       30.370      858.802
07/12/2013  15:37:00     -396.167      -13.631      -21.167      206.434      156.042       83.248    42615.038    24348.973     6930.281       11.572        3.695      396.401       82.587        0.043      349.539       30.036      858.777
07/12/2013  15:38:00     -452.430      -94.559      -35.281      188.803      184.984       95.882    35646.742    34219.009     9193.309       14.695        3.953      462.206      102.067        0.049      349.436       29.858      858.812
07/12/2013  15:39:00     -273.409     -120.050       15.977      213.588      140.581      101.101    45619.713    19762.978    10221.322        8.250        3.780      298.604      111.858        0.140      349.399       29.796      858.837
07/12/2013  15:40:00     -465.627      -40.321      -21.521      206.370      171.596       75.312    42588.615    29445.242     5671.916       14.829        3.885      467.370       87.172        0.035      349.262       29.557      858.849
07/12/2013  15:41:00     -159.113     -113.884        7.191      152.447      141.127       78.852    23240.010    19916.900     6217.615        4.385        2.469      195.669       81.500        0.173      349.404       29.806      858.829
07/12/2013  15:42:00     -437.444      -91.373      -13.714      196.323      168.084       66.408    38542.632    28252.391     4410.056       13.554        3.560      446.885       75.119        0.028      349.080       29.241      858.821
07/12/2013  15:43:00     -270.636     -160.433       10.090      224.599      185.979      105.390    50444.818    34588.190    11107.110        9.759        4.807      314.615      115.718        0.135      349.270       29.570      858.810
07/12/2013  15:44:00     -512.203     -190.930      -42.306      287.855      215.692      120.282    82860.403    46522.930    14467.828       22.219        7.193      546.632      132.049        0.058      349.166       29.392      858.869
07/12/2013  15:45:00     -418.156     -216.554       -9.808      220.673      220.610       89.956    48696.486    48668.860     8092.146       16.363        5.273      470.904      108.480        0.053      349.156       29.375      858.902
07/12/2013  15:46:00     -344.367     -109.205       -7.443      205.566      198.594       86.475    42257.370    39439.665     7477.881       10.985        4.459      361.268       97.407        0.073      348.988       29.083      858.830
07/12/2013  15:47:00     -278.303     -156.844        8.418      275.774      154.491       94.811    76051.492    23867.533     8989.143       10.549        5.445      319.457      125.909        0.155      349.266       29.565      858.774
07/12/2013  15:48:00     -394.944      -68.474      -18.483      171.149      126.032       73.118    29292.112    15883.970     5346.292       10.576        2.526      400.836       82.553        0.042      349.228       29.499      858.811
07/12/2013  15:49:00     -170.831      -98.671        4.818      173.246      154.829       68.582    30014.162    23972.107     4703.530        4.880        2.934      197.280       92.975        0.222      349.428       29.846      858.797
07/12/2013  15:50:00     -119.369      -77.205       22.598      155.387      148.251      101.652    24145.187    21978.243    10333.123        3.858        2.823      142.160      103.543        0.530      349.471       29.921      858.787
07/12/2013  15:51:00     -342.496     -145.462       -3.250      222.810      185.505      115.534    49644.398    34412.025    13348.176       11.792        4.870      372.106      128.584        0.119      349.335       29.683      858.765
07/12/2013  15:52:00     -418.959     -164.230      -11.993      192.184      166.359       84.856    36934.573    27675.376     7200.487       13.721        3.591      449.998       84.028        0.035      349.406       29.807      858.778
07/12/2013  15:53:00     -200.499     -130.888       13.717      159.641      135.143       79.344    25485.200    18263.657     6295.422        5.377        2.502      239.440       84.433        0.124      349.618       30.175      858.831
07/12/2013  15:54:00     -291.545       -3.295       -2.778      148.670      126.518       70.763    22102.845    16006.754     5007.453        6.406        2.156      291.564       77.016        0.070      349.318       29.654      858.810
07/12/2013  15:55:00     -246.988     -101.725      -14.202      191.849      146.039       77.093    36805.958    21327.392     5943.382        6.780        3.204      267.116       71.041        0.071      349.230       29.501      858.769
07/12/2013  15:56:00     -341.898     -146.519        6.525      264.235      199.656      110.928    69820.042    39862.402    12304.918       13.017        6.099      371.971      145.910        0.154      349.283       29.593      858.768
07/12/2013  15:57:00     -665.828     -109.423      -43.532      308.569      199.637      115.543    95214.978    39855.086    13350.155       30.278        7.421      674.760      144.297        0.046      349.094       29.266      858.760
07/12/2013  15:58:00     -452.599     -223.407      -26.940      229.826      212.804      103.920    52820.007    45285.699    10799.346       18.217        5.445      504.734      108.849        0.047      349.101       29.278      858.732
07/12/2013  15:59:00     -407.757     -344.134        5.695      269.290      205.122      116.754    72516.983    42075.126    13631.405       20.645        6.411      533.567      141.685        0.071      349.125       29.320      858.719
07/12/2013  16:00:00     -219.437     -223.821       27.204      277.043      222.351      113.519    76752.639    49439.787    12886.666       11.901        6.954      313.446      144.089        0.211      349.270       29.571      858.734
07/12/2013  16:01:00     -311.195     -109.598       -1.165      271.303      160.907      100.854    73605.490    25890.990    10171.508       10.924        5.483      329.930      109.130        0.109      349.170       29.399      858.746
07/12/2013  16:02:00     -190.291      -69.901        4.365      178.157      120.343       78.034    31739.932    14482.510     6089.332        4.670        2.616      202.723       73.497        0.131      349.338       29.689      858.720
07/12/2013  16:03:00     -239.310     -100.699      -12.441      157.334       90.901       62.655    24754.000     8262.996     3925.650        5.225        1.847      259.634       66.982        0.067      349.573       30.097      858.718
07/12/2013  16:04:00     -360.760     -232.060        6.413      225.226      216.550      100.572    50726.540    46894.073    10114.632       14.587        5.387      428.951      114.664        0.071      349.387       29.775      858.763
07/12/2013  16:05:00     -391.973     -128.584      -28.319      250.113      170.087       77.631    62556.525    28929.620     6026.598       13.423        4.876      412.524       85.493        0.043      349.099       29.274      858.753
07/12/2013  16:06:00     -326.635       -0.030       -5.477      156.149      136.148       78.374    24382.400    18536.320     6142.442        7.788        2.453      326.635       79.188        0.059      349.342       29.695      858.767
07/12/2013  16:07:00     -201.314      -93.227        6.146      130.288      135.448       74.468    16974.996    18346.055     5545.513        4.505        2.043      221.853       67.840        0.094      349.409       29.812      858.760
07/12/2013  16:08:00     -338.400     -124.633      -12.570      165.627      141.631       77.344    27432.237    20059.367     5982.157        9.183        2.674      360.622       77.866        0.047      349.133       29.334      858.732
07/12/2013  16:09:00     -365.741     -129.251      -22.899      238.430      148.237       99.205    56848.839    21974.245     9841.723       11.981        4.433      387.908      113.927        0.086      349.268       29.569      858.710
07/12/2013  16:10:00     -422.390      -23.085      -36.813      202.879      172.798       76.989    41159.816    29858.998     5927.293       12.861        3.847      423.020       81.669        0.037      349.192       29.435      858.671
07/12/2013  16:11:00     -415.527      -75.339      -33.886      133.798      142.153       80.458    17902.017    20207.500     6473.511       11.203        2.229      422.302       50.318        0.014      349.249       29.535      858.664
07/12/2013  16:12:00     -554.011      -77.810      -38.389      219.451      128.235       87.296    48158.943    16444.254     7620.635       19.333        3.611      559.449      105.063        0.035      349.432       29.853      858.664
07/12/2013  16:13:00     -434.339      -52.364      -16.820      211.978      211.924       96.938    44934.606    44911.727     9397.000       14.544        4.962      437.484       97.432        0.050      349.606       30.154      858.671
07/12/2013  16:14:00     -582.677      -96.130      -22.804      346.647      197.898      112.434   120163.883    39163.439    12641.356       26.059        8.598      590.554      148.452        0.063      349.239       29.518      858.703
07/12/2013  16:15:00     -378.967     -300.022      -10.040      242.382      203.894      105.555    58748.908    41572.898    11141.955       17.257        5.573      483.352      121.773        0.063      349.111       29.297      858.722
07/12/2013  16:16:00     -292.531     -170.153        4.694      265.867      191.750      100.822    70685.343    36767.971    10165.053       11.606        5.881      338.418      113.513        0.113      349.246       29.529      858.723
07/12/2013  16:17:00     -407.751     -259.412       -3.561      280.328      210.528      141.302    78583.752    44322.034    19966.353       18.819        7.144      483.276      154.093        0.102      349.058       29.204      858.736
07/12/2013  16:18:00     -465.868     -176.691      -28.684      278.181      207.992      105.480    77384.600    43260.471    11125.961       19.040        6.589      498.250      130.135        0.068      349.064       29.214      858.724
07/12/2013  16:19:00     -473.945     -261.628      -10.871      272.282      157.879       98.338    74137.523    24925.827     9670.311       20.094        5.437      541.363      101.482        0.035      349.037       29.169      858.737
07/12/2013  16:20:00     -308.526     -158.689      -18.100      169.856      152.841       74.468    28850.945    23360.405     5545.428        8.922        2.888      346.945       78.336        0.051      349.043       29.178      858.727
07/12/2013  16:21:00     -506.241     -241.556      -25.207      213.629      192.092       99.986    45637.374    36899.398     9997.265       20.388        4.627      560.918       95.699        0.029      348.951       29.018      858.728
07/12/2013  16:22:00     -382.544     -315.490        6.399      249.108      180.929      119.065    62054.976    32735.265    14176.424       17.742        5.448      495.857      129.984        0.069      348.959       29.032      858.659
07/12/2013  16:23:00     -168.020      -62.572       13.310      187.981      140.475       82.929    35336.780    19733.202     6877.270        4.712        3.097      179.293       81.664        0.207      349.209       29.466      858.643
07/12/2013  16:24:00     -258.364      -40.587       -2.584      155.800      120.093       63.861    24273.777    14422.249     4078.262        5.558        2.139      261.533       58.761        0.050      349.351       29.712      858.641
07/12/2013  16:25:00     -254.184     -194.998       -1.179      188.320      137.003       80.987    35464.283    18769.778     6558.903        8.170        3.040      320.365       92.538        0.083      349.398       29.794      858.669
07/12/2013  16:26:00     -337.405     -220.328       -6.502      240.011      191.307      100.241    57605.089    36598.281    10048.275       13.332        5.213      402.972      130.010        0.104      349.328       29.672      858.649
07/12/2013  16:27:00     -364.806     -177.450      -19.906      163.083      157.565       77.004    26596.111    24826.882     5929.636       11.115        2.868      405.675       82.133        0.041      349.445       29.876      858.655
07/12/2013  16:28:00     -561.105     -325.256      -44.528      268.374      207.764      109.992    72024.520    43165.730    12098.192       27.492        6.364      648.560      118.363        0.033      349.079       29.241      858.641
07/12/2013  16:29:00     -556.689     -163.274      -21.813      253.767      169.312       88.787    64397.706    28666.515     7883.108       21.897        5.047      580.138      116.529        0.040      349.287       29.601      858.675
07/12/2013  16:30:00     -564.323     -271.099      -41.573      275.796      246.417      108.759    76063.307    60721.327    11828.417       27.112        7.431      626.063      117.603        0.035      349.006       29.113      858.675
07/12/2013  16:31:00     -500.356     -227.354      -27.482      263.993      238.567      103.364    69692.128    56914.188    10684.084       22.002        6.865      549.587       99.321        0.033      348.983       29.073      858.693
07/12/2013  16:32:00     -408.181     -165.002       -4.929      302.326      201.044       97.732    91400.768    40418.710     9551.558       16.759        7.069      440.269      142.828        0.105      349.031       29.157      858.705
07/12/2013  16:33:00     -488.120     -238.740      -35.050      205.915      187.469       98.995    42401.127    35144.479     9799.973       19.190        4.367      543.376      106.483        0.038      349.058       29.204      858.709
07/12/2013  16:34:00     -356.596      -77.381       -6.177      201.956      156.565       91.703    40786.094    24512.598     8409.480       10.343        3.685      364.895      103.421        0.080      349.131       29.331      858.707
07/12/2013  16:35:00     -600.837     -151.581      -27.500      237.387      193.766       87.888    56352.711    37545.120     7724.279       24.316        5.081      619.663       82.075        0.018      349.139       29.345      858.703
07/12/2013  16:36:00     -388.389     -249.975       -6.486      213.339      168.947       84.263    45513.625    28543.033     7100.313       14.725        4.058      461.881       88.484        0.037      349.090       29.259      858.739
07/12/2013  16:37:00     -380.192     -228.053       14.643      186.052      139.123       94.549    34615.469    19355.190     8939.475       12.983        3.146      443.344       90.090        0.041      349.201       29.451      858.732
07/12/2013  16:38:00     -315.086     -208.214       10.672      221.329      175.709      103.150    48986.452    30873.732    10639.884       11.661        4.525      377.667      122.647        0.105      349.163       29.386      858.780
07/12/2013  16:39:00     -225.200     -106.533       -7.015      162.850      159.132       75.946    26520.011    25323.067     5767.736        5.985        2.881      249.127       50.914        0.042      349.268       29.568      858.762
07/12/2013  16:40:00     -619.366      -46.467      -59.956      198.482      145.823       86.413    39395.110    21264.341     7467.230       22.873        3.406      621.107       86.936        0.020      348.903       28.936      858.703
07/12/2013  16:41:00     -603.907     -101.878      -45.621      248.130      225.547      115.464    61568.683    50871.475    13331.986       25.144        6.289      612.440      111.665        0.033      349.030       29.156      858.722
07/12/2013  16:42:00     -444.637     -155.723       -7.365      263.124      254.684      108.880    69234.170    64864.037    11854.806       18.395        7.298      471.117      121.944        0.067      348.985       29.078      858.740
07/12/2013  16:43:00     -448.710     -127.178       -9.677      172.005      191.643       93.337    29585.617    36726.949     8711.795       14.630        3.751      466.385       96.053        0.042      349.017       29.133      858.774
07/12/2013  16:44:00     -339.522     -187.643       -4.455      288.126      177.101      102.524    83016.673    31364.754    10511.133       13.767        6.245      387.924      138.400        0.127      349.025       29.146      858.772
07/12/2013  16:45:00     -450.377     -101.080      -17.752      185.666      171.801       89.228    34472.011    29515.537     7961.638       14.265        3.597      461.581       86.912        0.035      348.969       29.049      858.747
07/12/2013  16:46:00     -475.371      -71.325      -24.006      173.898      199.914       86.878    30240.565    39965.669     7547.732       15.468        3.888      480.692       83.109        0.030      349.078       29.238      858.705
07/12/2013  16:47:00     -535.777     -222.814      -12.362      207.424      182.231       90.497    43024.609    33208.215     8189.647       21.062        4.221      580.261       94.779        0.027      349.135       29.336      858.759
07/12/2013  16:48:00     -564.965     -113.807      -16.336      217.498      181.705      104.849    47305.443    33016.674    10993.328       21.184        4.566      576.314      107.994        0.035      349.054       29.197      858.726
07/12/2013  16:49:00     -541.372        0.479      -20.780      245.420      196.861       90.919    60231.048    38754.398     8266.326       20.036        5.363      541.372      109.558        0.041      349.173       29.404      858.754
07/12/2013  16:50:00     -400.613     -105.024      -21.583      163.705      142.726       76.505    26799.327    20370.685     5853.072       11.249        2.651      414.150       81.882        0.039      349.274       29.579      858.755
07/12/2013  16:51:00     -514.806      -45.315      -24.225      237.631      195.049      100.019    56468.358    38044.065    10003.827       18.607        5.226      516.796      116.516        0.051      349.140       29.346      858.737
07/12/2013  16:52:00     -393.284     -155.203       -1.336      165.098      148.129       83.214    27257.374    21942.302     6924.549       11.743        2.806      422.800       91.430        0.047      349.177       29.411      858.741
07/12/2013  16:53:00     -379.373     -217.310       -0.198      230.105      181.275      111.206    52948.180    32860.484    12366.854       14.464        4.909      437.205      119.019        0.074      349.211       29.469      858.768
07/12/2013  16:54:00     -516.832     -266.748      -17.409      203.990      192.842       95.801    41611.841    37187.940     9177.784       21.326        4.399      581.610       95.342        0.027      349.109       29.294      858.766
07/12/2013  16:55:00     -464.185      -76.462      -34.160      194.625      184.258       91.787    37878.804    33950.963     8424.893       15.135        4.013      470.441       86.071        0.033      349.063       29.210      858.769
07/12/2013  16:56:00     -432.002     -286.127      -31.776      210.578      203.477      100.353    44342.967    41402.874    10070.759       18.264        4.791      518.164      109.871        0.045      348.989       29.085      858.807
07/12/2013  16:57:00     -396.727     -254.133       -8.980      230.235      236.817      104.444    53007.943    56082.070    10908.586       17.100        6.000      471.143      107.196        0.052      348.958       29.030      858.785
07/12/2013  16:58:00     -575.276     -326.378       -4.869      331.678      233.161      115.562   110010.407    54363.867    13354.569       30.757        8.886      661.411      123.848        0.035      348.701       28.585      858.826
07/12/2013  16:59:00     -422.696     -177.070      -22.626      239.230      185.873       87.159    57231.067    34548.738     7596.753       15.494        4.969      458.285      107.508        0.055      348.738       28.650      858.759
07/12/2013  17:00:00     -481.966     -118.664      -20.754      207.151      147.190       83.406    42911.530    21664.971     6956.500       15.915        3.577      496.359       92.559        0.035      349.068       29.221      858.694
07/12/2013  17:01:00     -576.477     -102.850      -48.815      229.480      185.453       89.265    52660.867    34392.650     7968.304       22.013        4.751      585.579       99.904        0.029      349.033       29.161      858.684
07/12/2013  17:02:00     -578.600      -63.365      -35.568      269.261      176.239       93.530    72501.502    31060.042     8747.922       22.616        5.615      582.060      103.831        0.032      349.104       29.282      858.640
07/12/2013  17:03:00     -398.698     -172.480      -12.513      294.756      224.575      123.798    86880.970    50433.749    15325.995       17.072        7.632      434.407      156.543        0.130      349.148       29.361      858.733
07/12/2013  17:04:00     -289.154      -75.150       25.801      195.024      183.128       97.904    38034.361    33535.973     9585.204        8.552        4.058      298.760       90.229        0.091      349.241       29.522      858.744
07/12/2013  17:05:00     -279.289      -80.349       15.099      218.674      152.289       73.466    47818.490    23191.970     5397.295        8.053        3.820      290.617       93.086        0.103      349.181       29.418      858.778
07/12/2013  17:06:00     -380.898     -226.457      -12.834      228.791      165.027      101.349    52345.271    27233.860    10271.631       14.317        4.493      443.132      118.339        0.071      348.977       29.062      858.775
07/12/2013  17:07:00     -424.465      -73.600      -26.491      213.973      179.449       94.720    45784.365    32201.923     8971.941       13.661        4.348      430.799      107.392        0.062      349.108       29.290      858.756
07/12/2013  17:08:00     -409.504      -78.154       -0.178      251.115      174.663      102.750    63058.955    30507.020    10557.568       13.894        5.206      416.895      116.569        0.078      349.026       29.147      858.750
07/12/2013  17:09:00     -518.887     -207.910      -33.265      207.838      196.770      107.648    43196.712    38718.391    11588.078       20.352        4.675      558.991       92.014        0.027      348.924       28.971      858.772
07/12/2013  17:10:00     -404.852      -84.959        3.018      273.531      160.869       90.585    74819.095    25878.847     8205.638       14.000        5.445      413.670      104.549        0.064      348.904       28.938      858.774
07/12/2013  17:11:00     -284.173     -105.188        3.176      145.761      160.733       80.648    21246.311    25835.091     6504.177        7.270        2.679      303.017       69.252        0.052      348.972       29.056      858.735
07/12/2013  17:12:00     -231.024      -38.012       20.846      180.773      111.791       76.036    32678.724    12497.168     5781.546        5.309        2.548      234.130       98.634        0.177      349.166       29.393      858.730
07/12/2013  17:13:00     -132.094      -48.278       11.102      146.784      121.493       67.859    21545.533    14760.609     4604.831        3.040        2.046      140.640       70.379        0.250      349.234       29.510      858.748
07/12/2013  17:14:00     -476.725      -31.585      -27.716      217.899      159.631       86.089    47480.158    25482.094     7411.388       15.469        4.019      477.770       95.225        0.040      349.068       29.221      858.767
07/12/2013  17:15:00     -466.320      -49.757      -11.672      206.580      195.011       85.109    42675.333    38029.270     7243.553       15.399        4.397      468.967       92.407        0.039      348.965       29.044      858.777
07/12/2013  17:16:00     -400.614       19.247      -33.040      268.156      142.933       94.829    71907.793    20429.759     8992.627       13.162        5.067      401.076      131.782        0.108      348.952       29.020      858.740
07/12/2013  17:17:00     -410.087      -81.022        0.890      161.300      146.334       85.947    26017.701    21413.580     7386.833       11.477        2.741      418.014       91.430        0.048      348.985       29.077      858.731
07/12/2013  17:18:00     -387.939     -193.154       15.510      285.435      185.753      103.210    81473.351    34504.318    10652.297       15.731        6.331      433.365      117.441        0.073      348.918       28.962      858.821
07/12/2013  17:19:00     -516.849     -102.690       -6.664      258.171      160.021      100.594    66652.161    25606.681    10119.246       19.003        5.119      526.951      115.321        0.048      348.892       28.916      858.809
07/12/2013  17:20:00     -545.786     -166.770      -26.874      291.388      172.978      105.051    84906.692    29921.248    11035.683       22.611        6.293      570.696      129.292        0.051      348.882       28.898      858.817
07/12/2013  17:21:00     -404.882     -192.412      -12.042      179.350      111.288       83.274    32166.348    12385.034     6934.519       12.628        2.574      448.277       88.928        0.039      348.989       29.085      858.817
07/12/2013  17:22:00     -400.746      -38.579      -14.495      253.380      179.088       85.898    64201.288    32072.668     7378.547       13.295        5.183      402.599       88.930        0.049      348.996       29.096      858.787
07/12/2013  17:23:00     -475.607      -66.115      -18.548      216.483      204.626      105.094    46864.752    41871.739    11044.732       16.533        4.989      480.181      104.455        0.047      348.903       28.935      858.750
07/12/2013  17:24:00     -447.002      -34.214      -23.050      204.388      161.007       86.198    41774.421    25923.164     7430.139       13.831        3.756      448.309       95.314        0.045      348.940       28.999      858.754
07/12/2013  17:25:00     -548.198      -85.110      -42.210      229.451      181.004       88.888    52647.631    32762.309     7901.109       20.141        4.666      554.765       96.195        0.030      348.979       29.067      858.758
07/12/2013  17:26:00     -366.816     -158.208        4.057      221.308      205.367      103.552    48977.159    42175.603    10723.070       13.072        5.094      399.479      117.459        0.086      349.034       29.163      858.795
07/12/2013  17:27:00     -413.583     -119.718       -1.459      269.686      191.976      105.331    72730.444    36854.603    11094.641       15.301        6.034      430.562      118.823        0.076      348.919       28.963      858.797
07/12/2013  17:28:00     -313.629     -100.808       -5.083      182.169      142.409       79.308    33185.468    20280.404     6289.806        8.414        2.988      329.432       92.306        0.079      348.899       28.929      858.796
07/12/2013  17:29:00     -417.596     -230.925      -17.342      213.549      168.120       87.346    45602.968    28264.429     7629.307       15.474        4.075      477.193      102.826        0.046      348.679       28.547      858.787
07/12/2013  17:30:00     -398.194     -351.981      -13.682      220.723      177.804      108.098    48718.755    31614.381    11685.140       18.731        4.601      531.459      126.441        0.057      348.741       28.657      858.773
07/12/2013  17:31:00     -307.283     -151.871      -11.359      172.653      169.999       78.415    29809.055    28899.606     6148.923        9.122        3.243      342.765       74.320        0.047      349.029       29.154      858.829
07/12/2013  17:32:00     -368.058     -299.264        5.055      251.991      190.043      110.542    63499.364    36116.169    12219.626       16.842        5.592      474.369      124.595        0.069      348.868       28.874      858.785
07/12/2013  17:33:00     -505.148     -309.752      -13.198      257.810      221.747      126.568    66466.071    49171.755    16019.389       24.145        6.583      592.554      122.912        0.043      348.739       28.653      858.776
07/12/2013  17:34:00     -332.033     -235.425       -4.528      230.863      220.014      101.508    53297.901    48406.281    10303.935       13.883        5.600      407.027      124.213        0.093      348.769       28.703      858.801
07/12/2013  17:35:00     -255.464      -94.112      -22.558      208.038      170.412       83.049    43279.937    29040.153     6897.151        7.691        3.961      272.248       84.294        0.096      349.035       29.164      858.792
07/12/2013  17:36:00     -355.468      -96.228        7.635      236.501      180.492       95.133    55932.864    32577.505     9050.340       11.660        4.878      368.263      112.148        0.093      348.878       28.892      858.785
07/12/2013  17:37:00     -392.781     -199.479       -0.546      200.975      185.661      106.090    40391.028    34469.900    11255.067       14.007        4.306      440.532      105.661        0.058      348.805       28.767      858.804
07/12/2013  17:38:00     -505.204     -261.478       -9.729      312.378      240.353      130.726    97579.939    57769.707    17089.238       24.803        8.622      568.860      155.123        0.074      348.706       28.594      858.779
07/12/2013  17:39:00     -444.300     -228.791      -10.376      196.588      183.462       95.107    38646.927    33658.412     9045.311       16.559        4.068      499.748      109.997        0.048      348.680       28.548      858.797
07/12/2013  17:40:00     -489.706     -360.986       -4.469      245.489      186.784      115.209    60264.671    34888.230    13273.157       23.926        5.421      608.378      134.792        0.049      348.644       28.486      858.740
07/12/2013  17:41:00     -387.130     -232.935       -8.905      202.491      146.180       96.677    41002.473    21368.666     9346.530       13.795        3.586      451.805      104.042        0.053      348.781       28.723      858.768
07/12/2013  17:42:00     -274.302     -214.783        6.102      226.715      134.788       86.504    51399.481    18167.722     7482.931        9.921        3.853      348.387      102.707        0.087      348.813       28.779      858.764
07/12/2013  17:43:00     -395.859     -173.545       -1.650      278.573      202.301       97.758    77602.659    40925.744     9556.717       15.743        6.404      432.229      129.617        0.090      348.876       28.890      858.750
07/12/2013  17:44:00     -396.214     -173.131       -0.262      262.103      218.441      103.639    68697.908    47716.647    10741.104       15.703        6.358      432.388      116.276        0.072      348.730       28.636      858.771
07/12/2013  17:45:00     -378.155     -321.347       -5.040      217.416      211.230       93.491    47269.730    44618.218     8740.639       17.344        5.031      496.251      108.773        0.048      348.671       28.534      858.744
07/12/2013  17:46:00     -242.094     -131.885        4.297      207.412      139.476       83.083    43019.533    19453.489     6902.757        7.268        3.469      275.687      106.570        0.149      348.717       28.614      858.735
07/12/2013  17:47:00     -195.876     -192.816       -2.501      122.380      101.267       65.750    14976.975    10254.960     4323.001        5.255        1.478      274.855       67.155        0.060      348.781       28.724      858.732
07/12/2013  17:48:00     -229.767      -51.310       20.489      176.757      139.027       89.793    31242.972    19328.550     8062.725        5.723        2.932      235.427      102.701        0.190      348.898       28.927      858.712
07/12/2013  17:49:00     -314.675     -173.231        0.673      200.155      166.719       84.261    40061.898    27795.215     7099.944       10.198        3.748      359.206       77.111        0.046      348.931       28.984      858.708
07/12/2013  17:50:00     -566.845     -335.852      -13.245      317.422      250.561      128.193   100756.786    62781.021    16433.329       30.709        8.999      658.870      144.694        0.048      348.596       28.404      858.704
07/12/2013  17:51:00     -445.954     -342.431      -12.084      206.186      180.411      120.102    42512.761    32548.307    14424.478       20.286        4.474      562.258      122.606        0.048      348.586       28.386      858.727
07/12/2013  17:52:00     -281.079     -181.380       24.127      221.309      200.333      102.388    48977.484    40133.283    10483.221       10.602        4.980      334.520      121.721        0.132      348.746       28.664      858.736
07/12/2013  17:53:00     -472.195     -218.072       -3.369      322.289      208.020      101.175   103870.242    43272.177    10236.331       21.393        7.869      520.119      127.501        0.060      348.631       28.464      858.741
07/12/2013  17:54:00     -220.881      -39.826       10.702      190.017      127.128       79.669    36106.513    16161.647     6347.210        5.454        2.931      224.443       92.193        0.169      348.830       28.809      858.730
07/12/2013  17:55:00     -150.276      -68.264       19.485      160.092      124.029       68.843    25629.479    15383.245     4739.306        3.668        2.288      165.054       73.443        0.198      348.927       28.979      858.764
07/12/2013  17:56:00     -470.041       -8.029      -26.095      236.357      171.020       84.349    55864.782    29247.942     7114.776       15.694        4.611      470.110      100.628        0.046      348.680       28.550      858.750
07/12/2013  17:57:00     -360.396      -76.008       -8.155      170.503      185.474       88.646    29071.405    34400.447     7858.063       10.351        3.566      368.324       87.879        0.057      348.712       28.606      858.736
07/12/2013  17:58:00     -439.611     -120.402        0.285      235.644      145.095       86.003    55528.009    21052.547     7396.468       14.585        4.199      455.801      111.259        0.060      348.660       28.515      858.773
07/12/2013  17:59:00     -375.770     -336.086        6.158      302.021      239.759      128.951    91216.837    57484.375    16628.439       20.973        8.266      504.140      168.955        0.112      348.599       28.409      858.752
07/12/2013  18:00:00     -606.084     -255.405      -52.474      228.499      202.427      115.628    52211.794    40976.563    13369.926       27.092        5.328      657.700       88.262        0.018      348.455       28.160      858.774
07/12/2013  18:01:00     -434.251     -326.425        9.290      282.752      219.536      132.307    79948.617    48196.070    17505.197       22.040        7.282      543.256      159.244        0.086      348.545       28.315      858.795
07/12/2013  18:02:00     -485.977     -194.979      -25.555      166.085      162.317       69.091    27584.381    26346.655     4773.553       16.676        2.935      523.632       50.049        0.009      348.595       28.401      858.784
07/12/2013  18:03:00     -319.449      -57.751      -10.009      143.605      138.995       70.870    20622.270    19319.632     5022.541        7.521        2.248      324.627       67.632        0.043      348.770       28.703      858.789
07/12/2013  18:04:00     -401.453     -171.393      -21.781      265.587      261.569       93.670    70536.384    68418.217     8774.089       16.934        7.386      436.509      111.967        0.066      348.637       28.477      858.796
07/12/2013  18:05:00     -340.398     -171.040       -7.196      241.853      152.360       97.602    58493.038    23213.482     9526.143       11.819        4.562      380.953      114.931        0.091      348.634       28.470      858.781
07/12/2013  18:06:00     -329.234     -186.638      -15.479      153.663      114.511       73.942    23612.233    13112.713     5467.394        9.282        2.110      378.456       77.453        0.042      348.654       28.507      858.771
07/12/2013  18:07:00     -346.204     -143.992        5.042      189.995      145.651       98.262    36098.162    21214.289     9655.384       10.378        3.348      374.955      103.221        0.076      348.717       28.613      858.743
07/12/2013  18:08:00     -485.035     -359.316      -11.142      373.847      247.183      120.574   139761.951    61099.308    14538.173       28.990       10.770      603.628      142.828        0.056      348.581       28.378      858.726
07/12/2013  18:09:00     -577.267     -278.926      -28.350      271.884      230.444      108.223    73921.106    53104.407    11712.285       27.526        6.937      641.121      122.399        0.036      348.441       28.136      858.726
07/12/2013  18:10:00     -372.362     -302.329        5.109      217.704      189.664      105.260    47394.996    35972.502    11079.618       16.225        4.722      479.641      114.723        0.057      348.505       28.247      858.723
07/12/2013  18:11:00     -389.513     -101.566        1.563      189.450      175.109       96.618    35891.485    30663.182     9335.112       11.895        3.794      402.537       98.429        0.060      348.573       28.364      858.744
07/12/2013  18:12:00     -431.524      -28.216      -31.455      156.288      139.384       64.892    24425.827    19427.799     4210.963       11.802        2.403      432.446       69.748        0.026      348.545       28.315      858.709
07/12/2013  18:13:00     -145.943      -42.566       25.445      149.985      109.662       73.050    22495.475    12025.738     5336.352        3.180        1.993      152.024       73.492        0.234      348.651       28.502      858.697
07/12/2013  18:14:00     -328.887      -74.872       12.437      237.140      186.700       94.609    56235.174    34856.765     8950.800       10.696        5.002      337.301       92.636        0.075      348.633       28.469      858.699
07/12/2013  18:15:00     -294.017     -219.344       -7.254      237.224      160.042       96.064    56275.057    25613.578     9228.381       11.285        4.556      366.821      120.857        0.109      348.622       28.449      858.713
07/12/2013  18:16:00     -287.369     -166.302        8.016      205.821      167.672       95.507    42362.159    28113.944     9121.524        9.493        3.980      332.020      103.910        0.098      348.656       28.508      858.731
07/12/2013  18:17:00     -345.019     -163.364       -6.252      241.772      135.031       77.515    58453.888    18233.409     6008.637       11.421        4.135      381.741       92.215        0.058      348.625       28.454      858.747
07/12/2013  18:18:00      -59.702      -46.594       33.591      131.888      114.031       71.762    17394.518    13002.971     5149.842        2.120        1.777       75.732       67.278        0.789      348.759       28.687      858.759
07/12/2013  18:19:00     -218.386     -180.175       -8.704      168.001      121.719       73.115    28224.216    14815.520     5345.860        6.430        2.419      283.118       90.774        0.103      348.657       28.510      858.789
07/12/2013  18:20:00     -487.324      -69.284      -31.490      217.087      167.406       86.176    47126.591    28024.625     7426.304       16.291        4.129      492.225       94.157        0.037      348.618       28.443      858.773
07/12/2013  18:21:00     -357.235      -75.983       -3.579      162.879      125.651       79.534    26529.696    15788.278     6325.716        9.101        2.432      365.226       81.392        0.050      348.649       28.494      858.767
07/12/2013  18:22:00     -351.440     -181.478      -20.875      242.790      180.959      103.160    58946.839    32746.023    10642.006       12.959        5.117      395.531      128.398        0.105      348.644       28.489      858.783
07/12/2013  18:23:00     -311.636     -246.603       -5.596      226.887      219.296      121.591    51477.756    48090.570    14784.389       13.613        5.718      397.404      117.600        0.088      348.502       28.241      858.750
07/12/2013  18:24:00     -402.794     -233.743      -29.204      252.031      212.640      110.131    63519.522    45215.809    12128.860       16.927        6.043      465.702      128.764        0.076      348.500       28.237      858.706
07/12/2013  18:25:00     -434.430      -52.276      -17.468      192.683      183.074       87.144    37126.729    33516.039     7593.999       13.499        3.912      437.564       82.542        0.036      348.578       28.372      858.757
07/12/2013  18:26:00     -261.738     -115.405       -2.923      146.131      113.105       60.848    21354.156    12792.823     3702.466        5.983        1.892      286.051       69.505        0.059      348.688       28.563      858.771
07/12/2013  18:27:00     -392.593     -242.954        9.844      264.537      228.526      105.945    69979.666    52224.093    11224.287       17.331        6.671      461.688      125.143        0.073      348.507       28.250      858.774
07/12/2013  18:28:00     -293.295     -223.636        4.283      238.930      181.352      105.280    57087.763    32888.439    11083.874       11.854        5.053      368.829      131.403        0.127      348.420       28.099      858.749
07/12/2013  18:29:00     -445.123     -135.577       -3.693      210.280      159.127       91.519    44217.600    25321.298     8375.661       14.721        3.896      465.312       97.719        0.044      348.481       28.204      858.761
07/12/2013  18:30:00     -536.505     -183.045      -22.461      276.252      230.442      100.745    76314.974    53103.461    10149.590       23.068        6.978      566.871      108.229        0.036      348.458       28.166      858.741
07/12/2013  18:31:00     -521.073     -305.273      -20.974      270.650      227.738      109.402    73251.165    51864.772    11968.856       25.109        6.854      603.911      118.617        0.039      348.404       28.071      858.751
07/12/2013  18:32:00     -540.002     -228.351      -15.675      310.029      212.719      124.077    96118.080    45249.570    15395.195       25.035        7.838      586.298      145.595        0.062      348.358       27.993      858.749
07/12/2013  18:33:00     -369.540     -293.242       -8.126      186.047      168.815       92.259    34613.670    28498.353     8511.657       14.711        3.581      471.753      101.541        0.046      348.365       28.006      858.773
07/12/2013  18:34:00     -277.880     -242.893      -16.539      184.818      136.349       86.216    34157.735    18591.165     7433.216        9.832        3.009      369.072       88.498        0.057      348.445       28.142      858.759
07/12/2013  18:35:00     -363.718     -271.338       -3.277      173.821      150.292       80.406    30213.670    22587.833     6465.134       13.258        2.963      453.779       93.019        0.042      348.414       28.089      858.762
07/12/2013  18:36:00     -224.277     -164.755       -3.972      183.521      146.591       94.022    33679.781    21488.828     8840.155        7.072        3.200      278.288       96.587        0.120      348.462       28.173      858.771
07/12/2013  18:37:00     -316.486     -169.729      -20.942      244.244      157.165       96.559    59654.939    24700.818     9323.679       11.153        4.684      359.126      105.194        0.086      348.462       28.173      858.813
07/12/2013  18:38:00     -398.274      -49.394      -24.284      225.095      146.938       90.815    50667.638    21590.772     8247.436       12.106        4.025      401.325       84.516        0.044      348.491       28.222      858.806
07/12/2013  18:39:00     -448.701     -106.002       -1.977      242.950      192.165      108.959    59024.535    36927.570    11872.039       16.018        5.391      461.052      127.084        0.076      348.357       27.991      858.819
07/12/2013  18:40:00     -317.743     -110.677      -15.066      185.736      120.864       83.157    34497.871    14608.091     6915.144        8.472        2.801      336.467       97.195        0.083      348.383       28.035      858.815
07/12/2013  18:41:00     -304.353     -170.908       -3.011      195.657      164.536       96.591    38281.571    27072.002     9329.743        9.825        3.734      349.056      101.899        0.085      348.409       28.080      858.802
07/12/2013  18:42:00     -262.801      -67.611        7.821      251.227      141.829       97.275    63115.257    20115.594     9462.417        8.318        4.635      271.359      119.283        0.193      348.423       28.106      858.803
07/12/2013  18:43:00     -221.426       -8.477       13.206      194.153      111.313       77.569    37695.531    12390.600     6016.896        5.268        2.805      221.588       72.501        0.107      348.405       28.075      858.771
07/12/2013  18:44:00     -259.909      -89.665        0.263      154.248      135.324       74.427    23792.582    18312.657     5539.330        6.161        2.382      274.940       75.393        0.075      348.500       28.237      858.818
07/12/2013  18:45:00     -388.056     -280.764       -7.355      262.615      200.962       86.165    68966.525    40385.690     7424.423       17.310        5.839      478.974      104.054        0.047      348.378       28.026      858.815
07/12/2013  18:46:00     -489.565     -268.584        0.785      348.279      264.583      136.484   121298.252    70004.390    18627.905       26.083       10.497      558.400      172.165        0.095      348.282       27.860      858.795
07/12/2013  18:47:00     -479.600      -80.340       -8.451      239.724      190.453       98.129    57467.711    36272.500     9629.313       16.994        5.168      486.282      115.567        0.056      348.308       27.905      858.822
07/12/2013  18:48:00     -477.466     -386.917       -9.651      338.909      242.829      149.601   114859.551    58965.950    22380.326       28.695        9.810      614.556      177.134        0.083      348.177       27.679      858.770
07/12/2013  18:49:00     -362.012     -132.581       -2.202      244.213      178.190      100.298    59639.746    31751.761    10059.761       12.502        5.073      385.527      107.111        0.077      348.240       27.786      858.793
07/12/2013  18:50:00     -415.839      -97.616      -10.903      215.564      168.026       91.248    46467.628    28232.842     8326.155       13.278        4.151      427.143       89.268        0.044      348.271       27.843      858.809
07/12/2013  18:51:00     -468.296     -204.892      -26.931      220.653      186.713       97.803    48687.592    34861.565     9565.523       17.754        4.656      511.157       95.106        0.035      348.197       27.714      858.805
07/12/2013  18:52:00     -357.564     -265.759       -3.903      246.353      211.478      117.351    60689.822    44722.839    13771.243       15.882        5.959      445.510      124.123        0.078      348.203       27.724      858.800
07/12/2013  18:53:00     -349.240     -251.057        9.232      288.291      218.750      121.068    83111.548    47851.397    14657.402       16.532        7.281      430.114      118.645        0.076      348.129       27.596      858.797
07/12/2013  18:54:00     -333.388      -93.641       -5.768      331.368      179.996      112.686   109804.618    32398.656    12698.203       13.739        7.745      346.290      145.834        0.177      348.147       27.628      858.793
07/12/2013  18:55:00     -261.218      -53.274      -10.066      179.359      154.564       77.098    32169.701    23890.098     5944.172        6.658        3.100      266.596       76.925        0.083      348.262       27.827      858.804
07/12/2013  18:56:00     -397.244     -120.841        2.049      204.051      192.781       89.907    41636.732    37164.534     8083.280       12.963        4.344      415.218       97.449        0.055      348.200       27.720      858.822
07/12/2013  18:57:00     -376.932     -175.888      -12.015      247.222      223.930       97.973    61118.473    50144.734     9598.791       14.699        6.043      415.950      122.654        0.087      348.145       27.625      858.808
07/12/2013  18:58:00     -473.909     -238.854      -16.120      280.610      167.265      107.808    78741.968    27977.728    11622.509       20.010        5.917      530.699      134.143        0.064      348.101       27.549      858.809
07/12/2013  18:59:00     -410.730      -73.627      -29.935      198.013      144.000       85.467    39209.268    20735.956     7304.563       12.112        3.362      417.277       97.312        0.054      348.169       27.666      858.811
07/12/2013  19:00:00     -456.874     -101.308       -5.949      224.290      197.898      109.936    50305.956    39163.574    12085.927       16.027        5.078      467.972      120.442        0.066      348.157       27.643      858.811
07/12/2013  19:01:00     -416.961      -90.874      -10.590      197.691      160.483       88.813    39081.809    25754.931     7887.791       12.746        3.636      426.749       88.210        0.043      348.199       27.716      858.841
07/12/2013  19:02:00     -669.791     -129.707      -38.085      287.081      190.345      103.435    82415.245    36231.195    10698.844       29.809        6.467      682.235      126.666        0.034      348.097       27.541      858.833
07/12/2013  19:03:00     -409.461     -138.664       -7.329      268.799      180.364      104.355    72253.157    32531.260    10889.913       15.128        5.784      432.303      123.463        0.082      348.108       27.560      858.838
07/12/2013  19:04:00     -253.232      -83.837        2.878      171.173      122.106       87.643    29300.154    14909.766     7681.274        6.152        2.595      266.750       94.861        0.126      348.189       27.699      858.842
07/12/2013  19:05:00     -517.707     -273.878      -38.154      282.714      268.834      112.511    79927.463    72271.852    12658.621       25.464        8.243      585.687      137.914        0.055      348.037       27.439      858.841
07/12/2013  19:06:00     -365.699     -190.501        1.779      231.828      158.799      102.473    53743.994    25217.257    10500.617       12.973        4.473      412.343      107.383        0.068      348.036       27.435      858.822
07/12/2013  19:07:00     -358.251      -78.303      -10.137      193.811      215.664       97.357    37562.809    46510.835     9478.386       11.405        4.678      366.709       99.698        0.074      348.061       27.480      858.878
07/12/2013  19:08:00     -439.620      -44.585      -22.715      205.407      157.911       73.354    42192.149    24935.862     5380.780       13.412        3.625      441.875       80.583        0.033      348.063       27.483      858.845
07/12/2013  19:09:00     -366.865     -179.266      -23.077      172.772      132.005       72.116    29850.223    17425.299     5200.765       10.986        2.624      408.321       70.504        0.030      348.092       27.532      858.820
07/12/2013  19:10:00     -534.124      -13.753      -22.094      207.529      191.219       96.670    43068.157    36564.778     9345.062       18.745        4.449      534.301       92.350        0.030      348.033       27.430      858.838
07/12/2013  19:11:00     -695.538     -200.885      -29.696      223.190      202.438      104.412    49813.877    40981.145    10901.969       31.333        5.085      723.966      113.273        0.024      347.968       27.317      858.831
07/12/2013  19:12:00     -323.137     -101.638       19.103      302.824      175.207      110.572    91702.472    30697.642    12226.083       12.484        6.731      338.744      139.699        0.170      348.036       27.435      858.868
07/12/2013  19:13:00     -396.988     -116.643      -16.108      161.277      154.034       82.290    26010.196    23726.559     6771.633       11.398        2.825      413.769       81.039        0.038      348.042       27.445      858.887
07/12/2013  19:14:00     -659.290     -160.677      -51.922      237.583      185.381       93.123    56445.511    34366.095     8671.927       28.131        4.974      678.587       91.929        0.018      347.949       27.284      858.868
07/12/2013  19:15:00     -538.969     -171.071      -23.525      286.218      157.791       98.980    81920.838    24898.156     9797.129       21.844        5.831      565.467      130.752        0.053      347.918       27.229      858.858
07/12/2013  19:16:00     -539.401      -40.385      -13.771      208.691      138.873      101.167    43551.872    19285.843    10234.786       18.291        3.654      540.911      113.999        0.044      347.928       27.249      858.870
07/12/2013  19:17:00     -616.163      -31.158      -42.380      269.566      187.371      109.171    72665.716    35107.982    11918.273       25.103        5.985      616.951      121.421        0.039      347.913       27.223      858.870
07/12/2013  19:18:00     -493.994     -155.394       -9.865      231.730      162.512      110.736    53698.589    26410.168    12262.537       18.030        4.619      517.859      107.432        0.043      347.938       27.267      858.889
07/12/2013  19:19:00     -333.317        6.809       -4.731      225.584      172.067       77.787    50888.190    29607.167     6050.887        9.884        4.327      333.387       73.590        0.049      347.937       27.265      858.921
07/12/2013  19:20:00     -384.213     -140.786      -11.845      160.252      173.774       82.650    25680.860    30197.439     6830.969       11.513        3.135      409.194       78.327        0.037      347.939       27.269      858.931
07/12/2013  19:21:00     -395.980     -247.009        2.087      267.815      175.237       93.133    71724.698    30708.032     8673.684       16.444        5.555      466.705      125.078        0.072      347.891       27.183      858.921
07/12/2013  19:22:00     -320.338     -141.299      -15.236      189.746      148.849       99.242    36003.505    22155.996     9849.030        9.540        3.400      350.117      101.701        0.084      347.935       27.262      858.940
07/12/2013  19:23:00     -275.144     -153.163       -1.113      204.400      152.558       92.395    41779.534    23273.979     8536.862        8.636        3.680      314.902      112.413        0.127      347.884       27.173      858.924
07/12/2013  19:24:00     -371.856      -31.357        4.847      189.761      135.398       78.485    36009.379    18332.497     6159.893        9.988        3.025      373.176       86.173        0.053      347.886       27.176      858.941
07/12/2013  19:25:00     -619.691      -84.981      -35.398      241.827      202.895       93.950    58480.407    41166.569     8826.667       25.046        5.424      625.490       98.908        0.025      347.800       27.028      858.923
07/12/2013  19:26:00     -304.871      -21.767       -0.655      182.863      146.980       88.232    33438.759    21603.103     7784.899        7.811        3.141      305.647       99.349        0.106      347.829       27.078      858.941
07/12/2013  19:27:00     -285.224     -137.782       -0.959      158.114      136.908       87.526    24999.897    18743.671     7660.886        7.586        2.570      316.760       78.412        0.061      347.844       27.105      858.947
07/12/2013  19:28:00     -294.756       21.747        9.053      228.601      138.196      105.746    52258.543    19098.208    11182.298        8.497        4.127      295.557      114.697        0.151      347.797       27.023      858.923
07/12/2013  19:29:00     -614.938      -34.575      -51.117      224.430      187.865       88.567    50368.674    35293.089     7844.113       23.771        4.675      615.909      102.960        0.028      347.710       26.872      858.948
07/12/2013  19:30:00     -298.752      -32.535        1.716      137.695      139.968       69.310    18959.904    19590.921     4803.863        6.683        2.168      300.518       68.119        0.051      347.779       26.992      858.953
07/12/2013  19:31:00     -506.002       -9.200      -32.893      208.487      143.862       87.084    43466.970    20696.222     7583.563       16.446        3.587      506.085      103.365        0.042      347.719       26.889      858.970
07/12/2013  19:32:00     -551.907     -209.752      -23.916      242.946      193.859      102.527    59022.580    37581.488    10511.725       22.812        5.356      590.421       93.397        0.025      347.653       26.775      858.977
07/12/2013  19:33:00     -451.697      -98.027      -13.707      204.666      142.256       89.552    41888.015    20236.753     8019.601       14.197        3.507      462.212       89.336        0.037      347.630       26.737      858.968
07/12/2013  19:34:00     -291.974      -23.681       -1.733      189.627      142.186       89.287    35958.304    20216.835     7972.227        7.497        3.207      292.933      101.034        0.119      347.666       26.796      858.979
07/12/2013  19:35:00     -383.100      -13.698       -8.094      258.695      152.246       99.444    66922.882    23178.855     9889.101       12.349        5.000      383.345      110.818        0.084      347.645       26.763      858.990
07/12/2013  19:36:00     -341.688     -156.030      -10.329      214.188      180.731       84.647    45876.530    32663.717     7165.147       11.344        4.285      375.627       99.466        0.070      347.653       26.775      858.988
07/12/2013  19:37:00     -299.267     -130.630       10.292      225.664      182.112       96.311    50924.349    33164.728     9275.752       10.003        4.668      326.535      108.306        0.110      347.597       26.679      859.002
07/12/2013  19:38:00     -322.741      -32.151      -14.257      179.788      182.843      100.411    32323.865    33431.701    10082.270        9.060        3.792      324.338       93.436        0.083      347.612       26.705      858.988
07/12/2013  19:39:00     -329.482     -114.181       -6.229      170.471      138.482       79.404    29060.263    19177.297     6305.008        8.808        2.727      348.706       91.354        0.069      347.561       26.616      858.999
07/12/2013  19:40:00     -321.410      -83.272       10.441      232.509      186.528       93.859    54060.619    34792.701     8809.447       10.399        4.883      332.022      116.684        0.124      347.538       26.578      859.003
07/12/2013  19:41:00     -270.833      -69.827        9.180      223.951      157.677       87.504    50154.094    24862.044     7656.994        8.048        4.134      279.689      118.945        0.181      347.530       26.563      859.007
07/12/2013  19:42:00     -422.342      -35.410      -18.406      276.495      189.624      100.414    76449.307    35957.346    10082.906       15.120        6.124      423.824      104.448        0.061      347.513       26.533      859.006
07/12/2013  19:43:00     -377.154     -130.181        0.207      330.269      184.420      104.305   109077.491    34010.692    10879.571       15.655        7.698      398.989      140.467        0.124      347.467       26.453      859.011
07/12/2013  19:44:00     -611.935     -127.636      -25.124      284.389      183.015       96.570    80877.015    33494.375     9325.814       25.752        6.185      625.104      114.560        0.034      347.436       26.400      859.016
07/12/2013  19:45:00     -399.479      -92.694      -14.697      178.196      154.499       82.413    31753.778    23870.022     6791.942       11.539        3.121      410.092       85.307        0.043      347.457       26.435      859.035
07/12/2013  19:46:00     -338.507     -159.694        2.973      249.400      175.727      101.123    62200.465    30880.058    10225.853       12.168        5.165      374.285      100.643        0.072      347.458       26.439      859.042
07/12/2013  19:47:00     -321.766     -139.356       18.667      184.602      167.043       87.912    34077.829    27903.486     7728.543        9.649        3.485      350.647      101.033        0.083      347.408       26.352      859.047
07/12/2013  19:48:00     -327.443      -76.234        0.051      237.215      157.557       87.153    56270.820    24824.278     7595.588       10.084        4.435      336.200       97.959        0.085      347.373       26.292      859.057
07/12/2013  19:49:00     -424.234       14.151      -23.757      201.365      154.046       94.605    40547.809    23730.064     8950.086       12.697        3.661      424.470       95.427        0.051      347.329       26.216      859.055
07/12/2013  19:50:00     -357.831     -150.464        4.319      181.068      175.707       90.095    32785.502    30873.068     8117.192       11.122        3.589      388.178       88.879        0.052      347.356       26.262      859.060
07/12/2013  19:51:00     -211.676     -114.356       -0.044      169.030      144.932       72.682    28571.281    21005.277     5282.637        5.636        2.743      240.591       84.263        0.123      347.348       26.250      859.066
07/12/2013  19:52:00     -363.108       -9.979       -0.238      164.825      123.585       72.504    27167.327    15273.283     5256.869        8.981        2.385      363.245       67.951        0.035      347.313       26.188      859.093
07/12/2013  19:53:00     -304.633      -54.078      -12.899      254.752      146.395       95.765    64898.554    21431.585     9170.908        9.568        4.775      309.395      113.480        0.135      347.261       26.098      859.088
07/12/2013  19:54:00     -361.505        5.794      -23.274      171.012      181.038       80.621    29245.119    32774.579     6499.821        9.988        3.426      361.551       73.046        0.041      347.258       26.092      859.104
07/12/2013  19:55:00     -352.975      -45.596       -0.553      229.938      157.715       82.684    52871.672    24873.955     6836.568       10.561        4.229      355.908      103.779        0.085      347.227       26.040      859.095
07/12/2013  19:56:00     -548.167      -88.827      -25.234      243.295      195.617      101.716    59192.556    38266.101    10346.061       20.839        5.390      555.317      120.686        0.047      347.175       25.951      859.083
07/12/2013  19:57:00     -459.829     -169.124      -13.082      218.602      177.243       94.510    47786.840    31415.229     8932.144       16.416        4.407      489.944       96.003        0.038      347.154       25.914      859.078
07/12/2013  19:58:00     -435.345     -116.828      -25.317      295.030      184.321       90.268    87042.644    33974.078     8148.337       16.646        6.458      450.749      114.650        0.065      347.152       25.912      859.086
07/12/2013  19:59:00     -362.753     -153.256       -0.367      304.336      152.759       96.005    92620.447    23335.173     9217.026       14.010        6.259      393.799      128.080        0.106      347.148       25.903      859.117
07/12/2013  20:00:00     -422.651     -177.365      -10.818      221.052      187.075       89.057    48863.884    34997.041     7931.097       15.098        4.590      458.358      110.200        0.058      347.157       25.920      859.125
07/12/2013  20:01:00     -269.847       20.633       -2.268      155.359      144.551       73.938    24136.396    20895.108     5466.855        6.186        2.525      270.635       72.658        0.072      347.093       25.808      859.131
07/12/2013  20:02:00     -330.373      -93.753      -20.225      147.170      147.989       71.790    21659.031    21900.738     5153.862        8.352        2.436      343.418       71.104        0.043      347.073       25.773      859.101
07/12/2013  20:03:00     -513.285     -145.798       -4.369      217.584      162.745       83.574    47342.589    26485.773     6984.581       18.276        4.041      533.591       97.874        0.034      347.053       25.740      859.098
07/12/2013  20:04:00     -362.973     -100.231      -15.925      193.009      167.406       76.239    37252.633    28024.744     5812.340       10.656        3.554      376.558       86.372        0.053      347.017       25.678      859.079
07/12/2013  20:05:00     -547.567     -212.004        7.081      293.633      183.753      104.905    86220.105    33765.037    11005.096       23.788        6.550      587.176      130.618        0.049      346.988       25.629      859.064
07/12/2013  20:06:00     -503.632     -126.186      -28.158      218.641      190.656      102.492    47803.686    36349.630    10504.532       18.249        4.733      519.199      102.349        0.039      346.999       25.648      859.078
07/12/2013  20:07:00     -332.493      -57.132       -9.855      170.681      139.758       89.742    29132.173    19532.306     8053.673        8.530        2.836      337.365       95.321        0.080      346.973       25.603      859.107
07/12/2013  20:08:00     -462.521      -75.159      -12.701      261.628      148.076       89.362    68449.341    21926.559     7985.596       15.903        4.918      468.588      108.119        0.053      346.965       25.590      859.092
07/12/2013  20:09:00     -375.594      -45.205       -7.647      211.426      185.440       85.643    44701.037    34387.995     7334.779       11.478        4.321      378.305       85.241        0.051      346.930       25.528      859.094
07/12/2013  20:10:00     -443.175      -75.712       -3.924      202.375      150.941       77.983    40955.791    22783.043     6081.312       13.597        3.491      449.596       95.815        0.045      346.930       25.529      859.099
07/12/2013  20:11:00     -445.730      -48.644      -14.143      174.780      175.439       88.471    30548.025    30778.952     7827.144       13.518        3.458      448.376       92.268        0.042      346.909       25.491      859.137
07/12/2013  20:12:00     -507.490     -125.785      -37.178      200.609      169.065       83.003    40243.933    28582.942     6889.533       17.522        3.786      522.846       77.488        0.022      346.916       25.503      859.136
07/12/2013  20:13:00     -562.127      -72.306      -34.718      182.443      127.890       86.966    33285.267    16355.880     7563.116       18.980        2.860      566.758       90.051        0.025      346.892       25.461      859.156
07/12/2013  20:14:00     -397.753      -89.548       -7.053      193.921      176.344       81.569    37605.395    31097.302     6653.542       12.080        3.768      407.708       99.898        0.060      346.887       25.453      859.156
07/12/2013  20:15:00     -282.904       -8.351       -3.451      173.706      105.570       70.577    30173.620    11144.988     4981.053        6.320        2.315      283.027       86.348        0.093      346.834       25.364      859.152
07/12/2013  20:16:00     -206.902      -23.371        4.525      188.152      106.515       72.249    35401.027    11345.383     5219.960        4.766        2.598      208.218       87.146        0.175      346.806       25.316      859.133
07/12/2013  20:17:00     -563.635      -86.962      -22.039      245.431      183.578      108.449    60236.393    33700.715    11761.114       21.569        5.285      570.304      113.985        0.040      346.802       25.307      859.132
07/12/2013  20:18:00     -333.827     -138.432       -5.428      200.749      164.331       79.548    40300.131    27004.760     6327.927       10.212        3.682      361.392       88.891        0.061      346.793       25.293      859.131
07/12/2013  20:19:00     -257.449      -46.012        8.808      195.421      139.203       88.812    38189.339    19377.534     7887.611        6.695        3.273      261.529       99.943        0.146      346.771       25.255      859.143
07/12/2013  20:20:00     -472.497      -30.385      -21.706      270.189      161.172      103.135    73002.037    25976.258    10636.903       16.711        5.481      473.473      125.666        0.070      346.735       25.192      859.166
07/12/2013  20:21:00     -479.584      -63.616      -11.357      199.772      193.123       91.418    39908.864    37296.313     8357.226       15.985        4.278      483.785       83.657        0.030      346.739       25.199      859.175
07/12/2013  20:22:00     -268.561      -71.478       10.972      230.353      164.973       98.624    53062.520    27215.948     9726.786        8.366        4.500      277.910      110.584        0.158      346.692       25.118      859.197
07/12/2013  20:23:00     -474.853      -82.426      -25.620      229.486      170.366       85.532    52664.050    29024.638     7315.686       16.095        4.450      481.954      108.348        0.051      346.676       25.092      859.235
07/12/2013  20:24:00     -375.497      -35.702      -20.503      207.932      161.369       77.070    43235.803    26039.989     5939.808       10.894        3.761      377.190       92.405        0.060      346.653       25.052      859.249
07/12/2013  20:25:00     -287.179      -88.191      -11.509      162.478      166.328       80.811    26399.258    27665.131     6530.341        7.548        3.030      300.415       87.591        0.085      346.647       25.042      859.239
07/12/2013  20:26:00     -286.120     -100.038       -1.325      145.734      115.699       75.609    21238.318    13386.341     5716.653        6.610        2.017      303.104       82.607        0.074      346.640       25.027      859.276
07/12/2013  20:27:00     -330.643      -95.907       19.194      286.139      166.773      105.180    81875.411    27813.138    11062.774       11.980        6.038      344.271      119.338        0.120      346.582       24.931      859.271
07/12/2013  20:28:00     -366.665      -73.154       -0.102      257.339      213.042      102.215    66223.322    45386.885    10447.845       13.090        6.103      373.891      122.232        0.107      346.610       24.979      859.268
07/12/2013  20:29:00     -474.978      -92.239      -25.249      212.658      156.611       83.242    45223.449    24526.953     6929.247       15.570        3.834      483.851       89.036        0.034      346.565       24.901      859.263
07/12/2013  20:30:00     -382.720     -136.186       -3.385      193.773      156.459       80.202    37547.973    24479.514     6432.408       11.673        3.423      406.228       66.480        0.027      346.533       24.845      859.247
07/12/2013  20:31:00     -553.034     -128.350      -21.235      269.664      176.588      104.305    72718.714    31183.495    10879.469       21.875        5.739      567.733      127.273        0.050      346.539       24.855      859.261
07/12/2013  20:32:00     -333.119     -123.999        4.950      201.138      177.176       96.023    40456.600    31391.408     9220.353       10.370        4.053      355.449      112.590        0.100      346.550       24.874      859.280
07/12/2013  20:33:00     -427.018      -41.311      -26.381      208.551      167.173       84.452    43493.320    27946.914     7132.069       13.164        3.929      429.012       78.307        0.033      346.522       24.827      859.297
07/12/2013  20:34:00     -482.871      -62.845      -12.016      283.934      149.733      113.699    80618.739    22420.019    12927.466       17.659        5.798      486.943      137.646        0.080      346.479       24.753      859.269
07/12/2013  20:35:00     -404.977      -98.385       -1.392      191.523      144.371       87.704    36680.874    20842.869     7691.993       11.944        3.261      416.756       89.531        0.046      346.495       24.781      859.299
07/12/2013  20:36:00     -433.400      -37.999      -22.477      194.514      169.737       75.652    37835.671    28810.813     5723.167       13.106        3.618      435.062       70.370        0.026      346.497       24.784      859.310
07/12/2013  20:37:00     -432.250        1.076        0.225      219.799      151.346       97.308    48311.744    22905.673     9468.867       13.375        4.034      432.251      112.804        0.068      346.440       24.686      859.365
07/12/2013  20:38:00     -636.690      -87.262      -62.001      218.699      149.412       81.373    47829.253    22323.877     6621.645       24.679        3.839      642.642      101.301        0.025      346.470       24.736      859.396
07/12/2013  20:39:00     -646.172     -218.079      -44.870      266.558      179.246       99.596    71053.348    32129.184     9919.398       29.008        5.655      681.980      119.089        0.030      346.464       24.726      859.356
07/12/2013  20:40:00     -426.807      -87.006      -16.584      207.777      159.366       85.032    43171.359    25397.645     7230.386       13.289        3.790      435.585       86.268        0.039      346.432       24.670      859.352
07/12/2013  20:41:00     -259.529     -112.582       11.167      208.004      170.446       89.858    43265.718    29051.758     8074.490        8.026        4.020      282.896       98.118        0.120      346.407       24.630      859.379
07/12/2013  20:42:00     -140.629      -43.994       -2.611      151.197      107.252       64.775    22860.635    11502.928     4195.744        3.013        1.928      147.350       76.826        0.272      346.394       24.608      859.399
07/12/2013  20:43:00     -379.504      -67.925      -14.149      244.077      139.123       88.274    59573.440    19355.084     7792.310       11.776        4.336      385.534       96.979        0.063      346.406       24.628      859.412
07/12/2013  20:44:00     -360.747       14.802      -28.452      184.245      171.665       90.012    33946.208    29469.027     8102.193       10.133        3.576      361.050       82.323        0.052      346.395       24.606      859.423
07/12/2013  20:45:00     -420.268      -73.110      -17.275      176.303      141.995       91.402    31082.592    20162.646     8354.275       12.092        2.980      426.580       92.374        0.047      346.359       24.545      859.426
07/12/2013  20:46:00     -584.893      -60.121      -43.952      231.546      157.623      105.716    53613.682    24845.142    11175.850       21.862        4.482      587.974      105.536        0.032      346.381       24.584      859.383
07/12/2013  20:47:00     -447.418      -77.201      -32.277      228.337      194.896      104.114    52137.618    37984.305    10839.647       15.405        5.048      454.029      117.297        0.067      346.350       24.531      859.382
07/12/2013  20:48:00     -397.935     -150.539       11.308      212.650      202.160       98.653    45220.167    40868.648     9732.430       13.846        4.791      425.458      107.873        0.064      346.313       24.467      859.382
07/12/2013  20:49:00     -517.236     -138.395      -25.206      250.095      159.332       98.185    62547.340    25386.634     9640.235       19.243        4.879      535.431      122.033        0.052      346.287       24.423      859.414
07/12/2013  20:50:00     -497.848     -116.041      -24.230      220.718      174.889       98.069    48716.606    30586.081     9617.587       17.539        4.446      511.193      108.030        0.045      346.282       24.413      859.443
07/12/2013  20:51:00     -539.125      -73.247      -37.867      222.524      171.369       96.472    49516.749    29367.473     9306.908       19.281        4.410      544.078      101.166        0.035      346.290       24.428      859.476
07/12/2013  20:52:00     -432.885      -89.070      -23.526      173.337      141.559       80.440    30045.552    20039.030     6470.658       12.620        2.828      441.953       87.046        0.039      346.272       24.397      859.478
07/12/2013  20:53:00     -529.329     -109.871      -20.661      231.612      138.031       85.142    53643.902    19052.678     7249.201       18.630        3.997      540.611      100.430        0.035      346.257       24.372      859.485
07/12/2013  20:54:00     -307.030      -65.075        2.708      193.973      121.482       85.578    37625.530    14757.847     7323.606        7.910        2.985      313.851       85.805        0.075      346.217       24.304      859.506
07/12/2013  20:55:00     -392.117      -25.969      -28.260      161.332      120.652       89.735    26028.033    14556.835     8052.307       10.192        2.432      392.976       96.934        0.061      346.198       24.266      859.558
07/12/2013  20:56:00     -271.918      -62.295      -11.239      152.799      110.577       75.021    23347.515    12227.312     5628.159        5.957        2.060      278.963       73.350        0.069      346.200       24.273      859.555
07/12/2013  20:57:00     -401.743     -121.410      -30.529      197.617      212.436       93.805    39052.561    45128.876     8799.318       13.501        4.649      419.688       99.954        0.057      346.225       24.316      859.526
07/12/2013  20:58:00     -573.061     -115.951      -56.550      259.733      191.114      107.101    67461.283    36524.662    11470.552       23.023        5.773      584.674      128.748        0.048      346.225       24.317      859.483
07/12/2013  20:59:00     -347.947      -83.863        9.953      249.549      177.091      109.230    62274.844    31361.159    11931.200       11.686        5.278      357.911      121.590        0.115      346.223       24.313      859.498
07/12/2013  21:00:00     -448.094      -96.822      -23.994      205.279      181.098       97.431    42139.514    32796.404     9492.767       14.757        4.221      458.435       91.824        0.040      346.226       24.317      859.574
07/12/2013  21:01:00     -581.617     -106.825      -36.058      207.621      239.054       79.954    43106.671    57146.900     6392.571       22.880        5.332      591.346       72.783        0.015      346.233       24.327      859.581
07/12/2013  21:02:00     -282.626     -140.735       17.169      220.576      215.800      130.054    48653.967    46569.464    16914.139       10.604        5.607      315.728      150.356        0.227      346.216       24.300      859.582
07/12/2013  21:03:00     -494.772     -113.237      -28.292      255.647      155.496       92.552    65355.613    24179.000     8565.883       17.824        4.905      507.565      108.919        0.046      346.220       24.306      859.634
07/12/2013  21:04:00     -513.954     -110.227      -35.671      294.896      208.547      109.597    86963.534    43491.920    12011.476       20.999        7.123      525.641      114.305        0.047      346.222       24.311      859.667
07/12/2013  21:05:00     -486.537      -72.911      -32.079      204.645      208.524       95.705    41879.482    43482.372     9159.499       16.877        4.726      491.970       89.989        0.033      346.218       24.304      859.692
07/12/2013  21:06:00     -508.105     -112.548      -27.161      186.888      123.196       80.698    34927.289    15177.181     6512.187       16.408        2.831      520.421       87.162        0.028      346.168       24.218      859.677
07/12/2013  21:07:00     -493.253      -80.629      -11.855      291.850      149.065       83.875    85176.314    22220.477     7034.991       18.216        5.722      499.799      109.214        0.048      346.133       24.157      859.653
07/12/2013  21:08:00     -484.887     -212.254      -40.888      221.916      132.237       89.335    49246.829    17486.576     7980.714       17.826        3.736      529.308      102.871        0.038      346.149       24.185      859.668
07/12/2013  21:09:00     -279.339     -123.501        5.873      196.095      168.750       92.923    38453.381    28476.490     8634.688        8.443        3.778      305.422       81.319        0.071      346.127       24.148      859.676
07/12/2013  21:10:00     -346.192     -104.499      -14.332      164.376      177.939       77.988    27019.500    31662.174     6082.137        9.786        3.238      361.620       70.800        0.038      346.146       24.179      859.691
07/12/2013  21:11:00     -474.018       14.417       -9.693      234.419      163.065       86.302    54952.373    26590.296     7448.102       15.698        4.450      474.237      101.443        0.046      346.118       24.131      859.697
07/12/2013  21:12:00     -466.692      -92.856      -35.782      199.509      169.716       88.166    39803.843    28803.392     7773.309       15.203        3.819      475.840       90.065        0.036      346.126       24.145      859.757
07/12/2013  21:13:00     -573.409      -11.383      -42.105      220.181      200.999       86.564    48479.763    40400.547     7493.369       21.352        4.819      573.522       99.614        0.030      346.120       24.137      859.774
07/12/2013  21:14:00     -518.266      -45.998      -29.084      196.959      151.947       79.319    38792.917    23087.969     6291.562       16.985        3.409      520.304       81.691        0.025      346.130       24.153      859.769
07/12/2013  21:15:00     -418.465      -43.832      -24.377      178.116      151.987       90.517    31725.353    23099.960     8193.325       12.031        3.151      420.754       89.174        0.045      346.076       24.059      859.788
07/12/2013  21:16:00     -482.945      -50.774      -26.765      191.028      158.397       93.005    36491.648    25089.679     8649.948       15.337        3.512      485.607       95.472        0.039      346.068       24.045      859.803
07/12/2013  21:17:00     -413.221     -119.870      -10.922      214.288      167.831       90.081    45919.553    28167.188     8114.520       13.370        4.110      430.256      112.203        0.068      346.059       24.030      859.845
07/12/2013  21:18:00     -394.949      -57.890      -10.227      224.866      155.798       79.797    50564.842    24273.110     6367.625       12.031        4.060      399.169       85.747        0.046      346.043       24.003      859.866
07/12/2013  21:19:00     -440.707     -256.366      -23.016      252.859      198.961      100.740    63937.586    39585.667    10148.524       18.705        5.684      509.849      117.993        0.054      346.068       24.046      859.885
07/12/2013  21:20:00     -444.091      -28.135      -20.003      248.823      211.744      100.231    61913.013    44835.413    10046.231       15.758        5.840      444.981      128.550        0.083      346.048       24.011      859.938
07/12/2013  21:21:00     -436.813     -158.021      -14.448      201.091      157.895       79.889    40437.545    24930.750     6382.263       14.385        3.588      464.517       81.177        0.031      346.048       24.012      859.985
07/12/2013  21:22:00     -551.180      -83.621      -33.935      174.585      152.035       90.139    30479.885    23114.724     8125.088       18.682        3.086      557.487       88.033        0.025      346.054       24.022      859.985
07/12/2013  21:23:00     -508.532     -146.959      -11.882      172.289      130.920       79.770    29683.515    17140.128     6363.332       16.675        2.659      529.341       78.346        0.022      346.021       23.966      859.977
07/12/2013  21:24:00     -353.518     -121.970       -8.002      152.721      132.932       85.590    23323.681    17670.793     7325.598        9.411        2.416      373.967       90.739        0.059      345.992       23.915      860.016
07/12/2013  21:25:00     -431.436      -54.065      -26.455      198.498      116.289       66.758    39401.272    13523.235     4456.693       12.356        2.869      434.810       82.383        0.036      345.981       23.899      860.049
07/12/2013  21:26:00     -533.356     -176.766       -5.443      219.546      156.115       90.086    48200.438    24372.008     8115.557       19.820        4.034      561.885       84.589        0.023      345.987       23.906      860.043
07/12/2013  21:27:00     -374.403      -81.942      -11.108      177.417      122.828       79.551    31476.885    15086.627     6328.386        9.994        2.645      383.265       90.501        0.056      345.977       23.891      860.068
07/12/2013  21:28:00     -402.188      -83.319       -6.349      187.961      154.877       83.194    35329.185    23986.897     6921.201       11.747        3.312      410.728       94.026        0.052      345.985       23.905      860.090
07/12/2013  21:29:00     -514.407     -108.118      -20.988      170.213      160.359       82.866    28972.315    25715.049     6866.756       16.914        3.078      525.646       85.863        0.027      345.997       23.926      860.105
07/12/2013  21:30:00     -427.619      -84.946      -10.643      149.712      116.238       70.857    22413.590    13511.336     5020.730       11.556        2.047      435.975       70.845        0.026      345.964       23.868      860.140
07/12/2013  21:31:00     -347.011       14.482      -20.116      213.903      145.012       78.305    45754.483    21028.576     6131.679        9.696        3.646      347.313       96.757        0.078      345.952       23.848      860.159
07/12/2013  21:32:00     -359.229      -35.183       -6.386      149.353      131.156       67.145    22306.328    17201.812     4508.403        8.716        2.201      360.948       70.395        0.038      345.923       23.797      860.173
07/12/2013  21:33:00     -329.203     -135.432        0.002      167.853      140.295       69.309    28174.479    19682.811     4803.759        8.968        2.633      355.972       74.885        0.044      345.940       23.826      860.172
07/12/2013  21:34:00     -409.492      -89.355      -13.174      169.974      142.386       82.659    28891.235    20273.721     6832.530       11.591        2.800      419.128       92.151        0.048      345.928       23.807      860.190
07/12/2013  21:35:00     -307.071      -82.722      -25.515      139.871      122.726       63.242    19563.880    15061.669     3999.599        7.020        1.931      318.018       63.260        0.040      345.912       23.779      860.183
07/12/2013  21:36:00     -406.014      -91.363       -3.344      204.828      197.704      106.607    41954.643    39086.862    11365.118       13.279        4.620      416.167      112.491        0.073      345.886       23.734      860.168
07/12/2013  21:37:00     -434.950     -114.406       -5.169      218.330      162.248       87.867    47668.048    26324.335     7720.575       14.199        4.086      449.745      104.257        0.054      345.877       23.721      860.171
07/12/2013  21:38:00     -493.927     -223.969      -16.680      218.592      202.564      102.531    47782.655    41032.166    10512.560       19.685        4.966      542.334      121.415        0.050      345.900       23.757      860.181
07/12/2013  21:39:00     -483.078     -132.935      -18.459      190.248      165.554       88.411    36194.274    27408.140     7816.593       16.138        3.571      501.035       90.327        0.033      345.893       23.745      860.211
07/12/2013  21:40:00     -543.328     -144.354      -25.078      261.844      168.026       90.874    68562.040    28232.729     8258.016       21.084        5.253      562.178       80.847        0.021      345.912       23.778      860.248
07/12/2013  21:41:00     -494.206     -100.209       -7.497      228.945      136.318       86.730    52416.032    18582.517     7522.173       16.641        3.926      504.263      105.158        0.043      345.900       23.757      860.255
07/12/2013  21:42:00     -482.111     -185.946      -20.485      226.808      179.306      107.738    51441.939    32150.721    11607.480       18.129        4.760      516.728      121.076        0.055      345.886       23.734      860.266
07/12/2013  21:43:00     -395.841      -98.858       14.036      242.750      154.384       90.190    58927.541    23834.364     8134.229       12.876        4.545      407.999       95.907        0.055      345.842       23.659      860.291
07/12/2013  21:44:00     -538.770     -134.415      -25.480      222.119      175.584       91.602    49336.929    30829.894     8390.920       19.876        4.428      555.284       85.360        0.024      345.880       23.723      860.319
07/12/2013  21:45:00     -350.836     -104.527        1.294      217.685      176.273       91.768    47386.653    31072.000     8421.416       11.043        4.344      366.076      103.425        0.080      345.825       23.629      860.332
07/12/2013  21:46:00     -466.206      -83.688      -27.290      174.754      136.448       69.452    30538.846    18618.057     4823.549       13.953        2.699      473.658       65.541        0.019      345.829       23.635      860.325
07/12/2013  21:47:00     -390.878      -10.614      -29.800      147.082      138.179       79.365    21633.056    19093.491     6298.825       10.040        2.351      391.022       80.640        0.043      345.793       23.576      860.326
07/12/2013  21:48:00     -458.024      -87.989      -10.270      201.520      165.197       82.154    40610.328    27289.907     6749.318       14.613        3.732      466.399      103.637        0.049      345.796       23.579      860.289
07/12/2013  21:49:00     -538.921      -86.178      -23.765      169.462      138.297       85.857    28717.318    19126.196     7371.426       17.681        2.761      545.768       93.485        0.029      345.773       23.541      860.311
07/12/2013  21:50:00     -465.214     -147.891      -14.909      183.997      144.904       78.416    33855.018    20997.191     6149.035       14.975        3.050      488.155       91.245        0.035      345.753       23.506      860.308
07/12/2013  21:51:00     -443.557     -118.963      -11.804      195.957      187.498       91.980    38399.173    35155.324     8460.373       14.651        4.101      459.233       92.035        0.040      345.755       23.509      860.312
07/12/2013  21:52:00     -398.877     -141.303      -26.498      172.883      184.796       80.604    29888.687    34149.715     6496.957       12.514        3.527      423.166       81.731        0.037      345.753       23.504      860.347
07/12/2013  21:53:00     -350.641      -42.740      -17.237      198.717      138.723       91.231    39488.261    19244.007     8323.160        9.605        3.353      353.236      103.609        0.086      345.726       23.459      860.363
07/12/2013  21:54:00     -500.708      -68.557      -18.512      207.724      181.166       88.984    43149.452    32821.043     7918.166       16.980        4.194      505.380       98.739        0.038      345.740       23.484      860.364
07/12/2013  21:55:00     -563.972      -64.320      -29.315      261.924      171.465       86.610    68604.170    29400.262     7501.360       21.426        5.275      567.628      106.321        0.035      345.740       23.483      860.380
07/12/2013  21:56:00     -409.507     -177.550      -28.830      160.763      128.856       77.269    25844.891    16603.753     5970.497       12.423        2.421      446.340       86.543        0.038      345.730       23.466      860.392
07/12/2013  21:57:00     -351.439     -164.415       -9.580      189.503      141.470       84.576    35911.325    20013.623     7153.135       10.684        3.154      387.997       93.117        0.058      345.691       23.398      860.379
07/12/2013  21:58:00     -556.711      -26.618      -35.068      256.712      134.813       92.105    65901.028    18174.507     8483.287       20.219        4.628      557.347      121.762        0.048      345.709       23.430      860.371
07/12/2013  21:59:00     -501.220     -129.045      -25.924      165.485      108.721       77.337    27385.325    11820.228     5980.954       15.686        2.259      517.566       68.270        0.017      345.674       23.370      860.400
07/12/2013  22:00:00     -422.341     -132.253      -39.597      226.924      155.355       83.697    51494.649    24135.263     7005.249       14.002        4.132      442.564       97.421        0.048      345.677       23.375      860.406
07/12/2013  22:01:00     -474.280     -257.110      -18.273      190.476      136.017       85.786    36281.182    18500.723     7359.169       17.675        3.107      539.488       73.872        0.019      345.678       23.377      860.430
07/12/2013  22:02:00     -515.150     -143.268      -26.081      171.665      184.464       81.456    29468.900    34026.799     6635.113       17.834        3.507      534.701       91.485        0.029      345.674       23.369      860.443
07/12/2013  22:03:00     -434.379     -138.574      -10.328      171.822      127.797       80.348    29522.656    16332.150     6455.855       13.014        2.616      455.947       83.965        0.034      345.662       23.350      860.456
07/12/2013  22:04:00     -546.852      -36.944      -37.312      167.345      136.019       87.979    28004.427    18501.236     7740.275       17.801        2.712      548.098       89.568        0.027      345.677       23.375      860.470
07/12/2013  22:05:00     -465.847       -7.744      -28.989      147.540      144.207       72.934    21768.047    20795.614     5319.304       13.289        2.394      465.911       61.291        0.017      345.654       23.334      860.474
07/12/2013  22:06:00     -372.645      -65.103      -35.220      188.635      133.620       84.343    35583.156    17854.431     7113.764       10.244        3.028      378.289       83.976        0.049      345.660       23.347      860.484
07/12/2013  22:07:00     -526.608      -61.021      -41.649      220.332      170.217       90.474    48546.327    28973.955     8185.577       18.422        4.285      530.131      104.522        0.039      345.646       23.322      860.500
07/12/2013  22:08:00     -555.981     -118.441      -15.928      219.338      133.772       77.412    48109.017    17894.835     5992.544       19.768        3.600      568.456       92.940        0.027      345.649       23.326      860.513
07/12/2013  22:09:00     -422.198      -76.742      -34.225      134.646      153.177       70.696    18129.451    23463.148     4997.965       11.594        2.330      429.115       52.019        0.015      345.615       23.268      860.520
07/12/2013  22:10:00     -452.683     -125.143      -30.207      122.404      120.330       67.220    14982.704    14479.378     4518.593       12.773        1.699      469.662       62.732        0.018      345.621       23.278      860.550
07/12/2013  22:11:00     -241.392     -105.337      -10.204      151.886      123.915       65.481    23069.496    15354.813     4287.810        5.608        2.136      263.374       61.721        0.055      345.563       23.179      860.550
07/12/2013  22:12:00     -346.362      -50.726      -27.704      137.172      123.419       70.604    18816.102    15232.161     4984.889        8.116        1.952      350.057       47.782        0.019      345.613       23.265      860.568
07/12/2013  22:13:00     -341.999     -107.644       -3.798      186.572      129.996       83.463    34808.970    16899.055     6966.083        9.361        2.934      358.540       85.422        0.057      345.585       23.217      860.574
07/12/2013  22:14:00     -251.150      -35.921      -25.290      154.832      119.723       61.694    23973.010    14333.579     3806.193        5.355        2.106      253.706       60.075        0.056      345.542       23.144      860.588
07/12/2013  22:15:00     -145.200        7.114       -6.228      112.519       99.770       52.908    12660.553     9953.989     2799.266        2.329        1.271      145.374       55.132        0.144      345.471       23.023      860.603
07/12/2013  22:16:00     -248.674      -73.325      -16.869      132.823      122.729       58.611    17641.900    15062.395     3435.280        5.181        1.807      259.259       61.927        0.057      345.452       22.989      860.588
07/12/2013  22:17:00     -410.887      -42.764      -46.317      166.376      150.706       82.411    27680.931    22712.436     6791.564       11.498        2.859      413.107       74.382        0.032      345.490       23.054      860.572
07/12/2013  22:18:00     -503.644     -195.579      -36.965      153.490      123.519       79.100    23559.035    15257.052     6256.855       16.917        2.254      540.286       70.194        0.017      345.539       23.138      860.568
07/12/2013  22:19:00     -499.845     -145.554      -27.897      191.352      117.694       78.116    36615.507    13851.917     6102.033       16.418        2.828      520.606       87.066        0.028      345.553       23.162      860.589
07/12/2013  22:20:00     -515.260     -114.635      -52.234      208.002      142.828       73.976    43264.714    20399.845     5472.463       17.524        3.457      527.858       82.104        0.024      345.588       23.222      860.549
07/12/2013  22:21:00     -501.100      -51.114      -47.957      199.209      115.703       87.960    39684.327    13387.138     7736.923       15.840        3.040      503.700      108.647        0.047      345.578       23.205      860.557
07/12/2013  22:22:00     -510.761      -61.984      -33.697      177.822      140.449       76.805    31620.710    19725.921     5899.021       16.154        2.862      514.509       71.412        0.019      345.660       23.345      860.555
07/12/2013  22:23:00     -449.482     -158.231      -25.268      128.991       91.563       63.401    16638.665     8383.759     4019.741       12.837        1.452      476.520       22.736        0.002      345.615       23.269      860.574
07/12/2013  22:24:00     -263.810      -81.583      -19.824      143.620      105.636       54.810    20626.660    11159.007     3004.146        5.571        1.739      276.137       48.784        0.031      345.514       23.095      860.584
07/12/2013  22:25:00     -407.340      -83.134      -45.182      171.707      124.589       79.611    29483.167    15522.447     6337.886       11.310        2.567      415.737       80.730        0.038      345.468       23.016      860.613
07/12/2013  22:26:00     -284.508      -25.669      -22.023      120.875      136.115       70.384    14610.873    18527.291     4953.894        6.008        1.905      285.663       57.172        0.040      345.456       22.996      860.591
07/12/2013  22:27:00     -335.959     -132.281      -23.810      106.160      107.841       73.459    11269.849    11629.735     5396.186        7.961        1.415      361.064       53.613        0.022      345.480       23.036      860.566
07/12/2013  22:28:00     -407.537      -51.805      -40.788      120.771      126.896       59.807    14585.618    16102.589     3576.928       10.234        1.713      410.816       62.468        0.023      345.496       23.064      860.572
07/12/2013  22:29:00     -338.200      -81.998      -23.002      110.702      123.111       61.866    12254.981    15156.330     3827.450        7.643        1.562      347.998       56.619        0.026      345.540       23.140      860.567
07/12/2013  22:30:00     -388.549     -145.632      -30.407      166.914      163.598       84.086    27860.322    26764.312     7070.487       11.739        3.085      414.944       62.319        0.023      345.604       23.249      860.549
07/12/2013  22:31:00     -437.322     -136.193      -29.076      135.657      127.102       72.025    18402.712    16154.900     5187.627       12.519        1.987      458.038       58.943        0.017      345.621       23.278      860.576
07/12/2013  22:32:00     -418.511      -62.284      -18.104      153.081      136.483       82.760    23433.723    18627.583     6849.200       11.412        2.446      423.120       81.887        0.037      345.593       23.229      860.616
07/12/2013  22:33:00     -439.095        1.195      -40.136      167.827      120.810       79.901    28165.937    14595.025     6384.103       12.177        2.457      439.096       87.164        0.039      345.581       23.209      860.623
07/12/2013  22:34:00     -407.000      -71.935      -49.688      136.620       97.446       63.557    18665.061     9495.756     4039.461       10.274        1.610      413.308       50.923        0.015      345.584       23.215      860.639
07/12/2013  22:35:00     -410.665      -49.498      -16.548      157.610      110.534       73.533    24840.852    12217.732     5407.133       10.691        2.123      413.637       81.244        0.039      345.563       23.178      860.645
07/12/2013  22:36:00     -468.088     -117.208      -38.337      166.313      125.871       73.397    27660.117    15843.394     5387.169       14.159        2.445      482.539       56.490        0.014      345.596       23.235      860.655
07/12/2013  22:37:00     -458.255      -92.999      -29.200      140.442      136.621       73.610    19724.082    18665.284     5418.410       13.164        2.190      467.596       70.805        0.023      345.617       23.271      860.669
07/12/2013  22:38:00     -350.381      -55.517      -20.537      132.981       90.907       61.365    17683.890     8264.153     3765.634        7.799        1.486      354.752       64.520        0.033      345.563       23.180      860.697
07/12/2013  22:39:00     -330.369      -48.675      -23.154       91.192       94.336       50.151     8315.970     8899.195     2515.127        6.589        0.987      333.935       36.905        0.012      345.488       23.048      860.718
07/12/2013  22:40:00     -317.518      -88.951      -18.864      107.435       89.149       60.929    11542.225     7947.537     3712.335        6.614        1.160      329.743       47.926        0.021      345.434       22.958      860.745
07/12/2013  22:41:00     -317.168      -71.610      -16.102      102.305       98.212       57.948    10466.379     9645.666     3358.016        6.472        1.174      325.152       51.816        0.025      345.401       22.901      860.761
07/12/2013  22:42:00     -306.350      -85.828      -19.908      122.326      104.166       57.831    14963.757    10850.500     3344.463        6.538        1.458      318.146       56.871        0.032      345.448       22.981      860.740
07/12/2013  22:43:00     -381.733      -60.238      -23.604      113.936       87.340       55.576    12981.303     7628.359     3088.672        8.680        1.185      386.457       57.623        0.022      345.469       23.017      860.740
07/12/2013  22:44:00     -262.039     -123.618      -23.753      101.279       93.695       50.023    10257.459     8778.660     2502.292        5.302        1.077      289.734       53.336        0.034      345.446       22.978      860.748
07/12/2013  22:45:00     -263.733      -50.724      -14.434      118.119      118.198       56.284    13951.982    13970.862     3167.924        5.171        1.555      268.566       56.759        0.045      345.441       22.970      860.760
07/12/2013  22:46:00     -269.061      -70.646      -13.903      156.285      120.454       75.092    24425.108    14509.185     5638.786        6.107        2.229      278.181       89.145        0.103      345.393       22.887      860.796
07/12/2013  22:47:00     -380.316      -42.656      -26.436      129.456      125.405       64.790    16758.955    15726.330     4197.680        9.191        1.834      382.701       62.842        0.027      345.479       23.035      860.796
07/12/2013  22:48:00     -289.922      -52.651      -11.166      120.934      127.573       64.270    14624.978    16274.978     4130.633        6.098        1.752      294.664       66.249        0.051      345.433       22.957      860.804
07/12/2013  22:49:00     -316.862      -87.628       -4.547      127.544       85.973       69.354    16267.359     7391.336     4810.030        6.828        1.423      328.755       71.501        0.047      345.470       23.019      860.811
07/12/2013  22:50:00     -322.058      -66.674       -7.767      117.305       78.631       57.422    13760.510     6182.868     3297.336        6.573        1.162      328.887       60.345        0.034      345.490       23.053      860.811
07/12/2013  22:51:00     -200.548      -34.600       -1.494       99.463       66.428       51.067     9892.819     4412.743     2607.790        2.916        0.846      203.511       46.010        0.051      345.435       22.960      860.820
07/12/2013  22:52:00     -107.479      -43.044        9.102      100.356       80.746       52.609    10071.322     6519.839     2767.665        1.642        0.968      115.778       48.510        0.176      345.386       22.876      860.834
07/12/2013  22:53:00     -198.234      -11.413      -14.174       83.235       72.912       47.684     6928.035     5316.218     2273.739        2.707        0.726      198.562       46.128        0.054      345.439       22.966      860.858
07/12/2013  22:54:00     -136.590      -31.712       -4.765       76.857       47.818       39.165     5907.020     2286.580     1533.928        1.470        0.486      140.222       40.438        0.083      345.403       22.908      860.882
07/12/2013  22:55:00      -92.918      -78.965       -2.070       58.177       41.584       29.817     3384.576     1729.233      889.027        1.044        0.300      121.940       23.768        0.038      345.508       23.090      860.899
07/12/2013  22:56:00     -105.299     -117.180       -4.279       73.091       56.854       35.550     5342.237     3232.406     1263.792        1.734        0.492      157.540       31.177        0.039      345.473       23.026      860.926
07/12/2013  22:57:00      -52.551      -39.718       12.933       55.838       70.744       32.088     3117.929     5004.697     1029.633        0.683        0.458       65.872       27.853        0.179      345.439       22.970      860.922
07/12/2013  22:58:00       33.162      -41.067       15.090       40.720       67.257       29.608     1658.086     4523.564      876.643        0.503        0.353       52.785       32.123        0.370      345.299       22.729      860.948
07/12/2013  22:59:00       17.876       -4.634       29.917       24.305       37.305       31.457      590.755     1391.653      989.540        0.210        0.149       18.467       28.558        2.392      345.161       22.493      860.954
07/12/2013  23:00:00      -12.556      -41.682       28.428       29.073       29.157       23.051      845.262      850.141      531.356        0.246        0.111       43.532       16.186        0.138      345.324       22.772      860.965
07/12/2013  23:01:00       21.509      -41.902       -0.790       38.399       58.390       29.240     1474.454     3409.356      854.974        0.398        0.287       47.100       11.882        0.064      345.269       22.678      860.983
07/12/2013  23:02:00      -22.796       23.287       40.993       23.361       23.326       28.751      545.714      544.105      826.630        0.233        0.096       32.588       21.091        0.419      345.071       22.339      860.984
07/12/2013  23:03:00      -18.883       15.998        8.734       22.605       77.779       25.124      511.005     6049.644      631.212        0.394        0.360       24.749       11.318        0.209      345.110       22.406      860.985
07/12/2013  23:04:00      -17.806      -69.985       -1.526       17.407       22.107       18.321      302.994      488.730      335.670        0.317        0.056       72.214        9.126        0.016      345.304       22.740      860.980
07/12/2013  23:05:00       -0.933      -61.162        7.618       10.872       21.425       16.467      118.193      459.028      271.173        0.232        0.042       61.169        6.882        0.013      345.297       22.727      860.993
07/12/2013  23:06:00       20.288      -15.171        0.853       14.956       12.251        8.881      223.674      150.087       78.875        0.055        0.023       25.333        8.083        0.102      345.247       22.640      860.999
07/12/2013  23:07:00       28.002      -68.237       -2.460       26.705       62.712       24.794      713.131     3932.742      614.727        0.535        0.263       73.759       16.073        0.047      345.239       22.626      861.001
07/12/2013  23:08:00      -53.432      -77.567        2.488       75.641       71.254       29.392     5721.544     5077.141      863.862        1.027        0.583       94.189       39.403        0.175      345.281       22.699      861.014
07/12/2013  23:09:00      -49.874     -120.241       -4.146       40.399       60.509       25.676     1632.080     3661.362      659.281        1.146        0.298      130.175       24.580        0.036      345.267       22.673      861.030
07/12/2013  23:10:00      -62.078      -95.677       -9.438       53.504       46.515       25.532     2862.688     2163.651      651.895        0.939        0.284      114.051       21.867        0.037      345.430       22.953      861.035
07/12/2013  23:11:00      -33.897      -78.506        4.322       31.780       44.806       20.712     1009.952     2007.547      428.976        0.539        0.172       85.512       20.730        0.059      345.354       22.824      861.028
07/12/2013  23:12:00      -90.872      -65.661       -1.835       70.324       49.139       30.657     4945.499     2414.645      939.844        1.043        0.415      112.112       29.799        0.071      345.264       22.670      861.007
07/12/2013  23:13:00      -70.379      -19.058        7.630       50.407       37.990       22.385     2540.825     1443.214      501.109        0.493        0.224       72.914       22.854        0.098      345.146       22.469      860.993
07/12/2013  23:14:00      -74.597      -53.286       -0.288       44.743       40.459       22.715     2001.936     1636.909      515.981        0.628        0.208       91.674       20.959        0.052      345.175       22.520      860.987
07/12/2013  23:15:00      -83.807     -113.128        2.473       80.110       48.759       34.802     6417.568     2377.450     1211.190        1.491        0.500      140.789       29.185        0.043      345.305       22.740      861.003
07/12/2013  23:16:00      -49.676      -82.353       10.761       60.444       41.499       36.178     3653.469     1722.177     1308.847        0.802        0.334       96.175       31.100        0.105      345.241       22.630      861.039
07/12/2013  23:17:00      -60.182      -91.450       -0.208       76.100       71.124       36.626     5791.172     5058.635     1341.492        1.209        0.610      109.476       44.420        0.165      345.214       22.584      861.064
07/12/2013  23:18:00      -33.716     -130.820        6.541       79.064       73.475       43.203     6251.102     5398.594     1866.509        1.590        0.676      135.095       36.461        0.073      345.272       22.682      861.052
07/12/2013  23:19:00      -10.004     -171.856       10.735       93.629      100.254       50.215     8766.404    10050.897     2521.515        2.554        1.067      172.147       34.977        0.041      345.235       22.617      861.028
07/12/2013  23:20:00     -143.851      -95.129        5.701       77.470       82.037       38.498     6001.570     6730.022     1482.073        2.199        0.711      172.461       38.936        0.051      345.220       22.593      861.021
07/12/2013  23:21:00      -78.631      -86.165       11.278       84.995       76.282       51.887     7224.188     5818.925     2692.300        1.473        0.787      116.650       44.113        0.143      345.180       22.526      861.030
07/12/2013  23:22:00      -97.934      -77.464       -4.695      100.259       75.733       41.744    10051.949     5735.432     1742.554        1.657        0.876      124.867       47.320        0.144      345.128       22.436      861.046
07/12/2013  23:23:00      -66.313      -70.045       16.622       70.134       62.047       41.446     4918.748     3849.874     1717.750        1.003        0.524       96.455       35.686        0.137      345.176       22.520      861.057
07/12/2013  23:24:00     -155.983     -179.122       -4.546       93.723       78.031       35.698     8783.984     6088.830     1274.330        3.629        0.807      237.519       39.199        0.027      345.213       22.580      861.072
07/12/2013  23:25:00     -120.128     -135.085       -4.623      111.846       77.241       39.430    12509.577     5966.122     1554.714        2.636        1.002      180.773       40.090        0.049      345.197       22.553      861.051
07/12/2013  23:26:00     -134.471      -92.703       -1.677       69.275       50.156       27.682     4798.967     2515.656      766.297        1.738        0.404      163.329       35.706        0.048      345.130       22.441      861.055
07/12/2013  23:27:00     -142.496      -84.811       -7.975       57.183       60.654       34.878     3269.854     3678.950     1216.467        1.786        0.408      165.825       30.105        0.033      345.083       22.359      861.071
07/12/2013  23:28:00      -99.657      -88.442        5.657       54.602       65.574       30.369     2981.420     4299.966      922.278        1.299        0.410      133.242       29.426        0.049      345.067       22.334      861.059
07/12/2013  23:29:00     -146.224     -143.221       -1.164       98.526       74.821       40.100     9707.460     5598.231     1608.009        2.940        0.846      204.680       51.454        0.063      345.159       22.485      861.052
07/12/2013  23:30:00     -155.017     -161.772        2.954       61.769       75.265       40.255     3815.399     5664.882     1620.437        3.065        0.555      224.054       33.650        0.023      345.158       22.486      861.048
07/12/2013  23:31:00     -210.271     -166.014       -8.508      125.818       68.846       52.019    15830.241     4739.799     2705.983        4.756        1.164      267.908       56.077        0.044      345.323       22.768      861.041
07/12/2013  23:32:00     -111.376     -139.717        2.040       65.005       61.502       46.183     4225.644     3782.527     2132.824        2.103        0.507      178.677       37.538        0.044      345.111       22.406      861.043
07/12/2013  23:33:00     -117.127     -100.370       18.985       92.783       76.976       44.411     8608.657     5925.376     1972.310        2.033        0.825      154.249       45.958        0.089      345.084       22.360      861.031
07/12/2013  23:34:00     -157.829     -123.238       -9.819       55.644       50.645       35.639     3096.302     2564.871     1270.163        2.356        0.347      200.244       22.485        0.013      345.122       22.423      861.041
07/12/2013  23:35:00      -95.688     -101.254       -7.847       86.114       60.650       38.813     7415.614     3678.445     1506.420        1.603        0.630      139.315       27.168        0.038      345.077       22.351      861.031
07/12/2013  23:36:00     -173.861     -141.762       -3.287      108.125       73.213       50.550    11691.109     5360.099     2555.299        3.497        0.980      224.331       50.958        0.052      345.143       22.460      861.025
07/12/2013  23:37:00     -187.019     -118.562        3.489      107.312       70.480       49.621    11515.871     4967.488     2462.226        3.399        0.947      221.434       52.919        0.057      345.094       22.376      861.038
07/12/2013  23:38:00      -70.007      -68.414        3.602       58.081       39.338       30.399     3373.377     1547.450      924.069        0.772        0.292       97.885       30.275        0.096      345.087       22.367      861.021
07/12/2013  23:39:00     -138.286      -80.410       12.341      144.694       85.082       54.437    20936.457     7239.011     2963.429        2.843        1.557      159.965       75.281        0.221      345.192       22.545      861.012
07/12/2013  23:40:00      -56.810      -59.926       27.643       97.864       71.870       57.605     9577.366     5165.236     3318.279        1.282        0.903       82.574       61.015        0.546      345.118       22.419      861.021
07/12/2013  23:41:00     -120.301      -44.744        9.124      129.931       68.429       61.603    16882.106     4682.590     3794.896        2.095        1.268      128.353       60.952        0.226      345.149       22.471      861.029
07/12/2013  23:42:00      -44.398      -79.285        6.949       74.985       65.298       37.349     5622.744     4263.791     1394.957        0.979        0.564       90.870       39.397        0.188      345.160       22.494      861.036
07/12/2013  23:43:00      -77.811      -99.415       -0.377       89.297       86.229       41.045     7973.923     7435.413     1684.708        1.651        0.855      126.246       43.111        0.117      345.197       22.554      861.040
07/12/2013  23:44:00      -78.603      -76.496        4.375       87.758       86.291       44.530     7701.395     7446.158     1982.888        1.459        0.857      109.682       31.758        0.084      345.141       22.458      861.079
07/12/2013  23:45:00      -67.679      -23.951       16.682       92.422       94.131       52.863     8541.747     8860.699     2794.549        1.281        1.010       71.792       57.312        0.637      345.157       22.488      861.109
07/12/2013  23:46:00      -22.596      -38.949        8.282       55.867       44.606       37.269     3121.089     1989.671     1388.981        0.430        0.325       45.029       34.120        0.574      345.024       22.260      861.109
07/12/2013  23:47:00      -10.459        3.788       23.685       58.889       43.280       25.173     3467.962     1873.177      633.697        0.333        0.299       11.124       32.460        8.515      345.053       22.308      861.137
07/12/2013  23:48:00       11.403       29.583        4.150       36.846       26.301       17.416     1357.664      691.741      303.303        0.169        0.118       31.705       14.324        0.204      344.977       22.179      861.145
07/12/2013  23:49:00       44.093       60.527       -7.945       55.831       44.818       30.516     3117.114     2008.613      931.253        0.586        0.303       74.884       25.582        0.117      344.777       21.836      861.164
07/12/2013  23:50:00       -1.499       47.661      -18.712       56.670       74.078       49.051     3211.483     5487.483     2405.978        0.686        0.555       47.684       20.836        0.191      345.147       22.470      861.172
07/12/2013  23:51:00       80.476       87.855       12.336       39.913       43.410       34.251     1593.014     1884.418     1173.123        0.950        0.233      119.142       32.234        0.073      344.587       21.512      861.177
07/12/2013  23:52:00      124.578       76.104       26.277       47.663       36.622       32.103     2271.758     1341.189     1030.616        1.332        0.232      145.984       25.198        0.030      344.286       20.998      861.180
07/12/2013  23:53:00      114.093       63.492       17.443       45.265       33.697       24.943     2048.904     1135.507      622.132        1.058        0.190      130.570       15.962        0.015      344.395       21.184      861.180
07/12/2013  23:54:00       81.576       73.727       -3.600       38.102       24.708       28.965     1451.786      610.509      838.943        0.750        0.145      109.956       15.140        0.019      344.314       21.043      861.174
07/12/2013  23:55:00       37.258       67.996        0.211       30.277       34.653       29.804      916.679     1200.844      888.266        0.451        0.150       77.535       23.439        0.091      344.364       21.131      861.180
07/12/2013  23:56:00       66.924       67.173        2.242       34.617       27.910       22.100     1198.366      778.983      488.394        0.573        0.123       94.821       19.787        0.044      344.375       21.150      861.175
07/12/2013  23:57:00       76.907       85.983        3.700       40.897       36.398       40.968     1672.600     1324.823     1678.398        0.900        0.234      115.359       27.832        0.058      344.408       21.204      861.158
07/12/2013  23:58:00       62.858       66.488        7.200       47.615       26.557       28.794     2267.221      705.255      829.094        0.611        0.190       91.498       15.741        0.030      344.379       21.156      861.150
07/12/2013  23:59:00       -6.049      128.776      -17.416       26.385       39.955       18.804      696.160     1596.384      353.586        0.978        0.132      128.918       19.232        0.022      344.386       21.166      861.169
